ftp/pub/palmer/observations_modified/2019/June/AR190604_BASE.txt

Download

Sample DateTime	Unit Id	WS Avg 2min	WD Avg 2min	WGS 10min	WGD 10min	Air Temp	Rel Humidity	Dew Point	Pyranometer	Quantum	Air Pressure	Snow Level	Rainfall	PW Current	Visibility	CBase 1	CBase 2	CBase 3	Vert Vis
2019/06/04  00:00:00  BASE  1.56408  122  2.81064  184  -0.7  100   -0.7  0     0     993.9    NA       0.0000   9999     3380  0     0    
2019/06/04  00:01:00  BASE  1.49352  124  2.81064  184  -0.7  100   -0.7  0     0     993.9    NA       0.0000   9999     3670  4360  0    
2019/06/04  00:02:00  BASE  1.56408  144  2.81064  184  -0.6  100   -0.6  0     0     993.9    NA       0.0000   9999     4040  0     0    
2019/06/04  00:03:00  BASE  1.75812  150  2.81064  184  -0.4  100   -0.4  0     0     993.9    NA       0.0000   9999     4000  0     0    
2019/06/04  00:04:00  BASE  1.84632  148  2.81064  184  -0.2  100   -0.2  0     0     993.9    NA       0.0000   9999     4000  0     0    
2019/06/04  00:05:00  BASE  1.78752  130  2.72244  183  -0.1  100   -0.1  0     0     993.9    NA       0.0000   9999     4000  0     0    
2019/06/04  00:06:00  BASE  2.01684  127  2.63424  147  0.0   100   0.0   0     0     993.9    NA       0.0000   9999     4100  0     0    
2019/06/04  00:07:00  BASE  2.5578   141  3.48096  143  0.0   100   0.0   0     0     993.8    NA       0.0000   9999     4070  0     0    
2019/06/04  00:08:00  BASE  3.09876  140  4.263    136  0.0   100   0.0   0     0     993.8    NA       0.0000   9999     4100  0     0    
2019/06/04  00:09:00  BASE  3.69264  140  4.41588  150  -0.0  100   -0.0  0     0     993.8    NA       0.0000   9999     4100  0     0    
2019/06/04  00:10:00  BASE  3.45156  142  4.41588  150  -0.1  100   -0.1  0     0     993.8    NA       0.0000   9999     2820  4070  0    
2019/06/04  00:11:00  BASE  3.18108  133  4.41588  150  -0.1  100   -0.1  0     0     993.9    NA       0.0000   9999     4000  0     0    
2019/06/04  00:12:00  BASE  3.39864  130  4.41588  150  -0.2  100   -0.2  0     0     993.9    NA       0.0000   9999     2990  0     0    
2019/06/04  00:13:00  BASE  3.19872  136  4.41588  150  -0.2  100   -0.2  0     0     993.9    NA       0.0000   9999     3640  0     0    
2019/06/04  00:14:00  BASE  2.51664  141  4.41588  150  -0.1  100   -0.1  0     0     993.9    NA       0.0000   9999     2820  3870  0    
2019/06/04  00:15:00  BASE  1.62288  143  4.41588  150  -0.1  100   -0.1  0     0     993.9    NA       0.0000   9999     2530  0     0    
2019/06/04  00:16:00  BASE  1.34064  146  4.41588  150  -0.1  100   -0.1  0     0     993.9    NA       0.0000   9999     2590  0     0    
2019/06/04  00:17:00  BASE  1.80516  148  4.41588  150  -0.1  100   -0.1  0     0     993.8    NA       0.0000   9999     3640  0     0    
2019/06/04  00:18:00  BASE  2.35788  161  4.41588  150  -0.1  100   -0.1  0     0     993.7    NA       0.0000   9999     3770  0     0    
2019/06/04  00:19:00  BASE  2.25204  181  4.1748   128  -0.1  100   -0.1  0     0     993.7    NA       0.0000   9999     1570  3640  0    
2019/06/04  00:20:00  BASE  1.911    172  4.1748   128  -0.1  100   -0.1  0     0     993.7    NA       0.0000   9999     1800  2460  0    
2019/06/04  00:21:00  BASE  1.92276  157  3.59856  132  -0.1  100   -0.1  0     0     993.7    NA       0.0000   9999     1940  3080  0    
2019/06/04  00:22:00  BASE  1.65816  171  3.35748  139  -0.1  100   -0.1  0     0     993.7    NA       0.0000   9999     3350  0     0    
2019/06/04  00:23:00  BASE  1.83456  206  2.78124  235  -0.1  100   -0.1  0     0     993.7    NA       0.0000   9999     3580  0     0    
2019/06/04  00:24:00  BASE  2.06976  224  2.78124  235  -0.1  100   -0.1  0     0     993.7    NA       0.0000   9999     3540  0     0    
2019/06/04  00:25:00  BASE  2.058    222  2.78124  235  -0.1  100   -0.1  0     0     993.7    NA       0.0000   9999     3640  0     0    
2019/06/04  00:26:00  BASE  2.65188  217  3.2046   214  -0.1  100   -0.1  0     0     993.6    NA       0.0000   9999     3810  0     0    
2019/06/04  00:27:00  BASE  2.81064  218  3.2046   214  -0.2  100   -0.2  0     0     993.6    NA       0.0000   9999     2820  3640  0    
2019/06/04  00:28:00  BASE  2.62836  210  3.2046   214  -0.2  100   -0.2  0     0     993.6    NA       0.0000   9999     3840  0     0    
2019/06/04  00:29:00  BASE  2.75184  188  3.2046   170  -0.3  100   -0.3  0     0     993.7    NA       0.0000   9999     4000  0     0    
2019/06/04  00:30:00  BASE  2.88708  172  3.2046   170  -0.4  100   -0.4  0     0     993.7    NA       0.0000   9999     3870  0     0    
2019/06/04  00:31:00  BASE  2.84004  167  3.2046   170  -0.5  100   -0.5  0     0     993.7    NA       0.0000   9999     3740  0     0    
2019/06/04  00:32:00  BASE  2.29908  168  3.2046   170  -0.5  100   -0.5  0     0     993.7    NA       0.0000   9999     3840  0     0    
2019/06/04  00:33:00  BASE  1.74636  181  3.2046   170  -0.6  100   -0.6  0     0     993.7    NA       0.0000   9999     3770  0     0    
2019/06/04  00:34:00  BASE  1.49352  197  3.2046   170  -0.5  100   -0.5  0     0     993.7    NA       0.0000   9999     3670  0     0    
2019/06/04  00:35:00  BASE  1.28772  240  3.2046   170  -0.5  100   -0.5  0     0     993.7    NA       0.0000   9999     3610  0     0    
2019/06/04  00:36:00  BASE  1.92276  265  3.26928  275  -0.4  100   -0.4  0     0     993.6    NA       0.0000   9999     4000  0     0    
2019/06/04  00:37:00  BASE  2.34024  264  3.26928  275  -0.3  100   -0.3  0     0     993.6    NA       0.0000   9999     1670  4000  0    
2019/06/04  00:38:00  BASE  1.88748  222  3.26928  275  -0.3  100   -0.3  0     0     993.7    NA       0.0000   9999     3970  0     0    
2019/06/04  00:39:00  BASE  2.058    115  3.38688  104  -0.3  100   -0.3  0     0     993.7    NA       0.0000   9999     3970  0     0    
2019/06/04  00:40:00  BASE  2.61072  92   4.29828  54   -0.2  100   -0.2  0     0     993.6    NA       0.0000   9999     4000  0     0    
2019/06/04  00:41:00  BASE  2.84004  42   6.13872  47   0.2   100   0.2   0     0     993.5    NA       0.0000   9999     3940  0     0    
2019/06/04  00:42:00  BASE  4.116    357  9.89016  4    0.8   100   0.8   0     0     993.4    NA       0.0000   9999     3840  0     0    
2019/06/04  00:43:00  BASE  4.22184  355  9.89016  4    1.4   100   1.4   0     0     993.5    NA       0.0000   9999     3970  0     0    
2019/06/04  00:44:00  BASE  2.69892  344  9.89016  4    2.2   100   2.2   0     0     993.4    NA       0.0000   9999     3120  4040  0    
2019/06/04  00:45:00  BASE  2.86944  355  9.89016  4    2.7   100   2.7   0     0     993.5    NA       0.0000   9999     3280  0     0    
2019/06/04  00:46:00  BASE  4.1454   38   9.89016  4    2.8   100   2.8   0     0     993.5    NA       0.0000   9999     3450  3900  0    
2019/06/04  00:47:00  BASE  3.86904  77   9.89016  4    2.5   100   2.5   0     0     993.4    NA       0.0000   9999     4000  0     0    
2019/06/04  00:48:00  BASE  2.63424  90   9.89016  4    2.2   100   2.2   0     0     993.5    NA       0.0000   9999     3220  4070  0    
2019/06/04  00:49:00  BASE  2.2932   69   9.89016  4    1.9   100   1.9   0     0     993.5    NA       0.0000   9999     3220  4170  0    
2019/06/04  00:50:00  BASE  2.1462   60   9.89016  4    1.8   100   1.8   0     0     993.5    NA       0.0000   9999     3380  4270  0    
2019/06/04  00:51:00  BASE  1.84632  61   9.89016  4    1.9   100   1.9   0     0     993.5    NA       0.0000   9999     3410  4230  0    
2019/06/04  00:52:00  BASE  1.93452  52   5.47428  52   2.1   100   2.1   0     0     993.5    NA       0.0000   9999     3380  0     0    
2019/06/04  00:53:00  BASE  2.62836  50   5.47428  52   2.0   100   2.0   0     0     993.5    NA       0.0000   9999     3480  4270  0    
2019/06/04  00:54:00  BASE  2.88708  59   5.47428  52   1.9   100   1.9   0     0     993.5    NA       0.0000   9999     3480  4430  0    
2019/06/04  00:55:00  BASE  2.45784  70   5.47428  52   1.8   100   1.8   0     0     993.5    NA       0.0000   9999     3510  0     0    
2019/06/04  00:56:00  BASE  2.21676  83   3.90432  74   1.6   100   1.6   0     0     993.5    NA       0.0000   9999     3610  0     0    
2019/06/04  00:57:00  BASE  1.97568  100  3.53976  51   1.5   100   1.5   0     0     993.6    NA       0.0000   9999     3640  0     0    
2019/06/04  00:58:00  BASE  1.37592  111  3.53976  51   1.5   100   1.5   0     0     993.6    NA       0.0000   9999     3770  0     0    
2019/06/04  00:59:00  BASE  0.84084  132  3.53976  51   1.5   100   1.5   0     0     993.6    NA       0.0000   9999     4040  0     0    
2019/06/04  01:00:00  BASE  0.45864  163  3.53976  51   1.5   100   1.5   0     0     993.6    NA       0.0000   9999     4040  0     0    
2019/06/04  01:01:00  BASE  0.71736  223  3.53976  51   1.4   100   1.4   0     0     993.6    NA       0.0000   9999     4070  0     0    
2019/06/04  01:02:00  BASE  1.41708  244  3.53976  51   1.3   100   1.3   0     0     993.6    NA       0.0000   9999     4100  0     0    
2019/06/04  01:03:00  BASE  2.00508  233  3.02232  50   1.2   100   1.2   0     0     993.6    NA       0.0000   9999     3510  0     0    
2019/06/04  01:04:00  BASE  2.30496  226  2.54016  231  1.0   100   1.0   0     0     993.5    NA       0.0000   9999     3580  0     0    
2019/06/04  01:05:00  BASE  2.24616  224  2.54016  231  0.9   100   0.9   0     0     993.5    NA       0.0000   9999     3940  0     0    
2019/06/04  01:06:00  BASE  2.19912  216  2.54016  231  0.8   100   0.8   0     0     993.5    NA       0.0000   9999     3810  0     0    
2019/06/04  01:07:00  BASE  2.19324  201  2.54016  231  0.7   100   0.7   0     0     993.5    NA       0.0000   9999     4100  0     0    
2019/06/04  01:08:00  BASE  2.12856  186  2.54016  231  0.6   100   0.6   0     0     993.5    NA       0.0000   9999     4130  0     0    
2019/06/04  01:09:00  BASE  2.38728  176  2.90472  176  0.7   100   0.7   0     0     993.5    NA       0.0000   9999     3250  4170  0    
2019/06/04  01:10:00  BASE  2.69304  173  2.90472  176  0.6   100   0.6   0     0     993.5    NA       0.0000   9999     4430  0     0    
2019/06/04  01:11:00  BASE  2.60484  166  2.90472  176  0.5   100   0.5   0     0     993.5    NA       0.0000   9999     4000  4530  0    
2019/06/04  01:12:00  BASE  2.63424  157  3.53976  151  0.4   100   0.4   0     0     993.5    NA       0.0000   9999     3970  4590  0    
2019/06/04  01:13:00  BASE  3.32808  154  4.59816  153  0.2   100   0.2   0     0     993.5    NA       0.0000   9999     3510  3970  0    
2019/06/04  01:14:00  BASE  4.13952  152  4.86864  152  0.0   100   0.0   0     0     993.5    NA       0.0000   9999     3410  4230  0    
2019/06/04  01:15:00  BASE  4.12188  149  4.86864  152  -0.2  100   -0.2  0     0     993.5    NA       0.0000   9999     3870  4560  0    
2019/06/04  01:16:00  BASE  3.83964  149  4.86864  152  -0.3  100   -0.3  0     0     993.5    NA       0.0000   9999     3900  4630  0    
2019/06/04  01:17:00  BASE  3.9984   148  4.89804  146  -0.3  100   -0.3  0     0     993.5    NA       0.0000   9999     3900  0     0    
2019/06/04  01:18:00  BASE  4.31592  146  4.89804  146  -0.3  100   -0.3  0     0     993.5    NA       0.0000   9999     3900  0     0    
2019/06/04  01:19:00  BASE  4.15128  142  4.89804  146  -0.3  100   -0.3  0     0     993.4    NA       0.0000   9999     3840  0     0    
2019/06/04  01:20:00  BASE  3.60444  136  4.89804  146  -0.2  100   -0.2  0     0     993.5    NA       0.0000   9999     3970  0     0    
2019/06/04  01:21:00  BASE  2.88708  128  4.89804  146  -0.1  100   -0.1  0     0     993.5    NA       0.0000   9999     3940  0     0    
2019/06/04  01:22:00  BASE  2.4108   123  4.89804  146  -0.0  100   -0.0  0     0     993.5    NA       0.0000   9999     4100  0     0    
2019/06/04  01:23:00  BASE  2.51664  135  4.89804  146  0.1   100   0.1   0     0     993.4    NA       0.0000   9999     4130  0     0    
2019/06/04  01:24:00  BASE  3.39864  144  4.89804  146  0.1   100   0.1   0     0     993.4    NA       0.0000   9999     4000  0     0    
2019/06/04  01:25:00  BASE  3.8514   145  4.89804  146  0.1   100   0.1   0     0     993.4    NA       0.0000   9999     4100  0     0    
2019/06/04  01:26:00  BASE  3.53976  145  4.89804  146  0.1   100   0.1   0     0     993.4    NA       0.0000   9999     4130  0     0    
2019/06/04  01:27:00  BASE  3.06936  146  4.68636  148  0.1   100   0.1   0     0     993.4    NA       0.0000   9999     4130  0     0    
2019/06/04  01:28:00  BASE  2.69304  141  4.41588  139  0.0   100   0.0   0     0     993.4    NA       0.0000   9999     4130  0     0    
2019/06/04  01:29:00  BASE  2.42844  135  4.41588  139  0.0   100   0.0   0     0     993.4    NA       0.0000   9999     4200  0     0    
2019/06/04  01:30:00  BASE  2.15208  149  4.41588  139  0.1   100   0.1   0     0     993.3    NA       0.0000   9999     4360  0     0    
2019/06/04  01:31:00  BASE  1.58172  185  4.41588  139  0.1   100   0.1   0     0     993.3    NA       0.0000   9999     4200  0     0    
2019/06/04  01:32:00  BASE  1.12308  170  4.41588  139  0.2   100   0.2   0     0     993.3    NA       0.0000   9999     4170  0     0    
2019/06/04  01:33:00  BASE  1.16424  142  4.41588  139  0.3   100   0.3   0     0     993.2    NA       0.0000   9999     4070  0     0    
2019/06/04  01:34:00  BASE  2.14032  23   4.1454   138  0.7   100   0.7   0     0     993.1    NA       0.0000   9999     4100  0     0    
2019/06/04  01:35:00  BASE  2.9988   356  4.1454   138  1.2   100   1.2   0     0     993.0    NA       0.0000   9999     3710  0     0    
2019/06/04  01:36:00  BASE  2.4402   338  4.116    8    1.8   100   1.8   0     0     992.9    NA       0.0000   9999     4070  0     0    
2019/06/04  01:37:00  BASE  2.91648  335  4.65696  330  2.4   100   2.4   0     0     992.9    NA       0.0000   9999     3580  4170  0    
2019/06/04  01:38:00  BASE  3.05172  355  4.65696  330  2.9   100   2.9   0     0     993.0    NA       0.0000   9999     4200  0     0    
2019/06/04  01:39:00  BASE  2.19912  65   4.65696  330  3.0   100   3.0   0     0     993.0    NA       0.0000   9999     4170  0     0    
2019/06/04  01:40:00  BASE  2.0874   121  4.65696  330  2.9   100   2.8   0     0     993.1    NA       0.0000   9999     3410  4130  0    
2019/06/04  01:41:00  BASE  1.7346   150  4.65696  330  2.6   100   2.5   0     0     993.1    NA       0.0000   9999     3380  4360  0    
2019/06/04  01:42:00  BASE  1.12896  174  4.65696  330  2.3   99    2.2   0     0     993.0    NA       0.0000   9999     3670  4270  4860 
2019/06/04  01:43:00  BASE  0.9408   180  4.65696  330  1.9   99    1.9   0     0     993.0    NA       0.0000   9999     4720  0     0    
2019/06/04  01:44:00  BASE  0.79968  144  4.65696  330  1.7   99    1.6   0     0     993.1    NA       0.0000   9999     4760  0     0    
2019/06/04  01:45:00  BASE  0.98196  128  4.65696  330  1.6   100   1.5   0     0     993.1    NA       0.0000   9999     4430  4950  0    
2019/06/04  01:46:00  BASE  1.42884  154  4.65696  330  1.5   100   1.5   0     0     993.0    NA       0.0000   9999     4360  4990  0    
2019/06/04  01:47:00  BASE  1.5582   163  2.75184  39   1.6   100   1.6   0     0     993.1    NA       0.0000   9999     3740  4430  5910 
2019/06/04  01:48:00  BASE  2.22852  156  3.81024  142  1.6   100   1.6   0     0     993.1    NA       0.0000   9999     3870  4560  5090 
2019/06/04  01:49:00  BASE  2.7342   144  3.81024  142  1.6   100   1.6   0     0     993.0    NA       0.0000   9999     5840  0     0    
2019/06/04  01:50:00  BASE  2.75184  138  3.81024  142  1.5   100   1.5   0     0     993.0    NA       0.0000   9999     5840  0     0    
2019/06/04  01:51:00  BASE  4.4394   135  6.68556  128  1.4   100   1.4   0     0     992.9    NA       0.0000   9999     5870  0     0    
2019/06/04  01:52:00  BASE  6.2034   130  7.2324   134  1.2   100   1.2   0     0     992.9    NA       0.0000   9999     5870  0     0    
2019/06/04  01:53:00  BASE  5.84472  126  7.2324   134  1.0   100   1.0   0     0     992.9    NA       0.0000   9999     5910  0     0    
2019/06/04  01:54:00  BASE  5.53308  128  7.2324   134  0.8   100   0.8   0     0     992.9    NA       0.0000   9999     5740  0     0    
2019/06/04  01:55:00  BASE  5.69184  136  7.2324   134  0.7   100   0.7   0     0     993.0    NA       0.0000   9999     4560  5740  0    
2019/06/04  01:56:00  BASE  4.96272  139  7.2324   134  0.4   100   0.4   0     0     993.1    NA       0.0000   9999     4170  5740  0    
2019/06/04  01:57:00  BASE  3.77496  131  7.2324   134  0.2   100   0.2   0     0     993.2    NA       0.0000   9999     4100  0     0    
2019/06/04  01:58:00  BASE  4.1454   118  7.2324   134  0.1   100   0.1   0     0     993.1    NA       0.0000   9999     4200  0     0    
2019/06/04  01:59:00  BASE  4.7628   115  7.2324   134  0.1   100   0.1   0     0     993.1    NA       0.0000   9999     4270  0     0    
2019/06/04  02:00:00  BASE  4.71576  127  7.2324   134  0.1   100   0.1   0     0     993.0    NA       0.0000   9999     3940  0     0    
2019/06/04  02:01:00  BASE  4.78044  139  7.2324   134  0.3   100   0.3   0     0     993.0    NA       0.0000   9999     3900  0     0    
2019/06/04  02:02:00  BASE  4.52172  139  6.2034   109  0.4   100   0.4   0     0     993.0    NA       0.0000   9999     3900  0     0    
2019/06/04  02:03:00  BASE  4.55112  134  6.2034   109  0.5   100   0.5   0     0     993.1    NA       0.0000   9999     3710  0     0    
2019/06/04  02:04:00  BASE  4.87452  128  6.2034   109  0.5   100   0.5   0     0     993.1    NA       0.0000   9999     2430  2920  3710 
2019/06/04  02:05:00  BASE  5.75064  128  7.07952  131  0.5   100   0.5   0     0     993.0    NA       0.0000   9999     2590  4170  0    
2019/06/04  02:06:00  BASE  5.96232  142  7.07952  131  0.4   100   0.4   0     0     993.0    NA       0.0000   9999     2430  4270  0    
2019/06/04  02:07:00  BASE  5.22732  174  7.07952  131  0.3   100   0.3   0     0     992.8    NA       0.0000   9999     4690  0     0    
2019/06/04  02:08:00  BASE  4.37472  180  7.07952  131  0.3   100   0.3   0     0     992.9    NA       0.0000   9999     0     0     0    
2019/06/04  02:09:00  BASE  3.25164  140  7.07952  131  0.3   100   0.3   0     0     992.9    NA       0.0000   9999     6530  0     0    
2019/06/04  02:10:00  BASE  2.7048   77   7.07952  131  0.5   100   0.5   0     0     992.9    NA       0.0000   9999     6500  0     0    
2019/06/04  02:11:00  BASE  2.9106   102  7.07952  131  0.6   100   0.6   0     0     992.9    NA       0.0000   9999     0     0     0    
2019/06/04  02:12:00  BASE  3.93372  152  7.07952  131  0.7   100   0.7   0     0     992.9    NA       0.0000   9999     1900  0     0    
2019/06/04  02:13:00  BASE  4.0572   147  7.07952  131  0.7   100   0.7   0     0     992.9    NA       0.0000   9999     2100  0     0    
2019/06/04  02:14:00  BASE  3.18108  133  7.07952  131  0.7   100   0.7   0     0     992.9    NA       0.0000   9999     4950  0     0    
2019/06/04  02:15:00  BASE  2.793    131  6.56208  136  0.5   100   0.5   0     0     992.9    NA       0.0000   9999     0     0     0    
2019/06/04  02:16:00  BASE  2.27556  152  5.68596  179  0.4   100   0.4   0     0     992.9    NA       0.0000   9999     1900  0     0    
2019/06/04  02:17:00  BASE  1.95804  164  5.68596  179  0.3   100   0.3   0     0     992.9    NA       0.0000   9999     2260  0     0    
2019/06/04  02:18:00  BASE  2.96352  146  5.47428  147  0.2   100   0.2   0     0     992.9    NA       0.0000   9999     2530  6400  0    
2019/06/04  02:19:00  BASE  4.2042   130  5.47428  147  0.3   100   0.3   0     0     992.7    NA       0.0000   9999     6400  0     0    
2019/06/04  02:20:00  BASE  4.00428  133  5.47428  147  0.4   100   0.4   0     0     992.7    NA       0.0000   9999     6370  0     0    
2019/06/04  02:21:00  BASE  3.16344  128  5.47428  147  0.5   100   0.5   0     0     992.7    NA       0.0000   9999     6330  0     0    
2019/06/04  02:22:00  BASE  2.86356  127  5.35668  115  0.8   100   0.8   0     0     992.6    NA       0.0000   9999     6270  0     0    
2019/06/04  02:23:00  BASE  3.03996  147  5.35668  115  1.0   100   1.0   0     0     992.7    NA       0.0000   9999     6230  0     0    
2019/06/04  02:24:00  BASE  3.38688  154  5.35668  115  1.0   100   1.0   0     0     992.6    NA       0.0000   9999     6200  0     0    
2019/06/04  02:25:00  BASE  3.5868   154  5.35668  115  1.0   100   1.0   0     0     992.6    NA       0.0000   9999     6140  0     0    
2019/06/04  02:26:00  BASE  3.22812  157  5.35668  115  0.8   100   0.8   0     0     992.7    NA       0.0000   9999     3940  6140  0    
2019/06/04  02:27:00  BASE  3.26928  160  5.35668  115  0.6   100   0.6   0     0     992.6    NA       0.0000   9999     6100  0     0    
2019/06/04  02:28:00  BASE  3.80436  156  5.2626   118  0.4   100   0.4   0     0     992.7    NA       0.0000   9999     6100  0     0    
2019/06/04  02:29:00  BASE  3.78672  145  4.75104  130  0.3   100   0.3   0     0     992.7    NA       0.0000   9999     6100  0     0    
2019/06/04  02:30:00  BASE  2.98704  140  4.35708  151  0.2   100   0.2   0     0     992.7    NA       0.0000   9999     6100  0     0    
2019/06/04  02:31:00  BASE  2.31672  124  4.35708  151  0.2   100   0.2   0     0     992.7    NA       0.0000   9999     0     0     0    
2019/06/04  02:32:00  BASE  2.1462   124  4.35708  151  0.2   100   0.2   0     0     992.7    NA       0.0000   9999     0     0     0    
2019/06/04  02:33:00  BASE  2.41668  136  4.35708  151  0.4   100   0.4   0     0     992.6    NA       0.0000   9999     0     0     0    
2019/06/04  02:34:00  BASE  2.00508  79   4.35708  151  0.6   100   0.6   0     0     992.8    NA       0.0000   9999     0     0     0    
2019/06/04  02:35:00  BASE  1.176    332  4.35708  151  1.0   100   1.0   0     0     992.8    NA       0.0000   9999     0     0     0    
2019/06/04  02:36:00  BASE  1.24068  248  4.35708  151  1.3   100   1.3   0     0     992.8    NA       0.0000   9999     2460  0     0    
2019/06/04  02:37:00  BASE  1.66404  222  4.35708  151  1.5   100   1.5   0     0     992.9    NA       0.0000   9999     2530  3120  0    
2019/06/04  02:38:00  BASE  1.30536  220  4.263    150  1.6   100   1.6   0     0     992.9    NA       0.0000   9999     2990  6400  0    
2019/06/04  02:39:00  BASE  2.10504  189  4.68636  175  1.6   100   1.6   0     0     992.7    NA       0.0000   9999     2170  6370  0    
2019/06/04  02:40:00  BASE  4.10424  166  5.292    156  1.3   100   1.3   0     0     992.8    NA       0.0000   9999     2790  6400  0    
2019/06/04  02:41:00  BASE  5.46252  156  6.92664  153  1.0   100   1.0   0     0     992.6    NA       0.0000   9999     2820  6400  0    
2019/06/04  02:42:00  BASE  5.37432  157  6.92664  153  0.9   100   0.9   0     0     992.6    NA       0.0000   9999     2200  6430  0    
2019/06/04  02:43:00  BASE  4.01604  148  6.92664  153  0.7   100   0.7   0     0     992.7    NA       0.0000   9999     1970  0     0    
2019/06/04  02:44:00  BASE  3.51036  117  6.92664  153  0.6   100   0.6   0     0     992.8    NA       0.0000   9999     2100  0     0    
2019/06/04  02:45:00  BASE  3.5868   96   6.92664  153  0.6   100   0.6   0     0     992.9    NA       0.0000   9999     2070  3250  0    
2019/06/04  02:46:00  BASE  3.09876  93   6.92664  153  0.6   100   0.6   0     0     992.8    NA       0.0000   9999     1900  7550  0    
2019/06/04  02:47:00  BASE  2.28732  123  6.92664  153  0.6   100   0.6   0     0     992.7    NA       0.0000   9999     1900  0     0    
2019/06/04  02:48:00  BASE  1.64052  177  6.92664  153  0.7   100   0.7   0     0     992.7    NA       0.0000   9999     1970  6660  0    
2019/06/04  02:49:00  BASE  0.69384  219  6.92664  153  0.9   100   0.9   0     0     992.8    NA       0.0000   9999     2030  0     0    
2019/06/04  02:50:00  BASE  0.59388  3    6.92664  153  1.2   100   1.2   0     0     992.8    NA       0.0000   9999     2790  6560  0    
2019/06/04  02:51:00  BASE  0.89964  31   5.59776  170  1.4   100   1.4   0     0     992.8    NA       0.0000   9999     6860  0     0    
2019/06/04  02:52:00  BASE  0.77616  40   4.78044  158  1.7   100   1.7   0     0     992.8    NA       0.0000   9999     1770  0     0    
2019/06/04  02:53:00  BASE  1.45824  32   4.32768  138  1.9   100   1.9   0     0     992.9    NA       0.0000   9999     7970  0     0    
2019/06/04  02:54:00  BASE  1.54644  48   4.263    159  2.0   100   2.0   0     0     992.9    NA       0.0000   9999     7610  0     0    
2019/06/04  02:55:00  BASE  0.735    90   4.263    159  1.9   100   1.9   0     0     992.9    NA       0.0000   9999     2330  0     0    
2019/06/04  02:56:00  BASE  0.54684  167  4.263    159  1.7   100   1.7   0     0     992.9    NA       0.0000   9999     2460  0     0    
2019/06/04  02:57:00  BASE  0.84084  181  4.263    159  1.5   100   1.5   0     0     992.9    NA       0.0000   9999     2690  7640  0    
2019/06/04  02:58:00  BASE  1.84044  199  3.02232  205  1.4   100   1.4   0     0     992.8    NA       0.0000   9999     1740  3050  8010 
2019/06/04  02:59:00  BASE  2.55192  193  3.0576   174  1.2   100   1.2   0     0     992.8    NA       0.0000   9999     2000  7740  0    
2019/06/04  03:00:00  BASE  2.78124  182  3.56916  188  1.1   100   1.1   0     0     992.9    NA       0.0000   9999     3670  7740  0    
2019/06/04  03:01:00  BASE  2.6754   191  3.56916  188  1.0   100   1.0   0     0     992.8    NA       0.0000   9999     6100  6630  8010 
2019/06/04  03:02:00  BASE  2.22852  195  3.56916  188  1.1   100   1.1   0     0     992.6    NA       0.0000   9999     3410  6100  8040 
2019/06/04  03:03:00  BASE  2.0286   215  3.56916  188  1.1   100   1.1   0     0     992.7    NA       0.0000   9999     2430  6140  8010 
2019/06/04  03:04:00  BASE  1.7934   244  3.56916  188  1.1   100   1.1   0     0     992.7    NA       0.0000   9999     2100  0     0    
2019/06/04  03:05:00  BASE  2.54016  250  4.08072  243  1.3   100   1.3   0     0     992.6    NA       0.0000   9999     2170  0     0    
2019/06/04  03:06:00  BASE  3.0576   258  4.08072  243  1.6   100   1.6   0     0     992.7    NA       0.0000   9999     1640  0     0    
2019/06/04  03:07:00  BASE  3.52212  349  5.92704  37   1.8   100   1.8   0     0     992.5    NA       0.0000   9999     2230  0     0    
2019/06/04  03:08:00  BASE  4.09836  33   6.07992  335  2.2   100   2.2   0     0     992.5    NA       0.0000   9999     1710  0     0    
2019/06/04  03:09:00  BASE  3.21636  320  6.07992  335  2.6   100   2.6   0     0     992.5    NA       0.0000   9999     1840  0     0    
2019/06/04  03:10:00  BASE  3.1458   276  6.07992  335  2.8   100   2.8   0     0     992.4    NA       0.0000   9999     1610  0     0    
2019/06/04  03:11:00  BASE  3.9102   282  6.07992  335  3.0   100   3.0   0     0     992.4    NA       0.0000   9999     1510  0     0    
2019/06/04  03:12:00  BASE  3.52212  313  6.07992  335  3.2   100   3.2   0     0     992.5    NA       0.0000   9999     1710  0     0    
2019/06/04  03:13:00  BASE  2.34612  322  6.07992  335  3.2   100   3.2   0     0     992.5    NA       0.0000   9999     1610  0     0    
2019/06/04  03:14:00  BASE  3.0282   182  6.07992  335  3.1   99    3.1   0     0     992.5    NA       0.0000   9999     1670  0     0    
2019/06/04  03:15:00  BASE  4.5864   147  6.07992  335  2.8   99    2.6   0     0     992.5    NA       0.0000   9999     1670  0     0    
2019/06/04  03:16:00  BASE  5.37432  143  6.47388  156  2.4   98    2.1   0     0     992.4    NA       0.0000   9999     1510  0     0    
2019/06/04  03:17:00  BASE  5.86236  151  6.62676  155  1.8   98    1.5   0     0     992.5    NA       0.0000   9999     1640  0     0    
2019/06/04  03:18:00  BASE  5.18616  157  6.62676  155  1.2   97    0.9   0     0     992.6    NA       0.0000   9999     1670  0     0    
2019/06/04  03:19:00  BASE  4.3512   156  6.62676  155  0.8   98    0.5   0     0     992.6    NA       0.0000   9999     1740  0     0    
2019/06/04  03:20:00  BASE  4.48056  148  6.62676  155  0.6   99    0.4   0     0     992.6    NA       0.0000   9999     1870  0     0    
2019/06/04  03:21:00  BASE  4.88628  143  6.62676  155  0.5   99    0.4   0     0     992.7    NA       0.0000   9999     1870  0     0    
2019/06/04  03:22:00  BASE  4.57464  148  6.62676  155  0.4   100   0.4   0     0     992.7    NA       0.0000   9999     1840  0     0    
2019/06/04  03:23:00  BASE  3.68676  156  6.62676  155  0.4   100   0.4   0     0     992.7    NA       0.0000   9999     1710  0     0    
2019/06/04  03:24:00  BASE  3.59268  155  6.62676  155  0.3   100   0.3   0     0     992.7    NA       0.0000   9999     1870  0     0    
2019/06/04  03:25:00  BASE  4.0278   147  6.62676  155  0.3   100   0.3   0     0     992.7    NA       0.0000   9999     1970  0     0    
2019/06/04  03:26:00  BASE  3.84552  143  6.62676  155  0.2   100   0.2   0     0     992.7    NA       0.0000   9999     1970  0     0    
2019/06/04  03:27:00  BASE  3.11052  139  6.41508  141  0.2   100   0.2   0     0     992.6    NA       0.0000   9999     1770  0     0    
2019/06/04  03:28:00  BASE  2.36376  141  6.41508  141  0.3   100   0.3   0     0     992.6    NA       0.0000   9999     1740  0     0    
2019/06/04  03:29:00  BASE  2.66952  152  6.41508  141  0.3   100   0.3   0     0     992.6    NA       0.0000   9999     1900  0     0    
2019/06/04  03:30:00  BASE  3.9984   155  6.10932  145  0.3   100   0.3   0     0     992.5    NA       0.0000   9999     2100  0     0    
2019/06/04  03:31:00  BASE  5.09796  150  5.74476  158  0.3   100   0.3   0     0     992.4    NA       0.0000   9999     2100  0     0    
2019/06/04  03:32:00  BASE  5.25084  152  5.74476  158  0.3   100   0.3   0     0     992.4    NA       0.0000   9999     1900  0     0    
2019/06/04  03:33:00  BASE  4.87452  153  5.74476  158  0.3   100   0.3   0     0     992.4    NA       0.0000   9999     1940  0     0    
2019/06/04  03:34:00  BASE  4.52172  147  5.74476  158  0.3   100   0.3   0     0     992.4    NA       0.0000   9999     2030  0     0    
2019/06/04  03:35:00  BASE  4.53936  144  5.74476  158  0.3   100   0.3   0     0     992.4    NA       0.0000   9999     2000  0     0    
2019/06/04  03:36:00  BASE  4.7628   144  5.74476  158  0.3   100   0.3   0     0     992.3    NA       0.0000   9999     2030  0     0    
2019/06/04  03:37:00  BASE  5.06268  144  5.95644  141  0.3   100   0.3   0     0     992.3    NA       0.0000   9999     1800  0     0    
2019/06/04  03:38:00  BASE  5.55072  144  6.62676  146  0.3   100   0.3   0     0     992.3    NA       0.0000   9999     1940  0     0    
2019/06/04  03:39:00  BASE  5.50368  142  6.62676  146  0.4   100   0.4   0     0     992.3    NA       0.0000   9999     1900  0     0    
2019/06/04  03:40:00  BASE  5.04504  140  6.62676  146  0.3   100   0.3   0     0     992.3    NA       0.0000   9999     1940  0     0    
2019/06/04  03:41:00  BASE  4.74516  138  6.62676  146  0.3   100   0.3   0     0     992.3    NA       0.0000   9999     1940  0     0    
2019/06/04  03:42:00  BASE  4.52172  137  6.62676  146  0.2   100   0.2   0     0     992.3    NA       0.0000   9999     1770  0     0    
2019/06/04  03:43:00  BASE  4.28064  132  6.62676  146  0.2   100   0.2   0     0     992.3    NA       0.0000   9999     1940  0     0    
2019/06/04  03:44:00  BASE  3.92784  126  6.62676  146  0.1   100   0.1   0     0     992.3    NA       0.0000   9999     1970  0     0    
2019/06/04  03:45:00  BASE  3.59856  131  6.62676  146  0.1   100   0.1   0     0     992.3    NA       0.0000   9999     1870  0     0    
2019/06/04  03:46:00  BASE  3.28692  137  6.62676  146  0.2   100   0.2   0     0     992.3    NA       0.0000   9999     1900  0     0    
2019/06/04  03:47:00  BASE  2.7048   138  6.62676  146  0.2   100   0.2   0     0     992.4    NA       0.0000   9999     1970  0     0    
2019/06/04  03:48:00  BASE  2.12856  134  5.83884  144  0.2   100   0.2   0     0     992.4    NA       0.0000   9999     1970  0     0    
2019/06/04  03:49:00  BASE  2.2638   140  5.56836  143  0.3   100   0.3   0     0     992.4    NA       0.0000   9999     1970  0     0    
2019/06/04  03:50:00  BASE  2.71656  153  5.56836  143  0.3   100   0.3   0     0     992.4    NA       0.0000   9999     1970  5480  0    
2019/06/04  03:51:00  BASE  2.68128  153  5.56836  143  0.3   100   0.3   0     0     992.3    NA       0.0000   9999     1970  5540  0    
2019/06/04  03:52:00  BASE  1.82868  152  4.59816  132  0.4   100   0.4   0     0     992.3    NA       0.0000   9999     2030  5510  0    
2019/06/04  03:53:00  BASE  0.94668  151  4.05132  129  0.5   100   0.5   0     0     992.3    NA       0.0000   9999     5350  0     0    
2019/06/04  03:54:00  BASE  0.93492  118  3.86904  134  0.6   100   0.6   0     0     992.3    NA       0.0000   9999     5180  0     0    
2019/06/04  03:55:00  BASE  1.3524   95   3.69264  143  0.8   100   0.8   0     0     992.2    NA       0.0000   9999     5150  0     0    
2019/06/04  03:56:00  BASE  1.7346   118  3.41628  145  0.9   100   0.9   0     0     992.2    NA       0.0000   9999     5050  0     0    
2019/06/04  03:57:00  BASE  2.72832  145  4.29828  154  1.0   100   1.0   0     0     992.1    NA       0.0000   9999     5050  0     0    
2019/06/04  03:58:00  BASE  4.01016  156  4.65696  155  1.1   100   1.1   0     0     992.1    NA       0.0000   9999     5050  0     0    
2019/06/04  03:59:00  BASE  4.3806   155  4.65696  155  1.2   100   1.2   0     0     992.1    NA       0.0000   9999     5180  0     0    
2019/06/04  04:00:00  BASE  4.45116  154  4.78044  157  1.2   100   1.2   0     0     992.2    NA       0.0000   9999     5220  0     0    
2019/06/04  04:01:00  BASE  4.90392  153  5.68596  154  1.1   100   1.1   0     0     992.1    NA       0.0000   9999     4820  5410  0    
2019/06/04  04:02:00  BASE  5.07444  150  5.68596  154  1.0   100   1.0   0     0     992.1    NA       0.0000   9999     4760  0     0    
2019/06/04  04:03:00  BASE  4.76868  145  5.68596  154  1.0   100   1.0   0     0     992.2    NA       0.0000   9999     4690  0     0    
2019/06/04  04:04:00  BASE  4.07484  137  5.68596  154  0.9   100   0.9   0     0     992.2    NA       0.0000   9999     4690  0     0    
2019/06/04  04:05:00  BASE  3.7632   127  5.68596  154  0.9   100   0.9   0     0     992.2    NA       0.0000   9999     4590  0     0    
2019/06/04  04:06:00  BASE  4.01016  124  5.68596  154  0.9   100   0.9   0     0     992.1    NA       0.0000   9999     4590  5580  0    
2019/06/04  04:07:00  BASE  3.89256  124  5.68596  154  0.9   100   0.9   0     0     992.2    NA       0.0000   9999     4590  5280  0    
2019/06/04  04:08:00  BASE  3.72792  123  5.68596  154  1.0   100   1.0   0     0     992.2    NA       0.0000   9999     4990  0     0    
2019/06/04  04:09:00  BASE  3.22224  121  5.68596  154  1.1   100   1.1   0     0     992.2    NA       0.0000   9999     4560  5090  0    
2019/06/04  04:10:00  BASE  2.45784  120  5.68596  154  1.2   100   1.2   0     0     992.2    NA       0.0000   9999     4530  0     0    
2019/06/04  04:11:00  BASE  2.35788  126  5.41548  143  1.3   100   1.3   0     0     992.2    NA       0.0000   9999     4560  0     0    
2019/06/04  04:12:00  BASE  3.41628  133  5.41548  143  1.4   100   1.4   0     0     992.2    NA       0.0000   9999     4590  0     0    
2019/06/04  04:13:00  BASE  4.6452   141  5.35668  146  1.4   100   1.4   0     0     992.1    NA       0.0000   9999     4690  0     0    
2019/06/04  04:14:00  BASE  5.31552  153  6.02112  165  1.4   100   1.4   0     0     992.0    NA       0.0000   9999     3450  4690  0    
2019/06/04  04:15:00  BASE  5.92116  153  6.83844  140  1.4   100   1.3   0     0     992.1    NA       0.0000   9999     3450  4790  0    
2019/06/04  04:16:00  BASE  6.42684  144  7.2912   150  1.3   99    1.3   0     0     992.1    NA       0.0000   9999     3480  4790  0    
2019/06/04  04:17:00  BASE  6.79728  143  7.2912   150  1.3   99    1.2   0     0     992.0    NA       0.0000   9999     3450  4790  0    
2019/06/04  04:18:00  BASE  6.91488  147  7.3206   150  1.1   99    1.0   0     0     992.0    NA       0.0000   9999     3410  4200  0    
2019/06/04  04:19:00  BASE  6.47388  154  7.3206   150  1.0   99    0.8   0     0     992.1    NA       0.0000   9999     3410  0     0    
2019/06/04  04:20:00  BASE  5.5566   155  7.3206   150  0.8   99    0.7   0     0     992.2    NA       0.0000   9999     3350  0     0    
2019/06/04  04:21:00  BASE  4.66284  153  7.3206   150  0.7   99    0.6   0     0     992.1    NA       0.0000   9999     3310  0     0    
2019/06/04  04:22:00  BASE  4.31592  153  7.3206   150  0.5   100   0.5   0     0     992.0    NA       0.0000   9999     3180  0     0    
2019/06/04  04:23:00  BASE  4.15128  163  7.3206   150  0.4   100   0.4   0     0     992.0    NA       0.0000   9999     3220  0     0    
2019/06/04  04:24:01  BASE  3.94548  170  7.3206   150  0.4   100   0.4   0     0     991.9    NA       0.0000   9999     3080  0     0    
2019/06/04  04:25:00  BASE  3.94548  165  7.3206   150  0.3   100   0.3   0     0     991.9    NA       0.0000   9999     3150  0     0    
2019/06/04  04:26:00  BASE  3.42804  163  7.3206   150  0.3   100   0.3   0     0     991.9    NA       0.0000   9999     3120  0     0    
2019/06/04  04:27:00  BASE  2.0286   155  7.3206   150  0.2   100   0.2   0     0     992.0    NA       0.0000   9999     3150  0     0    
2019/06/04  04:28:00  BASE  1.50528  133  6.86784  161  0.2   100   0.2   0     0     992.1    NA       0.0000   9999     3250  0     0    
2019/06/04  04:29:00  BASE  1.86984  134  5.47428  159  0.1   100   0.1   0     0     992.0    NA       0.0000   9999     3080  0     0    
2019/06/04  04:30:01  BASE  1.66404  157  5.1744   155  0.1   100   0.1   0     0     991.9    NA       0.0000   9999     3150  0     0    
2019/06/04  04:31:01  BASE  1.72284  175  5.145    152  0.1   100   0.1   0     0     991.8    NA       0.0000   9999     3150  0     0    
2019/06/04  04:32:00  BASE  2.12856  163  4.59816  168  0.1   100   0.1   0     0     991.8    NA       0.0000   9999     3280  0     0    
2019/06/04  04:33:00  BASE  2.78124  125  4.59816  168  0.1   100   0.1   0     0     991.8    NA       0.0000   9999     3220  0     0    
2019/06/04  04:34:00  BASE  3.72792  116  4.80984  138  0.1   100   0.1   0     0     991.8    NA       0.0000   9999     3220  0     0    
2019/06/04  04:35:00  BASE  4.92156  130  6.2622   133  0.1   100   0.1   0     0     991.7    NA       0.0000   9999     3050  0     0    
2019/06/04  04:36:00  BASE  4.95096  133  6.2622   133  0.3   100   0.3   0     0     991.7    NA       0.0000   9999     3180  0     0    
2019/06/04  04:37:00  BASE  3.21048  122  6.2622   133  0.5   100   0.5   0     0     991.8    NA       0.0000   9999     3220  0     0    
2019/06/04  04:38:00  BASE  1.95804  64   6.2622   133  0.6   100   0.6   0     0     991.9    NA       0.0000   9999     3150  0     0    
2019/06/04  04:39:00  BASE  1.323    20   6.2622   133  0.7   100   0.7   0     0     991.9    NA       0.0000   9999     3250  4790  0    
2019/06/04  04:40:00  BASE  0.9408   46   6.2622   133  0.7   100   0.7   0     0     991.8    NA       0.0000   9999     3250  4720  0    
2019/06/04  04:41:00  BASE  1.30536  75   6.2622   133  0.8   100   0.8   0     0     991.8    NA       0.0000   9999     3250  0     0    
2019/06/04  04:42:00  BASE  2.03448  102  6.2622   133  0.8   100   0.8   0     0     991.7    NA       0.0000   9999     3220  0     0    
2019/06/04  04:43:00  BASE  2.69892  130  6.2622   133  0.9   100   0.9   0     0     991.7    NA       0.0000   9999     3350  0     0    
2019/06/04  04:44:00  BASE  3.73968  119  6.2622   133  1.1   100   1.1   0     0     991.7    NA       0.0000   9999     3380  0     0    
2019/06/04  04:45:00  BASE  4.29828  122  6.02112  142  1.2   100   1.2   0     0     991.7    NA       0.0000   9999     3410  0     0    
2019/06/04  04:46:00  BASE  4.6158   141  5.92704  141  1.3   100   1.3   0     0     991.6    NA       0.0000   9999     3280  0     0    
2019/06/04  04:47:00  BASE  5.53896  154  6.56208  160  1.3   100   1.3   0     0     991.5    NA       0.0000   9999     3150  0     0    
2019/06/04  04:48:00  BASE  4.60404  150  6.56208  160  1.3   100   1.3   0     0     991.6    NA       0.0000   9999     3180  0     0    
2019/06/04  04:49:00  BASE  4.01604  133  6.56208  160  1.3   99    1.3   0     0     991.7    NA       0.0000   9999     3380  0     0    
2019/06/04  04:50:00  BASE  3.75144  129  6.56208  160  1.4   99    1.2   0     0     991.7    NA       0.0000   9999     3120  0     0    
2019/06/04  04:51:00  BASE  2.40492  107  6.56208  160  1.3   98    1.1   0     0     991.8    NA       0.0000   9999     3080  0     0    
2019/06/04  04:52:00  BASE  2.15796  77   6.56208  160  1.3   98    1.0   0     0     991.8    NA       0.0000   9999     3350  0     0    
2019/06/04  04:53:00  BASE  1.50528  31   6.56208  160  1.2   97    0.9   0     0     991.8    NA       0.0000   9999     3380  0     0    
2019/06/04  04:54:00  BASE  0.69972  287  6.56208  160  1.1   97    0.7   0     0     991.7    NA       0.0000   9999     3250  0     0    
2019/06/04  04:55:00  BASE  1.19952  256  6.56208  160  1.0   98    0.7   0     0     991.6    NA       0.0000   9999     3280  0     0    
2019/06/04  04:56:00  BASE  1.51704  250  6.56208  160  1.0   98    0.7   0     0     991.7    NA       0.0000   9999     3180  0     0    
2019/06/04  04:57:00  BASE  1.24068  262  5.99172  137  0.9   98    0.7   0     0     991.7    NA       0.0000   9999     3380  0     0    
2019/06/04  04:58:00  BASE  1.28184  275  5.99172  137  1.0   99    0.8   0     0     991.7    NA       0.0000   9999     3410  0     0    
2019/06/04  04:59:00  BASE  1.74636  271  4.47468  138  1.0   99    0.9   0     0     991.6    NA       0.0000   9999     3150  0     0    
2019/06/04  05:00:00  BASE  2.499    245  3.29868  215  1.0   99    0.9   0     0     991.6    NA       0.0000   9999     3350  0     0    
2019/06/04  05:01:00  BASE  3.27516  217  4.78044  217  1.1   99    0.9   0     0     991.5    NA       0.0000   9999     3350  0     0    
2019/06/04  05:02:00  BASE  4.80396  212  7.10892  205  1.2   99    1.0   0     0     991.2    NA       0.0000   9999     3150  0     0    
2019/06/04  05:03:00  BASE  6.027    203  7.10892  205  1.2   98    1.0   0     0     991.3    NA       0.0000   9999     3150  0     0    
2019/06/04  05:04:00  BASE  6.07992  184  7.10892  205  1.3   98    1.0   0     0     991.2    NA       0.0000   9999     3180  0     0    
2019/06/04  05:05:00  BASE  5.92704  175  7.10892  205  1.2   97    0.9   0     0     991.2    NA       0.0000   9999     3050  0     0    
2019/06/04  05:06:00  BASE  5.35668  169  7.10892  205  1.2   97    0.7   0     0     991.3    NA       0.0000   9999     3280  0     0    
2019/06/04  05:07:00  BASE  4.18068  144  7.10892  205  1.0   97    0.6   0     0     991.4    NA       0.0000   9999     3120  0     0    
2019/06/04  05:08:00  BASE  4.116    103  7.10892  205  0.9   97    0.5   0     0     991.5    NA       0.0000   9999     3080  0     0    
2019/06/04  05:09:00  BASE  4.16892  71   7.10892  205  0.9   98    0.5   0     0     991.5    NA       0.0000   9999     3120  0     0    
2019/06/04  05:10:00  BASE  3.59856  39   7.10892  205  0.9   98    0.6   0     0     991.4    NA       0.0000   9999     3280  0     0    
2019/06/04  05:11:00  BASE  2.82828  7    7.10892  205  0.9   99    0.7   0     0     991.5    NA       0.0000   9999     3220  0     0    
2019/06/04  05:12:00  BASE  1.42296  360  6.68556  182  0.9   99    0.8   0     0     991.5    NA       0.0000   9999     3410  0     0    
2019/06/04  05:13:00  BASE  0.68796  11   6.65616  88   1.0   99    0.9   0     0     991.4    NA       0.0000   9999     3120  0     0    
2019/06/04  05:14:00  BASE  0.27636  21   6.65616  88   1.1   99    0.9   0     0     991.4    NA       0.0000   9999     3050  0     0    
2019/06/04  05:15:00  BASE  0        17   6.65616  88   1.2   99    1.0   0     0     991.3    NA       0.0000   9999     3020  0     0    
2019/06/04  05:16:00  BASE  0.28812  317  6.65616  88   1.2   98    1.0   0     0     991.3    NA       0.0000   9999     3080  0     0    
2019/06/04  05:17:00  BASE  0.3234   252  6.65616  88   1.3   98    1.0   0     0     991.4    NA       0.0000   9999     3350  0     0    
2019/06/04  05:18:00  BASE  0.71736  287  4.41588  58   1.3   97    0.9   0     0     991.4    NA       0.0000   9999     3220  0     0    
2019/06/04  05:19:00  BASE  1.72284  337  4.02192  334  1.2   97    0.8   0     0     991.4    NA       0.0000   9999     3020  0     0    
2019/06/04  05:20:00  BASE  2.24028  16   2.75184  39   1.2   97    0.7   0     0     991.5    NA       0.0000   9999     3250  0     0    
2019/06/04  05:21:00  BASE  2.08152  43   2.75184  39   1.1   97    0.7   0     0     991.5    NA       0.0000   9999     3350  0     0    
2019/06/04  05:22:00  BASE  1.45236  100  2.75184  39   1.2   97    0.8   0     0     991.4    NA       0.0000   9999     3540  0     0    
2019/06/04  05:23:00  BASE  1.54056  179  2.75184  39   1.3   98    0.9   0     0     991.2    NA       0.0000   9999     3450  0     0    
2019/06/04  05:24:00  BASE  2.16384  200  2.93412  152  1.4   97    1.0   0     0     991.3    NA       0.0000   9999     3150  0     0    
2019/06/04  05:25:00  BASE  2.04036  184  3.2046   155  1.4   97    1.0   0     0     991.4    NA       0.0000   9999     3280  0     0    
2019/06/04  05:26:00  BASE  0.93492  198  3.2046   155  1.5   97    1.0   0     0     991.5    NA       0.0000   9999     3380  0     0    
2019/06/04  05:27:00  BASE  0.52332  230  3.2046   155  1.7   97    1.2   0     0     991.4    NA       0.0000   9999     3480  0     0    
2019/06/04  05:28:00  BASE  1.45236  221  3.2046   155  1.8   96    1.2   0     0     991.4    NA       0.0000   9999     3350  0     0    
2019/06/04  05:29:00  BASE  2.69892  212  3.93372  196  2.0   95    1.2   0     0     991.3    NA       0.0000   9999     3050  3640  0    
2019/06/04  05:30:00  BASE  3.21048  186  3.93372  196  2.1   94    1.2   0     0     991.3    NA       0.0000   9999     3220  0     0    
2019/06/04  05:31:00  BASE  3.02232  131  3.93372  196  2.1   93    1.0   0     0     991.4    NA       0.0000   9999     3380  0     0    
2019/06/04  05:32:00  BASE  2.37552  101  3.93372  196  2.0   91    0.8   0     0     991.3    NA       0.0000   9999     3480  0     0    
2019/06/04  05:33:00  BASE  1.37592  118  3.93372  196  2.0   91    0.6   0     0     991.3    NA       0.0000   9999     3540  0     0    
2019/06/04  05:34:00  BASE  0.7056   147  3.93372  196  1.9   91    0.5   0     0     991.3    NA       0.0000   9999     3740  0     0    
2019/06/04  05:35:00  BASE  0.92904  163  3.93372  196  1.9   91    0.5   0     0     991.3    NA       0.0000   9999     3810  0     0    
2019/06/04  05:36:00  BASE  2.10504  178  3.93372  196  1.9   90    0.5   0     0     991.2    NA       0.0000   9999     3640  0     0    
2019/06/04  05:37:00  BASE  3.05172  174  3.93372  196  1.7   90    0.3   0     0     991.1    NA       0.0000   9999     3670  0     0    
2019/06/04  05:38:00  BASE  3.81612  143  5.2626   123  1.6   91    0.3   0     0     991.3    NA       0.0000   9999     3380  0     0    
2019/06/04  05:39:00  BASE  4.94508  115  6.47388  124  1.5   91    0.2   0     0     991.4    NA       0.0000   9999     3640  4690  0    
2019/06/04  05:40:00  BASE  5.50956  118  6.47388  124  1.5   92    0.3   0     0     991.3    NA       0.0000   9999     3840  0     0    
2019/06/04  05:41:00  BASE  5.39784  133  6.47388  124  1.5   93    0.5   0     0     991.2    NA       0.0000   9999     0     0     0    
2019/06/04  05:42:00  BASE  5.22144  148  6.47388  124  1.6   93    0.6   0     0     991.2    NA       0.0000   9999     3770  0     0    
2019/06/04  05:43:00  BASE  4.77456  148  6.47388  124  1.5   93    0.6   0     0     991.2    NA       0.0000   9999     3770  0     0    
2019/06/04  05:44:00  BASE  4.23948  130  6.47388  124  1.5   93    0.5   0     0     991.3    NA       0.0000   9999     3670  0     0    
2019/06/04  05:45:00  BASE  3.8514   117  6.47388  124  1.3   93    0.3   0     0     991.3    NA       0.0000   9999     3610  0     0    
2019/06/04  05:46:00  BASE  4.25712  120  6.47388  124  1.1   93    0.1   0     0     991.3    NA       0.0000   9999     0     0     0    
2019/06/04  05:47:00  BASE  5.12148  123  6.47388  124  0.9   94    0.0   0     0     991.2    NA       0.0000   9999     0     0     0    
2019/06/04  05:48:00  BASE  5.1156   121  6.47388  124  0.8   95    0.1   0     0     991.2    NA       0.0000   9999     0     0     0    
2019/06/04  05:49:00  BASE  4.4394   120  6.2034   131  0.7   95    0.1   0     0     991.2    NA       0.0000   9999     0     0     0    
2019/06/04  05:50:00  BASE  3.98664  125  6.2034   131  0.7   96    0.1   0     0     991.1    NA       0.0000   9999     0     0     0    
2019/06/04  05:51:00  BASE  5.25672  128  7.68516  134  0.7   97    0.2   0     0     991.0    NA       0.0000   9999     0     0     0    
2019/06/04  05:52:00  BASE  6.39156  126  7.68516  134  0.6   97    0.2   0     0     991.0    NA       0.0000   9999     0     0     0    
2019/06/04  05:53:00  BASE  6.12696  125  7.68516  134  0.6   97    0.2   0     0     990.9    NA       0.0000   9999     0     0     0    
2019/06/04  05:54:00  BASE  6.16812  124  7.68516  134  0.6   98    0.2   0     0     990.9    NA       0.0000   9999     0     0     0    
2019/06/04  05:55:00  BASE  6.65616  123  7.68516  134  0.5   98    0.2   0     0     990.9    NA       0.0000   9999     0     0     0    
2019/06/04  05:56:01  BASE  6.66792  125  7.68516  134  0.5   98    0.3   0     0     990.9    NA       0.0000   9999     0     0     0    
2019/06/04  05:57:01  BASE  6.51504  129  7.68516  134  0.5   99    0.3   0     0     990.8    NA       0.0000   9999     0     0     0    
2019/06/04  05:58:01  BASE  6.8208   135  7.68516  138  0.6   99    0.4   0     0     990.8    NA       0.0000   9999     0     0     0    
2019/06/04  05:59:01  BASE  5.97996  141  7.68516  138  0.6   99    0.5   0     0     990.8    NA       0.0000   9999     0     0     0    
2019/06/04  06:00:01  BASE  4.9686   140  7.68516  138  0.6   99    0.5   0     0     990.8    NA       0.0000   9999     0     0     0    
2019/06/04  06:01:01  BASE  5.39196  144  7.68516  138  0.6   99    0.4   0     0     990.8    NA       0.0000   9999     0     0     0    
2019/06/04  06:02:01  BASE  6.09168  148  7.68516  138  0.6   98    0.3   0     0     990.8    NA       0.0000   9999     0     0     0    
2019/06/04  06:03:01  BASE  6.45036  145  7.68516  150  0.5   98    0.3   0     0     990.8    NA       0.0000   9999     0     0     0    
2019/06/04  06:04:01  BASE  6.3798   145  7.68516  150  0.4   98    0.2   0     0     990.8    NA       0.0000   9999     8270  0     0    
2019/06/04  06:05:01  BASE  5.83884  145  7.68516  150  0.3   99    0.2   0     0     990.8    NA       0.0000   9999     7680  8270  0    
2019/06/04  06:06:01  BASE  5.45076  149  7.68516  150  0.3   99    0.1   0     0     990.7    NA       0.0000   9999     7680  0     0    
2019/06/04  06:07:01  BASE  5.36256  153  7.68516  150  0.2   99    0.1   0     0     990.7    NA       0.0000   9999     7640  0     0    
2019/06/04  06:08:01  BASE  4.851    153  7.68516  150  0.2   100   0.1   0     0     990.7    NA       0.0000   9999     7640  0     0    
2019/06/04  06:09:01  BASE  4.62168  150  7.68516  150  0.2   100   0.1   0     0     990.7    NA       0.0000   9999     7640  0     0    
2019/06/04  06:10:01  BASE  5.75064  139  7.68516  150  0.2   100   0.2   0     0     990.6    NA       0.0000   9999     7640  0     0    
2019/06/04  06:11:01  BASE  5.75652  133  7.68516  150  0.2   100   0.2   0     0     990.7    NA       0.0000   9999     7680  0     0    
2019/06/04  06:12:01  BASE  5.04504  142  7.68516  150  0.4   100   0.4   0     0     990.7    NA       0.0000   9999     7680  0     0    
2019/06/04  06:13:01  BASE  5.38608  151  7.07952  132  0.4   100   0.4   0     0     990.5    NA       0.0000   9999     7610  0     0    
2019/06/04  06:14:01  BASE  6.15636  154  7.19712  163  0.5   100   0.5   0     0     990.5    NA       0.0000   9999     7640  0     0    
2019/06/04  06:15:01  BASE  6.60324  160  7.3206   163  0.4   100   0.4   0     0     990.4    NA       0.0000   9999     7610  0     0    
2019/06/04  06:16:01  BASE  6.04464  162  7.3206   163  0.3   100   0.3   0     0     990.5    NA       0.0000   9999     7640  0     0    
2019/06/04  06:17:01  BASE  6.174    157  7.4088   146  0.2   100   0.2   0     0     990.4    NA       0.0000   9999     7580  0     0    
2019/06/04  06:18:01  BASE  6.75024  150  7.4088   146  0.2   100   0.2   0     0     990.4    NA       0.0000   9999     7680  0     0    
2019/06/04  06:19:01  BASE  6.66204  149  8.16732  163  0.2   100   0.2   0     0     990.4    NA       0.0000   9999     7550  0     0    
2019/06/04  06:20:01  BASE  6.468    159  8.16732  163  0.2   100   0.2   0     0     990.3    NA       0.0000   9999     7090  0     0    
2019/06/04  06:21:01  BASE  5.56248  147  8.16732  163  0.2   100   0.2   0     0     990.6    NA       0.0000   9999     7050  7550  0    
2019/06/04  06:22:01  BASE  5.65068  140  8.16732  163  0.2   100   0.2   0     0     990.4    NA       0.0000   9999     7020  7510  0    
2019/06/04  06:23:01  BASE  6.45624  160  8.16732  163  0.2   100   0.2   0     0     990.4    NA       0.0000   9999     7020  7550  0    
2019/06/04  06:24:01  BASE  5.49192  171  8.16732  163  0.2   100   0.2   0     0     990.5    NA       0.0000   9999     6990  7510  0    
2019/06/04  06:25:01  BASE  4.28064  140  8.16732  163  0.3   100   0.3   0     0     990.7    NA       0.0000   9999     6960  7550  0    
2019/06/04  06:26:01  BASE  4.18068  120  8.16732  163  0.3   100   0.3   0     0     990.5    NA       0.0000   9999     6960  7510  0    
2019/06/04  06:27:01  BASE  4.3512   138  8.16732  163  0.3   100   0.3   0     0     990.4    NA       0.0000   9999     6990  7610  0    
2019/06/04  06:28:01  BASE  4.25712  140  8.16732  163  0.4   100   0.4   0     0     990.4    NA       0.0000   9999     6990  7610  0    
2019/06/04  06:29:01  BASE  3.93372  143  7.86744  174  0.4   100   0.4   0     0     990.4    NA       0.0000   9999     7020  7640  0    
2019/06/04  06:30:01  BASE  3.66912  146  6.86784  158  0.5   100   0.5   0     0     990.4    NA       0.0000   9999     7020  7710  0    
2019/06/04  06:31:01  BASE  4.09248  142  6.86784  158  0.6   100   0.6   0     0     990.4    NA       0.0000   9999     6990  7710  0    
2019/06/04  06:32:01  BASE  4.12188  145  6.80316  157  0.9   100   0.9   0     0     990.5    NA       0.0000   9999     6960  7710  0    
2019/06/04  06:33:01  BASE  3.78084  155  6.13872  186  1.0   100   0.9   0     0     990.5    NA       0.0000   9999     6400  7020  0    
2019/06/04  06:34:01  BASE  4.3512   157  5.3214   101  1.0   99    0.9   0     0     990.5    NA       0.0000   9999     6370  0     0    
2019/06/04  06:35:01  BASE  4.85688  151  5.292    145  1.0   99    0.8   0     0     990.4    NA       0.0000   9999     6370  0     0    
2019/06/04  06:36:01  BASE  4.6452   145  5.3214   145  0.9   99    0.7   0     0     990.4    NA       0.0000   9999     6330  0     0    
2019/06/04  06:37:01  BASE  4.18068  142  5.3214   145  0.8   99    0.6   0     0     990.4    NA       0.0000   9999     6330  0     0    
2019/06/04  06:38:01  BASE  4.36296  145  5.47428  143  0.7   99    0.5   0     0     990.4    NA       0.0000   9999     6270  0     0    
2019/06/04  06:39:01  BASE  4.63932  146  5.47428  143  0.7   99    0.5   0     0     990.4    NA       0.0000   9999     6300  0     0    
2019/06/04  06:40:01  BASE  3.65148  144  5.47428  143  0.7   99    0.5   0     0     990.5    NA       0.0000   9999     6270  0     0    
2019/06/04  06:41:01  BASE  3.16932  145  5.47428  143  0.6   99    0.5   0     0     990.5    NA       0.0000   9999     6270  0     0    
2019/06/04  06:42:01  BASE  3.81612  146  5.47428  143  0.6   99    0.5   0     0     990.5    NA       0.0000   9999     6270  0     0    
2019/06/04  06:43:01  BASE  4.25712  145  5.47428  143  0.6   99    0.5   0     0     990.5    NA       0.0000   9999     6300  0     0    
2019/06/04  06:44:01  BASE  4.36884  146  5.47428  143  0.6   100   0.5   0     0     990.5    NA       0.0000   9999     6200  0     0    
2019/06/04  06:45:01  BASE  3.88668  139  5.47428  143  0.5   100   0.5   0     0     990.6    NA       0.0000   9999     6140  0     0    
2019/06/04  06:46:01  BASE  3.55152  132  5.47428  143  0.5   100   0.5   0     0     990.6    NA       0.0000   9999     6100  0     0    
2019/06/04  06:47:01  BASE  4.0572   139  5.47428  143  0.4   100   0.4   0     0     990.5    NA       0.0000   9999     6040  0     0    
2019/06/04  06:48:01  BASE  3.822    141  5.1744   146  0.4   100   0.4   0     0     990.5    NA       0.0000   9999     5940  0     0    
2019/06/04  06:49:01  BASE  2.77536  133  5.1744   146  0.4   100   0.4   0     0     990.5    NA       0.0000   9999     5910  0     0    
2019/06/04  06:50:01  BASE  2.62248  137  5.1744   146  0.4   100   0.4   0     0     990.4    NA       0.0000   9999     5770  0     0    
2019/06/04  06:51:00  BASE  3.26928  133  5.1744   146  0.4   100   0.4   0     0     990.5    NA       0.0000   9999     5740  0     0    
2019/06/04  06:52:01  BASE  3.43392  131  5.1744   146  0.5   100   0.5   0     0     990.5    NA       0.0000   9999     5740  0     0    
2019/06/04  06:53:00  BASE  3.39276  142  5.1744   146  0.5   100   0.5   0     0     990.4    NA       0.0000   9999     5740  0     0    
2019/06/04  06:54:01  BASE  3.31044  145  4.72164  148  0.5   100   0.5   0     0     990.4    NA       0.0000   9999     5770  0     0    
2019/06/04  06:55:00  BASE  2.66364  142  4.72164  148  0.6   100   0.6   0     0     990.4    NA       0.0000   9999     5740  0     0    
2019/06/04  06:56:01  BASE  2.06388  145  4.72164  148  0.6   100   0.6   0     0     990.4    NA       0.0000   9999     5770  0     0    
2019/06/04  06:57:01  BASE  1.77576  160  4.263    145  0.6   100   0.6   0     0     990.4    NA       0.0000   9999     5770  0     0    
2019/06/04  06:58:01  BASE  1.78164  153  4.05132  129  0.6   100   0.6   0     0     990.4    NA       0.0000   9999     5770  0     0    
2019/06/04  06:59:00  BASE  1.89924  130  4.05132  129  0.5   100   0.5   0     0     990.4    NA       0.0000   9999     5770  0     0    
2019/06/04  07:00:00  BASE  1.80516  134  4.05132  129  0.6   100   0.6   0     0     990.4    NA       0.0000   9999     5770  0     0    
2019/06/04  07:01:00  BASE  1.86984  148  3.83964  143  0.7   100   0.7   0     0     990.4    NA       0.0000   9999     5770  0     0    
2019/06/04  07:02:01  BASE  1.85808  142  3.83964  143  0.7   100   0.7   0     0     990.4    NA       0.0000   9999     5770  0     0    
2019/06/04  07:03:01  BASE  1.7346   134  3.53976  146  0.8   100   0.8   0     0     990.4    NA       0.0000   9999     5740  0     0    
2019/06/04  07:04:01  BASE  1.6758   147  3.44568  142  0.9   100   0.9   0     0     990.4    NA       0.0000   9999     5770  0     0    
2019/06/04  07:05:00  BASE  2.03448  163  3.44568  142  0.9   100   0.9   0     0     990.4    NA       0.0000   9999     5810  0     0    
2019/06/04  07:06:01  BASE  2.44608  171  2.72244  164  0.7   100   0.7   0     0     990.4    NA       0.0000   9999     5770  0     0    
2019/06/04  07:07:00  BASE  2.25792  179  2.72244  164  0.6   100   0.6   0     0     990.4    NA       0.0000   9999     5710  0     0    
2019/06/04  07:08:01  BASE  2.00508  180  2.72244  164  0.5   100   0.5   0     0     990.4    NA       0.0000   9999     5710  0     0    
2019/06/04  07:09:00  BASE  1.94628  181  2.72244  164  0.4   100   0.4   0     0     990.5    NA       0.0000   9999     5740  0     0    
2019/06/04  07:10:00  BASE  2.25204  174  2.84592  171  0.3   100   0.3   0     0     990.5    NA       0.0000   9999     5740  0     0    
2019/06/04  07:11:00  BASE  2.31672  168  2.84592  171  0.3   100   0.3   0     0     990.5    NA       0.0000   9999     5740  0     0    
2019/06/04  07:12:01  BASE  2.15208  169  2.84592  171  0.3   100   0.3   0     0     990.4    NA       0.0000   9999     5740  0     0    
2019/06/04  07:13:01  BASE  2.4402   167  2.93412  178  0.3   100   0.3   0     0     990.4    NA       0.0000   9999     5740  0     0    
2019/06/04  07:14:01  BASE  2.48136  162  2.93412  178  0.3   100   0.3   0     0     990.4    NA       0.0000   9999     5740  0     0    
2019/06/04  07:15:00  BASE  2.44608  158  2.93412  178  0.3   100   0.3   0     0     990.4    NA       0.0000   9999     5740  0     0    
2019/06/04  07:16:01  BASE  2.57544  154  2.93412  178  0.3   100   0.3   0     0     990.4    NA       0.0000   9999     5740  0     0    
2019/06/04  07:17:00  BASE  2.51664  151  2.93412  178  0.3   100   0.3   0     0     990.4    NA       0.0000   9999     5640  0     0    
2019/06/04  07:18:01  BASE  2.36964  155  2.93412  178  0.2   100   0.2   0     0     990.4    NA       0.0000   9999     5740  0     0    
2019/06/04  07:19:00  BASE  2.21676  161  2.93412  178  0.2   100   0.2   0     0     990.4    NA       0.0000   9999     5710  0     0    
2019/06/04  07:20:01  BASE  2.2638   167  2.93412  178  0.2   100   0.2   0     0     990.4    NA       0.0000   9999     5770  0     0    
2019/06/04  07:21:00  BASE  2.37552  165  2.96352  161  0.2   100   0.2   0     0     990.4    NA       0.0000   9999     5810  0     0    
2019/06/04  07:22:00  BASE  2.16972  155  2.96352  161  0.2   100   0.2   0     0     990.4    NA       0.0000   9999     5840  0     0    
2019/06/04  07:23:01  BASE  1.85808  142  2.96352  161  0.2   100   0.2   0     0     990.4    NA       0.0000   9999     5870  0     0    
2019/06/04  07:24:00  BASE  1.77576  138  2.96352  161  0.3   100   0.3   0     0     990.4    NA       0.0000   9999     5870  0     0    
2019/06/04  07:25:00  BASE  1.87572  140  2.96352  161  0.4   100   0.4   0     0     990.4    NA       0.0000   9999     5870  0     0    
2019/06/04  07:26:01  BASE  2.19324  143  2.96352  161  0.4   100   0.4   0     0     990.3    NA       0.0000   9999     5910  0     0    
2019/06/04  07:27:00  BASE  2.65776  151  3.1164   157  0.4   100   0.4   0     0     990.2    NA       0.0000   9999     5910  0     0    
2019/06/04  07:28:01  BASE  3.23988  155  4.02192  157  0.5   100   0.5   0     0     990.2    NA       0.0000   9999     5940  0     0    
2019/06/04  07:29:00  BASE  3.969    157  4.53936  157  0.5   100   0.5   0     0     990.1    NA       0.0000   9999     5970  0     0    
2019/06/04  07:30:00  BASE  4.43352  159  4.59816  161  0.5   100   0.5   0     0     990.0    NA       0.0000   9999     6000  0     0    
2019/06/04  07:31:00  BASE  4.3218   166  4.59816  161  0.6   100   0.6   0     0     989.9    NA       0.0000   9999     6000  0     0    
2019/06/04  07:32:01  BASE  3.9102   170  4.59816  161  0.6   100   0.6   0     0     989.9    NA       0.0000   9999     5970  0     0    
2019/06/04  07:33:00  BASE  3.09288  158  4.59816  161  0.7   100   0.7   0     0     990.0    NA       0.0000   9999     5870  0     0    
2019/06/04  07:34:00  BASE  2.3814   108  4.59816  161  0.7   100   0.7   0     0     990.2    NA       0.0000   9999     3540  5910  0    
2019/06/04  07:35:00  BASE  2.45196  65   4.59816  161  0.6   100   0.6   0     0     990.2    NA       0.0000   9999     3380  6000  0    
2019/06/04  07:36:00  BASE  2.35788  81   4.59816  161  0.5   100   0.5   0     0     990.1    NA       0.0000   9999     3350  5910  0    
2019/06/04  07:37:00  BASE  2.0874   118  4.59816  161  0.5   100   0.5   0     0     990.0    NA       0.0000   9999     3280  5870  0    
2019/06/04  07:38:00  BASE  2.54604  123  4.59816  161  0.6   100   0.6   0     0     990.1    NA       0.0000   9999     5770  0     0    
2019/06/04  07:39:00  BASE  2.9988   120  4.59816  161  0.6   100   0.6   0     0     990.0    NA       0.0000   9999     5740  0     0    
2019/06/04  07:40:00  BASE  3.72204  153  4.78044  188  0.8   100   0.8   0     0     989.7    NA       0.0000   9999     5250  5740  0    
2019/06/04  07:41:00  BASE  4.63344  181  5.2038   186  0.9   100   0.9   0     0     989.7    NA       0.0000   9999     5120  0     0    
2019/06/04  07:42:00  BASE  4.43352  172  5.2038   186  1.0   100   1.0   0     0     989.8    NA       0.0000   9999     4430  4890  0    
2019/06/04  07:43:00  BASE  3.11052  161  5.2038   186  1.1   100   1.1   0     0     989.8    NA       0.0000   9999     4330  0     0    
2019/06/04  07:44:00  BASE  2.97528  19   5.2038   186  1.1   100   1.1   0     0     989.8    NA       0.0000   9999     4230  0     0    
2019/06/04  07:45:00  BASE  3.22224  9    5.2038   186  1.2   100   1.2   0     0     989.9    NA       0.0000   9999     4170  0     0    
2019/06/04  07:46:00  BASE  1.78164  35   5.2038   186  1.2   100   1.1   0     0     989.9    NA       0.0000   9999     4130  0     0    
2019/06/04  07:47:00  BASE  0.6762   143  5.2038   186  1.2   100   1.1   0     0     989.8    NA       0.0000   9999     4070  0     0    
2019/06/04  07:48:00  BASE  0.92316  134  5.2038   186  1.2   99    1.1   0     0     989.9    NA       0.0000   9999     4100  0     0    
2019/06/04  07:49:00  BASE  1.10544  103  5.2038   186  1.3   99    1.1   0     0     989.9    NA       0.0000   9999     4040  0     0    
2019/06/04  07:50:00  BASE  0.41748  117  5.2038   186  1.4   98    1.1   0     0     989.9    NA       0.0000   9999     3670  0     0    
2019/06/04  07:51:00  BASE  0.11172  131  4.93332  174  1.4   98    1.1   0     0     989.8    NA       0.0000   9999     3380  0     0    
2019/06/04  07:52:00  BASE  0.3822   133  4.72164  7    1.4   97    1.0   0     0     989.8    NA       0.0000   9999     3180  0     0    
2019/06/04  07:53:00  BASE  1.01724  83   4.72164  7    1.4   97    0.9   0     0     989.8    NA       0.0000   9999     3310  0     0    
2019/06/04  07:54:00  BASE  1.14072  60   3.2046   12   1.5   97    1.0   0     0     989.8    NA       0.0000   9999     3280  0     0    
2019/06/04  07:55:00  BASE  1.31124  147  2.35788  175  1.5   96    1.0   0     0     989.7    NA       0.0000   9999     3220  0     0    
2019/06/04  07:56:00  BASE  1.97568  169  2.45196  163  1.6   96    1.0   0     0     989.7    NA       0.0000   9999     3280  0     0    
2019/06/04  07:57:00  BASE  2.09916  139  2.75184  137  1.6   95    1.0   0     0     989.7    NA       0.0000   9999     3120  0     0    
2019/06/04  07:58:00  BASE  2.55192  145  3.81024  170  1.7   95    0.9   0     0     989.5    NA       0.0000   9999     3180  0     0    
2019/06/04  07:59:00  BASE  3.8808   157  5.10972  144  1.6   94    0.8   0     0     989.5    NA       0.0000   9999     3250  0     0    
2019/06/04  08:00:00  BASE  4.2336   133  5.10972  144  1.6   94    0.7   0     0     989.6    NA       0.0000   9999     3380  0     0    
2019/06/04  08:01:00  BASE  3.39276  106  5.10972  144  1.6   94    0.8   0     0     989.7    NA       0.0000   9999     3410  0     0    
2019/06/04  08:02:00  BASE  3.90432  95   5.10972  144  1.7   94    0.8   0     0     989.6    NA       0.0000   9999     3280  0     0    
2019/06/04  08:03:00  BASE  4.998    100  5.86824  104  1.7   94    0.8   0     0     989.6    NA       0.0000   9999     3350  0     0    
2019/06/04  08:04:00  BASE  5.09796  102  5.86824  104  1.7   94    0.9   0     0     989.6    NA       0.0000   9999     3510  0     0    
2019/06/04  08:05:00  BASE  4.98036  95   5.86824  104  1.8   94    0.9   0     0     989.6    NA       0.0000   9999     3510  0     0    
2019/06/04  08:06:00  BASE  5.0862   92   5.86824  104  1.8   94    0.8   0     0     989.5    NA       0.0000   9999     3450  0     0    
2019/06/04  08:07:00  BASE  4.5864   99   5.86824  104  1.7   93    0.8   0     0     989.5    NA       0.0000   9999     3480  0     0    
2019/06/04  08:08:00  BASE  4.96272  99   6.80316  89   1.8   93    0.8   0     0     989.5    NA       0.0000   9999     3580  0     0    
2019/06/04  08:09:00  BASE  6.03288  91   6.80316  89   1.9   93    0.8   0     0     989.4    NA       0.0000   9999     3450  0     0    
2019/06/04  08:10:00  BASE  5.7624   99   6.80316  89   1.9   92    0.8   0     0     989.3    NA       0.0000   9999     3450  0     0    
2019/06/04  08:11:00  BASE  5.3508   121  6.80316  89   2.0   92    0.8   0     0     989.2    NA       0.0000   9999     3480  0     0    
2019/06/04  08:12:00  BASE  5.10972  138  6.80316  89   2.1   91    0.8   0     0     989.2    NA       0.0000   9999     3480  0     0    
2019/06/04  08:13:00  BASE  4.98036  130  6.80316  89   2.1   91    0.7   0     0     989.2    NA       0.0000   9999     3580  0     0    
2019/06/04  08:14:00  BASE  5.69772  117  7.13832  119  2.2   90    0.7   0     0     989.2    NA       0.0000   9999     3610  0     0    
2019/06/04  08:15:00  BASE  5.95644  125  7.13832  119  2.3   89    0.7   0     0     989.2    NA       0.0000   9999     3580  0     0    
2019/06/04  08:16:00  BASE  5.46252  137  7.13832  119  2.3   89    0.6   0     0     989.1    NA       0.0000   9999     3610  0     0    
2019/06/04  08:17:00  BASE  5.93292  137  7.13832  119  2.3   88    0.5   0     0     989.1    NA       0.0000   9999     3640  0     0    
2019/06/04  08:18:00  BASE  6.27396  132  7.13832  119  2.2   87    0.3   0     0     989.1    NA       0.0000   9999     3670  0     0    
2019/06/04  08:19:00  BASE  5.54484  135  7.13832  119  2.2   87    0.2   0     0     989.1    NA       0.0000   9999     3710  0     0    
2019/06/04  08:20:00  BASE  4.36884  134  7.13832  119  2.1   87    0.1   0     0     989.2    NA       0.0000   9999     3810  0     0    
2019/06/04  08:21:00  BASE  4.16304  113  7.13832  119  2.0   87    0.1   0     0     989.2    NA       0.0000   9999     3770  0     0    
2019/06/04  08:22:00  BASE  4.98036  111  7.13832  119  2.0   87    0.1   0     0     989.1    NA       0.0000   9999     3840  0     0    
2019/06/04  08:23:00  BASE  5.25084  127  7.13832  119  2.0   88    0.2   0     0     989.1    NA       0.0000   9999     3810  0     0    
2019/06/04  08:24:00  BASE  4.9686   131  6.98544  130  2.0   88    0.3   0     0     989.1    NA       0.0000   9999     3870  0     0    
2019/06/04  08:25:00  BASE  4.41588  132  6.98544  130  2.0   89    0.3   0     0     989.1    NA       0.0000   9999     3840  0     0    
2019/06/04  08:26:00  BASE  4.00428  128  6.98544  130  2.0   89    0.3   0     0     989.1    NA       0.0000   9999     3940  0     0    
2019/06/04  08:27:00  BASE  4.34532  131  6.41508  132  2.0   89    0.3   0     0     989.0    NA       0.0000   9999     4040  0     0    
2019/06/04  08:28:00  BASE  4.76868  136  5.74476  124  2.0   89    0.3   0     0     989.0    NA       0.0000   9999     3870  0     0    
2019/06/04  08:29:00  BASE  4.43352  138  5.74476  124  2.0   88    0.3   0     0     989.0    NA       0.0000   9999     3970  0     0    
2019/06/04  08:30:00  BASE  4.35708  137  5.74476  124  2.0   88    0.3   0     0     989.0    NA       0.0000   9999     3970  0     0    
2019/06/04  08:31:00  BASE  4.62168  131  5.74476  124  2.0   88    0.3   0     0     989.0    NA       0.0000   9999     3940  0     0    
2019/06/04  08:32:00  BASE  4.68048  131  5.74476  124  2.0   88    0.3   0     0     989.0    NA       0.0000   9999     4040  0     0    
2019/06/04  08:33:00  BASE  4.79808  130  5.53308  130  2.1   88    0.3   0     0     989.1    NA       0.0000   9999     4200  0     0    
2019/06/04  08:34:00  BASE  5.08032  129  5.80944  129  2.1   88    0.3   0     0     989.0    NA       0.0000   9999     4200  0     0    
2019/06/04  08:35:00  BASE  5.39196  137  5.83884  136  2.1   88    0.4   0     0     988.9    NA       0.0000   9999     4230  0     0    
2019/06/04  08:36:00  BASE  5.41548  144  5.83884  136  2.1   88    0.3   0     0     988.9    NA       0.0000   9999     4170  0     0    
2019/06/04  08:37:00  BASE  5.42136  146  6.07992  153  2.1   88    0.3   0     0     988.9    NA       0.0000   9999     4170  0     0    
2019/06/04  08:38:00  BASE  5.2626   149  6.07992  153  2.1   88    0.2   0     0     988.9    NA       0.0000   9999     4130  6070  0    
2019/06/04  08:39:00  BASE  4.59228  149  6.07992  153  2.0   88    0.2   0     0     988.9    NA       0.0000   9999     4130  0     0    
2019/06/04  08:40:00  BASE  3.44568  147  6.07992  153  2.0   88    0.2   0     0     989.0    NA       0.0000   9999     4100  0     0    
2019/06/04  08:41:00  BASE  2.58132  143  6.07992  153  1.9   88    0.2   0     0     989.0    NA       0.0000   9999     4070  6330  0    
2019/06/04  08:42:00  BASE  2.48136  125  6.07992  153  1.9   88    0.2   0     0     989.0    NA       0.0000   9999     3970  0     0    
2019/06/04  08:43:00  BASE  2.89296  124  6.07992  153  1.9   89    0.2   0     0     989.0    NA       0.0000   9999     4040  7970  0    
2019/06/04  08:44:00  BASE  3.4104   132  6.07992  153  1.9   89    0.3   0     0     989.0    NA       0.0000   9999     4040  0     0    
2019/06/04  08:45:00  BASE  3.41628  125  6.07992  153  2.0   89    0.4   0     0     989.0    NA       0.0000   9999     3970  7910  0    
2019/06/04  08:46:00  BASE  3.71616  119  6.07992  153  2.1   89    0.5   0     0     988.8    NA       0.0000   9999     3940  7870  0    
2019/06/04  08:47:00  BASE  4.7922   126  5.99172  130  2.1   89    0.5   0     0     988.7    NA       0.0000   9999     7810  0     0    
2019/06/04  08:48:00  BASE  4.66872  138  5.99172  130  2.1   89    0.5   0     0     988.9    NA       0.0000   9999     7810  0     0    
2019/06/04  08:49:00  BASE  3.63972  144  5.99172  130  2.1   88    0.4   0     0     988.9    NA       0.0000   9999     7840  0     0    
2019/06/04  08:50:00  BASE  3.44568  147  5.99172  130  2.1   88    0.3   0     0     988.9    NA       0.0000   9999     7870  0     0    
2019/06/04  08:51:00  BASE  3.822    139  5.99172  130  2.0   88    0.3   0     0     988.9    NA       0.0000   9999     7840  0     0    
2019/06/04  08:52:00  BASE  4.65108  139  5.99172  130  2.0   88    0.3   0     0     988.8    NA       0.0000   9999     7870  0     0    
2019/06/04  08:53:00  BASE  4.79808  145  5.99172  130  2.0   88    0.3   0     0     988.8    NA       0.0000   9999     7940  0     0    
2019/06/04  08:54:00  BASE  4.52172  141  5.99172  130  2.1   88    0.4   0     0     988.8    NA       0.0000   9999     7780  0     0    
2019/06/04  08:55:00  BASE  3.15168  145  5.99172  130  2.3   88    0.5   0     0     988.7    NA       0.0000   9999     7780  0     0    
2019/06/04  08:56:00  BASE  1.47588  137  5.99172  130  2.5   88    0.6   0     0     988.7    NA       0.0000   9999     7780  0     0    
2019/06/04  08:57:00  BASE  2.6166   127  5.92704  152  2.7   87    0.6   0     0     988.6    NA       0.0000   9999     7810  0     0    
2019/06/04  08:58:00  BASE  4.40412  149  6.02112  170  2.8   85    0.6   0     0     988.5    NA       0.0000   9999     7610  0     0    
2019/06/04  08:59:00  BASE  4.66872  151  6.02112  170  2.8   84    0.4   0     0     988.6    NA       0.0000   9999     7610  0     0    
2019/06/04  09:00:00  BASE  5.58012  140  7.74396  136  2.7   83    0.2   0     0     988.5    NA       0.0000   9999     7580  0     0    
2019/06/04  09:01:00  BASE  7.19124  139  8.71416  142  2.6   83    0.0   0     0     988.6    NA       0.0000   9999     7480  0     0    
2019/06/04  09:02:00  BASE  6.8796   140  8.71416  142  2.5   83    -0.1  0     0     988.6    NA       0.0000   9999     7480  0     0    
2019/06/04  09:03:00  BASE  5.86236  144  8.71416  142  2.4   84    -0.1  0     0     988.7    NA       0.0000   9999     7510  0     0    
2019/06/04  09:04:00  BASE  5.7036   147  8.71416  142  2.3   84    -0.1  0     0     988.7    NA       0.0000   9999     7550  0     0    
2019/06/04  09:05:00  BASE  5.78004  149  8.71416  142  2.2   85    -0.1  0     0     988.6    NA       0.0000   9999     7450  0     0    
2019/06/04  09:06:00  BASE  6.12696  148  8.71416  142  2.1   85    -0.1  0     0     988.6    NA       0.0000   9999     7420  0     0    
2019/06/04  09:07:00  BASE  6.1152   142  8.71416  142  2.1   86    -0.0  0     0     988.7    NA       0.0000   9999     7420  0     0    
2019/06/04  09:08:00  BASE  4.90392  142  8.71416  142  2.1   86    0.1   0     0     988.7    NA       0.0000   9999     7420  0     0    
2019/06/04  09:09:00  BASE  3.69852  145  8.71416  142  2.1   87    0.2   0     0     988.7    NA       0.0000   9999     7350  0     0    
2019/06/04  09:10:00  BASE  4.0278   142  8.71416  142  2.1   87    0.2   0     0     988.7    NA       0.0000   9999     7320  0     0    
2019/06/04  09:11:00  BASE  4.53936  139  7.2912   137  2.2   87    0.3   0     0     988.7    NA       0.0000   9999     7320  0     0    
2019/06/04  09:12:00  BASE  3.5868   131  7.2912   137  2.3   87    0.4   0     0     988.8    NA       0.0000   9999     7380  0     0    
2019/06/04  09:13:00  BASE  2.44608  74   7.2912   137  2.4   87    0.5   0     0     988.8    NA       0.0000   9999     7740  0     0    
2019/06/04  09:14:00  BASE  3.11052  25   7.2912   137  2.7   87    0.8   0     0     988.7    NA       0.0000   9999     7710  0     0    
2019/06/04  09:15:00  BASE  4.86276  38   7.86744  41   3.2   87    1.2   0     0     988.7    NA       0.0000   9999     7420  0     0    
2019/06/04  09:16:00  BASE  6.615    43   9.07284  41   3.7   86    1.5   0     0     988.6    NA       0.0000   9999     7450  0     0    
2019/06/04  09:17:00  BASE  7.41468  44   9.07284  41   4.1   84    1.7   0     0     988.6    NA       0.0000   9999     7510  0     0    
2019/06/04  09:18:00  BASE  7.99092  50   9.83136  45   4.5   82    1.8   0     0     988.5    NA       0.0000   9999     7450  0     0    
2019/06/04  09:19:00  BASE  8.68476  55   10.3135  67   4.8   81    1.7   0     0     988.6    NA       0.0000   9999     7380  0     0    
2019/06/04  09:20:00  BASE  8.99052  53   10.5546  58   4.9   79    1.7   0     0     988.5    NA       0.0000   9999     7380  0     0    
2019/06/04  09:21:00  BASE  9.39624  48   11.2543  37   5.0   79    1.7   0     0     988.5    NA       0.0000   9999     7350  0     0    
2019/06/04  09:22:00  BASE  9.28452  48   11.2543  37   5.0   79    1.7   0     0     988.5    NA       0.0000   9999     7350  0     0    
2019/06/04  09:23:00  BASE  8.7318   48   11.2543  37   5.1   80    1.9   0     0     988.6    NA       0.0000   9999     7380  0     0    
2019/06/04  09:24:00  BASE  7.33824  42   11.2543  37   5.0   80    2.0   0     0     988.6    NA       0.0000   9999     7350  0     0    
2019/06/04  09:25:00  BASE  6.62088  37   11.2543  37   5.0   81    2.0   0     0     988.6    NA       0.0000   9999     7680  0     0    
2019/06/04  09:26:00  BASE  7.19124  40   11.2543  37   5.0   81    2.0   0     0     988.5    NA       0.0000   9999     7580  0     0    
2019/06/04  09:27:00  BASE  7.54404  37   11.2543  37   5.0   81    1.9   0     0     988.5    NA       0.0000   9999     7450  0     0    
2019/06/04  09:28:00  BASE  7.82628  34   11.2543  37   5.0   80    1.8   0     0     988.5    NA       0.0000   9999     7380  0     0    
2019/06/04  09:29:00  BASE  8.12616  36   11.2543  37   5.0   80    1.8   0     0     988.5    NA       0.0000   9999     7350  0     0    
2019/06/04  09:30:00  BASE  8.4672   36   11.2543  37   5.0   79    1.6   0     0     988.4    NA       0.0000   9999     7250  0     0    
2019/06/04  09:31:00  BASE  9.33744  33   12.7361  25   5.0   78    1.5   0     0     988.3    NA       0.0000   9999     7320  0     0    
2019/06/04  09:32:00  BASE  9.88428  33   12.7361  25   5.0   78    1.4   0     0     988.3    NA       0.0000   9999     7350  0     0    
2019/06/04  09:33:00  BASE  10.5428  34   12.7361  25   5.0   77    1.3   0     0     988.2    NA       0.0000   9999     7420  0     0    
2019/06/04  09:34:00  BASE  10.9486  33   12.7361  25   5.0   77    1.3   0     0     988.2    NA       0.0000   9999     7480  0     0    
2019/06/04  09:35:00  BASE  10.7663  30   12.8243  29   4.9   77    1.2   0     0     988.2    NA       0.0000   9999     7610  0     0    
2019/06/04  09:36:00  BASE  11.2543  31   12.8243  29   4.9   77    1.2   0     0     988.2    NA       0.0000   9999     0     0     0    
2019/06/04  09:37:00  BASE  11.3308  32   12.8243  29   4.9   77    1.3   0     0     988.2    NA       0.0000   9999     0     0     0    
2019/06/04  09:38:00  BASE  11.0191  33   12.8243  29   5.0   77    1.3   0     0     988.2    NA       0.0000   9999     6100  0     0    
2019/06/04  09:39:00  BASE  10.8427  30   14.2766  22   5.0   77    1.3   0     0     988.2    NA       0.0000   9999     0     0     0    
2019/06/04  09:40:00  BASE  10.6193  30   14.2766  22   5.0   78    1.4   0     0     988.2    NA       0.0000   9999     0     0     0    
2019/06/04  09:41:00  BASE  10.2724  30   14.2766  22   4.9   78    1.4   0     0     988.2    NA       0.0000   9999     0     0     0    
2019/06/04  09:42:00  BASE  9.59616  30   14.2766  22   4.9   78    1.4   0     0     988.2    NA       0.0000   9999     0     0     0    
2019/06/04  09:43:00  BASE  10.3841  31   14.2766  22   4.8   79    1.4   0     0     988.1    NA       0.0000   9999     0     0     0    
2019/06/04  09:44:00  BASE  11.6012  32   14.2766  22   4.9   79    1.5   0     0     988.1    NA       0.0000   9999     0     0     0    
2019/06/04  09:45:00  BASE  11.6306  33   14.2766  22   4.9   79    1.5   0     0     988.1    NA       0.0000   9999     0     0     0    
2019/06/04  09:46:00  BASE  11.86    34   14.2766  22   4.9   79    1.6   0     0     988.1    NA       0.0000   9999     0     0     0    
2019/06/04  09:47:00  BASE  12.2598  33   14.2766  22   5.0   79    1.7   0     0     988.1    NA       0.0000   9999     0     0     0    
2019/06/04  09:48:00  BASE  12.348   30   14.3707  16   5.1   79    1.7   0     0     988.1    NA       0.0000   9999     0     0     0    
2019/06/04  09:49:00  BASE  12.5538  30   14.3707  16   5.1   79    1.7   0     0     988.1    NA       0.0000   -RA      9999  0     0    
2019/06/04  09:50:00  BASE  11.7953  31   14.3707  16   5.1   78    1.6   0     0     988.2    NA       0.0000   -RA      9999  0     0    
2019/06/04  09:51:00  BASE  10.7016  31   14.3707  16   5.0   78    1.6   0     0     988.2    NA       0.0000   -RA      9999  0     0    
2019/06/04  09:52:00  BASE  10.1254  34   14.3707  16   5.0   78    1.5   0     0     988.3    NA       0.0000   -RA      9999  0     0    
2019/06/04  09:53:00  BASE  9.39036  36   14.3707  16   4.9   78    1.4   0     0     988.3    NA       0.0000   -RA      9999  0     0    
2019/06/04  09:54:00  BASE  9.65496  37   14.3707  16   4.8   78    1.4   0     0     988.3    NA       0.0000   -RA      9999  0     0    
2019/06/04  09:55:00  BASE  9.99012  38   14.3707  16   4.8   79    1.4   0     0     988.3    NA       0.0000   -RA      9999  0     0    
2019/06/04  09:56:00  BASE  10.7075  41   14.3707  16   4.8   79    1.4   0     0     988.3    NA       0.0000   -RA      9999  0     0    
2019/06/04  09:57:00  BASE  11.2484  45   14.3707  16   4.7   79    1.5   0     0     988.3    NA       0.0000   -RA      9999  0     0    
2019/06/04  09:58:00  BASE  10.731   46   14.306   33   4.7   80    1.5   0     0     988.3    NA       0.0000   -RA      9999  0     0    
2019/06/04  09:59:00  BASE  11.1014  48   13.2182  35   4.7   80    1.5   0     0     988.3    NA       0.0000   -RA      9999  0     0    
2019/06/04  10:00:00  BASE  11.6836  47   13.0066  45   4.6   81    1.6   0     0     988.3    NA       0.0000   -RA      9999  0     0    
2019/06/04  10:01:00  BASE  11.3072  46   13.0066  45   4.5   81    1.6   0     0     988.3    NA       0.0000   9999     0     0     0    
2019/06/04  10:02:00  BASE  11.2367  46   13.0066  45   4.5   82    1.6   0     0     988.3    NA       0.0000   9999     0     0     0    
2019/06/04  10:03:00  BASE  11.2073  45   13.0066  45   4.5   82    1.7   0     0     988.3    NA       0.0000   9999     0     0     0    
2019/06/04  10:04:00  BASE  10.9427  44   13.0066  45   4.4   83    1.8   0     0     988.3    NA       0.0000   9999     0     0     0    
2019/06/04  10:05:00  BASE  10.6487  43   13.0066  45   4.4   83    1.9   0     0     988.3    NA       0.0000   -RA      9999  0     0    
2019/06/04  10:06:00  BASE  10.2488  42   13.0066  45   4.4   84    1.9   0     0     988.3    NA       0.0000   -RA      9999  0     0    
2019/06/04  10:07:00  BASE  10.4899  43   13.0066  45   4.4   84    2.0   0     0     988.3    NA       0.0000   -RA      9999  0     0    
2019/06/04  10:08:00  BASE  10.684   45   13.0066  45   4.4   85    2.0   0     0     988.4    NA       0.0000   -RA      9999  0     0    
2019/06/04  10:09:00  BASE  10.6193  45   13.0066  45   4.4   85    2.1   0     0     988.3    NA       0.0000   -RA      9999  0     0    
2019/06/04  10:10:00  BASE  10.19    43   12.889   40   4.4   86    2.2   0     0     988.4    NA       0.0000   -RA      9999  0     0    
2019/06/04  10:11:00  BASE  9.81372  43   12.889   40   4.3   86    2.2   0     0     988.4    NA       0.0000   -RA      9999  0     0    
2019/06/04  10:12:00  BASE  9.90192  43   12.101   42   4.3   86    2.2   0     0     988.4    NA       0.0000   -RA      9999  0     0    
2019/06/04  10:13:00  BASE  10.6134  43   12.4303  42   4.3   86    2.2   0     0     988.3    NA       0.0000   -RA      9999  0     0    
2019/06/04  10:14:00  BASE  11.1838  42   12.9772  41   4.3   86    2.2   0     0     988.3    NA       0.0000   -RA      9999  0     0    
2019/06/04  10:15:00  BASE  11.0662  42   12.9772  41   4.3   86    2.1   0     0     988.3    NA       0.0000   -RA      9999  0     0    
2019/06/04  10:16:00  BASE  11.025   41   12.9772  41   4.3   86    2.1   0     0     988.3    NA       0.0000   -RA      9999  0     0    
2019/06/04  10:17:00  BASE  10.8839  41   12.9772  41   4.3   86    2.1   0     0     988.4    NA       0.0000   -RA      9999  0     0    
2019/06/04  10:18:00  BASE  10.6134  40   12.9772  41   4.2   86    2.1   0     0     988.4    NA       0.0000   -RA      9999  0     0    
2019/06/04  10:19:00  BASE  10.2782  40   12.9772  41   4.2   86    2.1   0     0     988.4    NA       0.0000   -RA      9999  0     0    
2019/06/04  10:20:00  BASE  10.39    41   12.9772  41   4.2   86    2.0   0     0     988.4    NA       0.0000   -RA      9999  0     0    
2019/06/04  10:21:00  BASE  10.4311  43   12.9772  41   4.1   86    2.0   0     0     988.4    NA       0.0000   -RA      9999  0     0    
2019/06/04  10:22:00  BASE  10.0842  42   12.9772  41   4.1   86    2.0   0     0     988.4    NA       0.0000   -RA      9999  0     0    
2019/06/04  10:23:00  BASE  10.337   43   12.9772  41   4.1   86    2.0   0     0     988.4    NA       0.0000   -RA      9999  0     0    
2019/06/04  10:24:00  BASE  10.8016  43   12.642   43   4.1   87    2.0   0     0     988.3    NA       0.0000   -RA      9999  0     0    
2019/06/04  10:25:00  BASE  10.4488  43   12.642   43   4.0   87    2.0   0     0     988.4    NA       0.0000   -RA      9999  0     0    
2019/06/04  10:26:00  BASE  10.5252  43   12.7361  42   4.0   87    2.0   0     0     988.3    NA       0.0000   -RA      9999  0     0    
2019/06/04  10:27:00  BASE  10.7663  44   12.7361  42   4.0   87    2.0   0     0     988.3    NA       0.0000   -RA      9999  0     0    
2019/06/04  10:28:00  BASE  10.731   44   12.7361  42   4.0   87    2.0   0     0     988.3    NA       0.0000   -RA      9999  0     0    
2019/06/04  10:29:00  BASE  11.0662  45   12.7361  42   3.9   87    2.0   0     0     988.3    NA       0.0000   -RA      9999  0     0    
2019/06/04  10:30:00  BASE  11.3014  45   12.7361  42   3.9   88    2.0   0     0     988.3    NA       0.0000   -RA      9999  0     0    
2019/06/04  10:31:00  BASE  11.319   44   12.7361  42   3.9   88    2.1   0     0     988.3    NA       0.0000   -RA      9999  460   0    
2019/06/04  10:32:00  BASE  11.2661  44   12.7361  42   3.9   88    2.1   0     0     988.3    NA       0.0000   -RA      9999  0     0    
2019/06/04  10:33:00  BASE  11.1073  44   12.7361  42   3.9   88    2.1   0     0     988.2    NA       0.0000   -RA      9999  0     0    
2019/06/04  10:34:00  BASE  10.831   44   12.7361  42   3.9   88    2.1   0     0     988.3    NA       0.0000   -RA      9999  0     0    
2019/06/04  10:35:00  BASE  10.6781  44   12.7361  42   3.9   88    2.1   0     0     988.3    NA       0.0000   -RA      9999  0     0    
2019/06/04  10:36:00  BASE  10.3841  45   12.6126  36   3.9   88    2.1   0     0     988.3    NA       0.0000   -RA      9999  0     0    
2019/06/04  10:37:00  BASE  10.878   46   13.0654  43   3.9   88    2.2   0     0     988.2    NA       0.0000   -RA      9999  0     0    
2019/06/04  10:38:00  BASE  11.6894  45   13.2476  42   3.9   89    2.2   0     0     988.2    NA       0.0000   -RA      9999  0     0    
2019/06/04  10:39:00  BASE  12.2833  45   13.9121  49   3.9   89    2.3   0     0     988.2    NA       0.0000   -RA      9999  0     0    
2019/06/04  10:40:00  BASE  12.7067  46   13.9121  49   4.0   89    2.3   0     0     988.2    NA       0.0000   -RA      9999  0     0    
2019/06/04  10:41:00  BASE  12.1834  48   13.9121  49   4.0   89    2.4   0     0     988.3    NA       0.0000   -RA      9999  0     0    
2019/06/04  10:42:00  BASE  11.1779  48   13.9121  49   4.0   89    2.4   0     0     988.3    NA       0.0000   -RA      9999  0     0    
2019/06/04  10:43:00  BASE  11.125   49   13.9121  49   4.0   89    2.4   0     0     988.3    NA       0.0000   -RA      9999  0     0    
2019/06/04  10:44:00  BASE  11.3602  49   13.9121  49   4.0   89    2.3   0     0     988.2    NA       0.0000   -RA      9999  0     0    
2019/06/04  10:45:00  BASE  11.3543  50   13.9121  49   4.0   89    2.3   0     0     988.2    NA       0.0000   -RA      9999  0     0    
2019/06/04  10:46:00  BASE  11.0662  52   13.9121  49   3.9   89    2.3   0     0     988.3    NA       0.0000   -RA      9999  0     0    
2019/06/04  10:47:00  BASE  10.7192  52   13.9121  49   3.9   89    2.3   0     0     988.2    NA       0.0000   -RA      9999  0     0    
2019/06/04  10:48:00  BASE  10.7369  53   13.9121  49   3.9   89    2.2   0     0     988.3    NA       0.0000   -RA      9999  0     0    
2019/06/04  10:49:00  BASE  10.5722  54   13.7004  48   3.9   89    2.2   0     0     988.3    NA       0.0000   -RA      9999  0     0    
2019/06/04  10:50:00  BASE  10.5958  55   13.0654  52   3.8   89    2.2   0     0     988.3    NA       0.0000   -RA      9999  0     0    
2019/06/04  10:51:00  BASE  10.5487  55   13.0654  52   3.8   89    2.2   0     0     988.3    NA       0.0000   -RA      9999  0     0    
2019/06/04  10:52:00  BASE  10.8486  56   13.0654  52   3.8   89    2.2   0     0     988.2    NA       0.0000   -RA      9999  0     0    
2019/06/04  10:53:00  BASE  10.978   55   13.0654  52   3.8   90    2.3   0     0     988.3    NA       0.0000   -RA      9999  0     0    
2019/06/04  10:54:00  BASE  10.7957  53   12.9772  53   3.8   90    2.3   0     0     988.3    NA       0.0000   9999     0     0     0    
2019/06/04  10:55:00  BASE  10.4488  54   12.9184  56   3.8   90    2.3   0     0     988.3    NA       0.0000   9999     0     0     0    
2019/06/04  10:56:00  BASE  10.3958  57   12.9184  56   3.8   89    2.2   0     0     988.2    NA       0.0000   9999     0     0     0    
2019/06/04  10:57:00  BASE  10.5252  61   12.9184  56   3.8   89    2.2   0     0     988.3    NA       0.0000   9999     0     0     0    
2019/06/04  10:58:00  BASE  10.5664  61   12.9184  56   3.8   89    2.2   0     0     988.3    NA       0.0000   9999     0     0     0    
2019/06/04  10:59:00  BASE  10.878   58   12.9184  56   3.9   90    2.3   0     0     988.3    NA       0.0000   9999     0     0     0    
2019/06/04  11:00:00  BASE  10.4723  53   12.9184  56   3.9   90    2.3   0     0     988.3    NA       0.0000   9999     0     0     0    
2019/06/04  11:01:00  BASE  9.9372   53   12.9184  56   3.9   90    2.4   0     0     988.3    NA       0.0000   9999     0     0     0    
2019/06/04  11:02:00  BASE  9.996    54   12.1304  55   3.9   90    2.4   0     0     988.3    NA       0.0000   9999     0     0     0    
2019/06/04  11:03:00  BASE  9.75492  51   12.1304  55   4.0   89    2.4   0     0     988.4    NA       0.0000   9999     0     0     0    
2019/06/04  11:04:00  BASE  9.5256   50   12.101   58   4.0   89    2.4   0     0     988.4    NA       0.0000   -RA      9999  0     0    
2019/06/04  11:05:00  BASE  9.41976  51   12.101   58   4.0   90    2.4   0     0     988.5    NA       0.0000   -RA      9999  0     0    
2019/06/04  11:06:00  BASE  9.16104  53   12.101   58   4.0   90    2.5   0     0     988.5    NA       0.0000   -RA      9999  0     0    
2019/06/04  11:07:00  BASE  9.18456  53   12.101   58   4.0   90    2.5   0     0     988.5    NA       0.0000   -RA      9999  0     0    
2019/06/04  11:08:00  BASE  9.2022   54   12.101   58   4.0   90    2.5   0     0     988.5    NA       0.0000   -RA      9999  0     0    
2019/06/04  11:09:00  BASE  8.7612   53   11.0132  56   4.0   90    2.5   0     0     988.6    NA       0.0000   -RA      9999  0     0    
2019/06/04  11:10:00  BASE  7.88508  48   11.0132  56   3.9   90    2.4   0     0     988.7    NA       0.0000   -RA      9999  0     0    
2019/06/04  11:11:00  BASE  7.21476  45   11.0132  56   3.8   90    2.4   0     0     988.7    NA       0.0000   -RA      9999  0     0    
2019/06/04  11:12:00  BASE  6.99132  44   10.978   48   3.8   90    2.3   0     0     988.7    NA       0.0000   -RA      9999  0     0    
2019/06/04  11:13:00  BASE  6.50328  39   10.978   48   3.8   90    2.4   0     0     988.7    NA       0.0000   -RA      9999  0     0    
2019/06/04  11:14:00  BASE  5.92116  36   10.437   47   3.8   91    2.4   0     0     988.7    NA       0.0000   -RA      9999  0     0    
2019/06/04  11:15:00  BASE  5.80356  32   9.91956  53   3.8   91    2.4   0     0     988.7    NA       0.0000   -RA      9999  0     0    
2019/06/04  11:16:00  BASE  5.58012  32   9.91956  53   3.9   91    2.5   0     0     988.7    NA       0.0000   -RA      9999  0     0    
2019/06/04  11:17:00  BASE  5.95056  38   9.91956  53   3.9   91    2.6   0     0     988.7    NA       0.0000   -RA      9999  0     0    
2019/06/04  11:18:00  BASE  6.27984  37   8.77296  48   3.9   91    2.6   0     0     988.7    NA       0.0000   9999     0     0     0    
2019/06/04  11:19:00  BASE  6.36804  36   8.56128  53   3.9   91    2.6   0     0     988.7    NA       0.0000   9999     0     0     0    
2019/06/04  11:20:00  BASE  6.6444   36   8.4084   23   3.9   91    2.6   0     0     988.7    NA       0.0000   9999     0     0     0    
2019/06/04  11:21:00  BASE  6.50328  39   8.4084   23   3.9   92    2.6   0     0     988.7    NA       0.0000   9999     0     0     0    
2019/06/04  11:22:00  BASE  7.03836  43   8.74356  51   3.8   92    2.6   0     0     988.7    NA       0.0000   9999     0     0     0    
2019/06/04  11:23:00  BASE  7.73808  40   9.10224  31   3.8   92    2.6   0     0     988.6    NA       0.0000   9999     0     0     0    
2019/06/04  11:24:00  BASE  7.7322   39   9.10224  31   3.8   92    2.7   0     0     988.6    NA       0.0000   9999     0     0     0    
2019/06/04  11:25:00  BASE  7.83804  46   9.67848  43   3.8   93    2.7   0     0     988.6    NA       0.0000   9999     0     0     0    
2019/06/04  11:26:00  BASE  8.085    46   9.67848  43   3.8   93    2.7   0     0     988.6    NA       0.0000   9999     0     0     0    
2019/06/04  11:27:00  BASE  8.10264  44   9.67848  43   3.8   93    2.7   0     0     988.6    NA       0.0000   9999     0     0     0    
2019/06/04  11:28:00  BASE  8.60832  44   10.6487  54   3.8   93    2.8   0     0     988.6    NA       0.0000   9999     6270  0     0    
2019/06/04  11:29:00  BASE  9.86076  46   11.9188  41   3.7   93    2.8   0     0     988.6    NA       0.0000   9999     0     0     0    
2019/06/04  11:30:00  BASE  10.4546  46   11.9188  41   3.7   94    2.8   0     0     988.5    NA       0.0000   9999     0     0     0    
2019/06/04  11:31:00  BASE  10.7898  42   12.889   37   3.8   94    2.9   0     0     988.4    NA       0.0000   -RA      9999  0     0    
2019/06/04  11:32:00  BASE  11.1779  42   12.889   37   3.8   94    2.9   0     0     988.5    NA       0.0000   -RA      9999  6330  0    
2019/06/04  11:33:00  BASE  11.0897  43   12.9772  51   3.8   94    2.9   0     0     988.5    NA       0.0000   -RA      9999  0     0    
2019/06/04  11:34:00  BASE  10.7898  43   13.3123  35   3.9   94    3.0   0     0     988.5    NA       0.0000   -RA      9999  0     0    
2019/06/04  11:35:00  BASE  10.6487  43   13.3123  35   3.9   94    3.0   0     0     988.4    NA       0.0000   -RA      9999  6660  0    
2019/06/04  11:36:00  BASE  10.8839  42   13.7651  33   3.9   94    3.0   0     0     988.4    NA       0.0000   -RA      9999  6660  0    
2019/06/04  11:37:00  BASE  11.025   39   14.4589  31   3.8   95    3.0   0     0     988.4    NA       0.0000   -RA      9999  6690  0    
2019/06/04  11:38:00  BASE  10.631   41   14.4589  31   3.8   95    3.1   0     0     988.4    NA       0.0000   -RA      9999  6690  0    
2019/06/04  11:39:00  BASE  10.337   41   14.4589  31   3.8   95    3.1   0     0     988.4    NA       0.0000   -RA      9999  6690  0    
2019/06/04  11:40:00  BASE  10.8368  40   14.4589  31   3.8   95    3.1   0     0     988.4    NA       0.0000   -RA      9999  6820  0    
2019/06/04  11:41:00  BASE  11.2602  41   14.4589  31   3.8   95    3.1   0     0     988.4    NA       0.0000   -RA      9999  6890  0    
2019/06/04  11:42:00  BASE  10.4723  39   14.4589  31   3.8   95    3.1   0     0     988.5    NA       0.0000   -RA      9999  6790  0    
2019/06/04  11:43:00  BASE  10.2253  37   14.4589  31   3.8   95    3.1   0     0     988.4    NA       0.0000   -RA      9999  6890  0    
2019/06/04  11:44:00  BASE  10.4723  39   14.4589  31   3.8   95    3.1   0     0     988.4    NA       0.0000   -RA      9999  6920  0    
2019/06/04  11:45:00  BASE  10.5546  39   14.4589  31   3.8   95    3.1   0     0     988.4    NA       0.0000   -RA      9999  6960  0    
2019/06/04  11:46:00  BASE  10.684   35   14.4589  31   3.8   96    3.1   0     0     988.4    NA       0.0000   -RA      9999  6820  0    
2019/06/04  11:47:00  BASE  11.1426  36   14.0944  42   3.7   96    3.1   0     0     988.3    NA       0.0000   -RA      9999  6920  0    
2019/06/04  11:48:00  BASE  12.6655  35   16.5757  29   3.7   96    3.2   0     0     988.2    NA       0.0000   -RA      9999  6920  0    
2019/06/04  11:49:00  BASE  13.2241  33   16.5757  29   3.7   96    3.1   0     0     988.2    NA       0.0000   -RA      9999  6860  0    
2019/06/04  11:50:00  BASE  13.0007  35   16.5757  29   3.7   96    3.1   0     0     988.2    NA       0.0000   -RA      9999  6860  0    
2019/06/04  11:51:00  BASE  13.13    34   16.5757  29   3.7   96    3.2   0     0     988.2    NA       0.0000   -RA      9999  6820  0    
2019/06/04  11:52:00  BASE  13.8415  33   17.393   33   3.7   96    3.2   0     0     988.1    NA       0.0000   -RA      9999  6790  0    
2019/06/04  11:53:00  BASE  14.2414  33   17.393   33   3.8   96    3.2   0     0     988.1    NA       0.0000   -RA      9999  6760  0    
2019/06/04  11:54:00  BASE  14.0179  32   17.9399  31   3.8   96    3.2   0     0     988.0    NA       0.0000   -RA      9999  6730  0    
2019/06/04  11:55:00  BASE  14.3237  30   17.9399  31   3.8   96    3.2   0     0     987.9    NA       0.0000   -RA      9999  6690  0    
2019/06/04  11:56:00  BASE  14.6118  31   17.9399  31   3.8   96    3.2   0     0     987.9    NA       0.0000   -RA      9999  6660  0    
2019/06/04  11:57:00  BASE  14.6059  31   17.9399  31   3.7   96    3.2   0     0     987.9    NA       0.0000   -RA      9999  6730  0    
2019/06/04  11:58:00  BASE  15.3703  31   17.9399  31   3.7   96    3.2   0     0     987.8    NA       0.0000   -RA      9999  6790  0    
2019/06/04  11:59:00  BASE  15.6467  32   17.9693  34   3.7   96    3.1   0     0     987.8    NA       0.0000   -RA      9999  6820  0    
2019/06/04  12:00:00  BASE  15.4585  30   17.9693  34   3.7   96    3.1   0     0     987.8    NA       0.0000   -RA      9999  6920  0    
2019/06/04  12:01:00  BASE  16.0759  32   17.9987  37   3.7   96    3.1   0     0     987.7    NA       0.0000   -RA      9999  7050  0    
2019/06/04  12:02:00  BASE  16.7933  34   19.6627  31   3.7   96    3.1   0     0     987.6    NA       0.0000   -RA      9999  7120  0    
2019/06/04  12:03:00  BASE  16.7051  33   20.2684  29   3.7   96    3.1   0     0     987.7    NA       0.0000   -RA      9999  7190  0    
2019/06/04  12:04:00  BASE  17.0285  33   20.2684  29   3.7   96    3.1   0     0     987.6    NA       0.0000   -RA      9999  0     0    
2019/06/04  12:05:00  BASE  16.8403  32   20.2684  29   3.7   96    3.2   0     0     987.7    NA       0.0000   -RA      9999  6960  0    
2019/06/04  12:06:00  BASE  15.7525  31   20.2684  29   3.8   96    3.2   0     0     987.7    NA       0.0000   -RA      9999  6920  0    
2019/06/04  12:07:00  BASE  15.0528  32   20.2684  29   3.8   96    3.2   0     0     987.7    NA       0.0000   -RA      9999  6920  0    
2019/06/04  12:08:00  BASE  14.8117  33   20.2684  29   3.8   96    3.2   0     0     987.7    NA       0.0000   -RA      9999  0     0    
2019/06/04  12:09:00  BASE  15.5173  32   20.2684  29   3.8   96    3.2   0     0     987.6    NA       0.0000   -RA      9999  0     0    
2019/06/04  12:10:00  BASE  16.0936  34   20.2684  29   3.7   96    3.2   0     0     987.7    NA       0.0000   -RA      9999  0     0    
2019/06/04  12:11:00  BASE  15.582   33   20.2684  29   3.7   96    3.1   0     0     987.8    NA       0.0000   -RA      9999  7810  0    
2019/06/04  12:12:00  BASE  14.9999  31   20.2684  29   3.7   96    3.1   0     0     987.8    NA       0.0000   -RA      9999  7870  0    
2019/06/04  12:13:00  BASE  14.9411  33   18.7572  34   3.7   96    3.1   0     0     987.7    NA       0.0000   -RA      9999  0     0    
2019/06/04  12:14:00  BASE  14.7647  35   18.2104  30   3.7   96    3.1   0     0     987.8    NA       0.0000   -RA      9999  0     0    
2019/06/04  12:15:00  BASE  15.7937  33   18.2104  30   3.6   96    3.1   0     0     987.6    NA       0.0000   -RA      9999  0     0    
2019/06/04  12:16:00  BASE  16.5228  31   18.2104  30   3.6   96    3.0   0     0     987.7    NA       0.0000   -RA      9999  0     0    
2019/06/04  12:17:00  BASE  16.3699  30   18.2104  30   3.6   96    3.0   0     0     987.6    NA       0.0000   -RA      9999  0     0    
2019/06/04  12:18:00  BASE  15.8348  31   18.2692  30   3.6   96    3.1   0     0     987.6    NA       0.0000   -RA      9999  0     0    
2019/06/04  12:19:00  BASE  15.0175  33   18.2692  30   3.7   96    3.1   0     0     987.7    NA       0.0000   -RA      9999  0     0    
2019/06/04  12:20:00  BASE  15.5702  32   18.6631  29   3.7   96    3.0   0     0     987.5    NA       0.0000   -RA      9999  8270  0    
2019/06/04  12:21:00  BASE  16.5757  32   18.9983  42   3.7   95    3.0   0     0     987.5    NA       0.0000   -RA      9999  8200  0    
2019/06/04  12:22:00  BASE  15.9583  33   18.9983  42   3.7   95    3.0   0     0     987.6    NA       0.0000   -RA      9999  8140  0    
2019/06/04  12:23:00  BASE  15.1175  34   18.9983  42   3.7   95    2.9   0     0     987.5    NA       0.0000   -RA      9999  8140  0    
2019/06/04  12:24:00  BASE  15.8054  35   18.9983  42   3.6   94    2.8   0     0     987.5    NA       0.0000   -RA      9999  7680  0    
2019/06/04  12:25:00  BASE  15.4938  36   18.9983  42   3.6   94    2.8   0     0     987.5    NA       0.0000   -RA      9999  0     0    
2019/06/04  12:26:00  BASE  14.453   36   18.9983  42   3.6   94    2.7   0     0     987.6    NA       0.0000   -RA      9999  8630  0    
2019/06/04  12:27:00  BASE  13.7357  34   18.9983  42   3.6   94    2.7   0     0     987.6    NA       0.0000   -RA      9999  8560  0    
2019/06/04  12:28:00  BASE  13.524   34   18.9983  42   3.6   94    2.7   0     0     987.6    NA       0.0000   -RA      9999  8530  0    
2019/06/04  12:29:00  BASE  14.065   35   18.9983  42   3.6   94    2.7   0     0     987.6    NA       0.0000   -RA      9999  8560  0    
2019/06/04  12:30:00  BASE  13.9062  34   18.9983  42   3.6   93    2.6   0     0     987.6    NA       0.0000   -RA      9999  8500  0    
2019/06/04  12:31:00  BASE  13.7886  33   17.7282  33   3.6   93    2.6   0     0     987.6    NA       0.0000   -RA      9999  8370  0    
2019/06/04  12:32:00  BASE  14.3354  33   17.7282  33   3.6   93    2.5   0     0     987.5    NA       0.0000   -RA      9999  8400  0    
2019/06/04  12:33:00  BASE  14.0414  34   17.7282  33   3.6   93    2.6   0     0     987.6    NA       0.0000   9999     8370  0     0    
2019/06/04  12:34:00  BASE  14.0473  34   17.7282  33   3.6   93    2.6   0     0     987.5    NA       0.0000   9999     8300  0     0    
2019/06/04  12:35:00  BASE  15.3056  35   18.5455  34   3.6   93    2.6   0     0     987.4    NA       0.0000   9999     8330  0     0    
2019/06/04  12:36:00  BASE  16.2229  35   18.5455  34   3.6   93    2.6   0     0     987.4    NA       0.0000   9999     9020  0     0    
2019/06/04  12:37:00  BASE  15.8819  35   18.5455  34   3.6   93    2.6   0     0     987.5    NA       0.0000   9999     8830  0     0    
2019/06/04  12:38:00  BASE  15.8642  37   18.7219  39   3.7   93    2.6   0     0     987.4    NA       0.0000   9999     8460  0     0    
2019/06/04  12:39:00  BASE  16.0524  36   18.7219  39   3.7   93    2.6   0     0     987.4    NA       0.0000   9999     8400  0     0    
2019/06/04  12:40:00  BASE  15.7878  33   18.7219  39   3.7   92    2.6   0     0     987.4    NA       0.0000   9999     8300  0     0    
2019/06/04  12:41:00  BASE  15.8172  33   18.7219  39   3.7   92    2.5   0     0     987.5    NA       0.0000   9999     7970  0     0    
2019/06/04  12:42:00  BASE  15.8525  33   18.7219  39   3.7   92    2.5   0     0     987.5    NA       0.0000   9999     7710  0     0    
2019/06/04  12:43:00  BASE  15.7525  32   18.7219  39   3.7   91    2.5   0     0     987.5    NA       0.0000   9999     7420  0     0    
2019/06/04  12:44:00  BASE  15.5585  29   18.7219  39   3.7   91    2.4   0     0     987.5    NA       0.0000   9999     6920  0     0    
2019/06/04  12:45:00  BASE  16.317   31   18.7572  33   3.8   91    2.4   0     0     987.4    NA       0.0000   9999     0     0     0    
2019/06/04  12:46:00  BASE  16.4816  32   18.7572  33   3.8   91    2.4   0     0     987.5    NA       0.0000   9999     0     0     0    
2019/06/04  12:47:00  BASE  16.4934  31   19.21    32   3.7   91    2.4   0     0     987.5    NA       0.0000   9999     0     0     0    
2019/06/04  12:48:00  BASE  16.6228  32   19.21    32   3.7   91    2.4   0     0     987.5    NA       0.0000   9999     7350  0     0    
2019/06/04  12:49:00  BASE  16.5581  32   19.21    32   3.7   91    2.4   0     0     987.5    NA       0.0000   9999     7580  0     0    
2019/06/04  12:50:00  BASE  16.364   31   19.21    32   3.7   91    2.4   0     0     987.6    NA       0.0000   9999     0     0     0    
2019/06/04  12:51:00  BASE  16.5463  31   19.21    32   3.7   92    2.5   0     0     987.5    NA       0.0000   9999     0     0     0    
2019/06/04  12:52:00  BASE  16.7874  31   19.21    32   3.7   92    2.5   0     0     987.6    NA       0.0000   9999     0     0     0    
2019/06/04  12:53:00  BASE  16.07    31   19.21    32   3.7   92    2.5   0     0     987.6    NA       0.0000   9999     0     0     0    
2019/06/04  12:54:00  BASE  16.1406  31   19.21    32   3.7   92    2.6   0     0     987.5    NA       0.0000   9999     0     0     0    
2019/06/04  12:55:00  BASE  16.2876  31   19.21    32   3.7   92    2.6   0     0     987.6    NA       0.0000   9999     0     0     0    
2019/06/04  12:56:00  BASE  15.5173  34   19.21    32   3.8   92    2.6   0     0     987.6    NA       0.0000   9999     0     0     0    
2019/06/04  12:57:00  BASE  15.5467  34   19.1453  35   3.7   92    2.6   0     0     987.6    NA       0.0000   9999     5410  0     0    
2019/06/04  12:58:00  BASE  15.6937  34   19.1453  35   3.7   92    2.6   0     0     987.7    NA       0.0000   9999     5350  0     0    
2019/06/04  12:59:00  BASE  14.9705  34   19.1453  35   3.7   92    2.6   0     0     987.7    NA       0.0000   9999     5510  0     0    
2019/06/04  13:00:00  BASE  14.9646  33   19.1453  35   3.7   92    2.6   0     0     987.7    NA       0.0000   9999     0     0     0    
2019/06/04  13:01:00  BASE  15.6232  33   18.8454  28   3.7   92    2.6   0     0     987.6    NA       0.0000   9999     0     0     0    
2019/06/04  13:02:00  BASE  15.1175  35   18.3926  25   3.7   93    2.6   0     0     987.8    NA       0.0000   9999     0     0     0    
2019/06/04  13:03:00  BASE  14.1414  36   18.3926  25   3.7   93    2.6   0     0     987.7    NA       0.0000   9999     0     0     0    
2019/06/04  13:04:00  BASE  13.8592  35   18.2986  29   3.7   93    2.6   0     0     987.8    NA       0.0000   9999     5220  0     0    
2019/06/04  13:05:00  BASE  14.1238  33   17.9399  31   3.7   93    2.6   0     0     987.8    NA       0.0000   9999     7450  0     0    
2019/06/04  13:06:00  BASE  14.6765  31   17.9399  31   3.7   93    2.6   0     0     987.8    NA       0.0000   9999     7450  0     0    
2019/06/04  13:07:00  BASE  15.4879  32   17.8164  32   3.7   93    2.6   0     0     987.7    NA       0.0000   9999     7480  0     0    
2019/06/04  13:08:00  BASE  16.217   34   17.8164  32   3.7   93    2.6   0     0     987.7    NA       0.0000   9999     7450  0     0    
2019/06/04  13:09:00  BASE  15.8819  33   17.8164  32   3.7   93    2.7   0     0     987.8    NA       0.0000   9999     7420  0     0    
2019/06/04  13:10:00  BASE  15.2116  31   17.8164  32   3.8   93    2.7   0     0     987.8    NA       0.0000   9999     7450  0     0    
2019/06/04  13:11:00  BASE  14.8058  32   17.7576  33   3.8   93    2.8   0     0     987.8    NA       0.0000   9999     7510  0     0    
2019/06/04  13:12:00  BASE  13.671   34   17.7576  33   3.8   93    2.8   0     0     987.9    NA       0.0000   9999     7550  0     0    
2019/06/04  13:13:00  BASE  13.0124  37   17.7576  33   3.8   93    2.7   0     0     987.9    NA       0.0000   9999     7550  0     0    
2019/06/04  13:14:00  BASE  12.8419  36   17.7576  33   3.8   93    2.7   0     0     987.9    NA       0.0000   9999     5220  0     0    
2019/06/04  13:15:00  BASE  12.7126  34   17.7576  33   3.7   93    2.7   0     0     988.0    NA       0.0000   9999     5220  0     0    
2019/06/04  13:16:00  BASE  14.1414  32   17.7576  33   3.7   93    2.7   0     0     987.8    NA       0.0000   9999     5280  0     0    
2019/06/04  13:17:00  BASE  14.7588  33   17.7576  33   3.7   93    2.6   0     0     987.9    NA       0.0000   9999     5180  0     0    
2019/06/04  13:18:00  BASE  14.6471  35   17.7576  33   3.8   93    2.7   0     0     987.9    NA       0.0000   9999     5150  6100  0    
2019/06/04  13:19:00  BASE  14.5706  35   17.1226  31   3.8   92    2.7   0     0     987.9    NA       0.0000   9999     5220  6100  0    
2019/06/04  13:20:00  BASE  13.4887  34   17.1226  31   3.8   92    2.7   0     0     988.0    NA       0.0000   9999     5280  6070  0    
2019/06/04  13:21:00  BASE  13.8533  35   17.6635  32   3.8   92    2.6   0     0     987.9    NA       0.0000   9999     5220  6070  0    
2019/06/04  13:22:00  BASE  15.0469  34   18.4514  35   3.8   92    2.7   0     0     987.8    NA       0.0000   9999     6070  0     0    
2019/06/04  13:23:00  BASE  14.2472  35   18.4514  35   3.9   92    2.7   0     0     988.0    NA       0.0000   9999     6100  0     0    
2019/06/04  13:24:00  BASE  13.5005  37   18.4514  35   3.9   92    2.6   0     0     987.9    NA       0.0000   9999     6100  0     0    
2019/06/04  13:25:00  BASE  14.3002  38   18.4514  35   3.9   91    2.6   1     0     987.8    NA       0.0000   9999     6170  0     0    
2019/06/04  13:26:00  BASE  15.1234  40   18.4514  35   3.9   91    2.6   1     0     987.7    NA       0.0000   9999     6140  0     0    
2019/06/04  13:27:00  BASE  15.1645  38   18.4514  35   3.9   91    2.5   1     0     987.8    NA       0.0000   9999     6140  0     0    
2019/06/04  13:28:00  BASE  14.5765  39   18.4514  35   3.9   91    2.5   1     0     987.8    NA       0.0000   9999     6140  0     0    
2019/06/04  13:29:00  BASE  13.9944  40   18.4514  35   3.9   90    2.5   1     0     987.8    NA       0.0000   9999     6170  0     0    
2019/06/04  13:30:00  BASE  14.5412  38   18.4514  35   3.9   90    2.4   1     0     987.8    NA       0.0000   9999     6070  0     0    
2019/06/04  13:31:00  BASE  14.4942  36   18.4514  35   3.9   90    2.4   1     0     987.9    NA       0.0000   9999     6070  0     0    
2019/06/04  13:32:00  BASE  14.5765  35   18.2104  32   3.9   89    2.3   1     0     987.8    NA       0.0000   9999     5090  0     0    
2019/06/04  13:33:00  BASE  14.8411  36   18.2104  32   3.9   89    2.3   1     0     987.9    NA       0.0000   9999     6100  0     0    
2019/06/04  13:34:00  BASE  14.6236  36   18.2104  32   3.9   89    2.2   1     0     987.9    NA       0.0000   9999     4590  0     0    
2019/06/04  13:35:00  BASE  15.2586  34   18.2104  32   3.9   89    2.2   1     0     987.9    NA       0.0000   9999     4560  0     0    
2019/06/04  13:36:00  BASE  15.7937  33   18.1222  35   3.9   89    2.2   1     0     987.8    NA       0.0000   9999     4660  0     0    
2019/06/04  13:37:00  BASE  15.9348  31   18.1222  35   3.9   89    2.2   1     0     987.8    NA       0.0000   9999     4720  6040  0    
2019/06/04  13:38:00  BASE  16.0465  33   18.1222  35   4.0   88    2.2   1     0     987.8    NA       0.0000   9999     4630  6040  0    
2019/06/04  13:39:00  BASE  16.0289  32   18.1516  32   4.0   88    2.2   1     0     987.8    NA       0.0000   9999     4590  0     0    
2019/06/04  13:40:00  BASE  15.6114  29   18.1516  32   4.0   88    2.2   1     0     987.8    NA       0.0000   9999     4330  0     0    
2019/06/04  13:41:00  BASE  15.5173  27   18.6631  33   4.1   87    2.1   1     0     987.8    NA       0.0000   9999     4270  5940  0    
2019/06/04  13:42:01  BASE  15.5173  29   18.6631  33   4.1   87    2.1   1     0     987.8    NA       0.0000   9999     4270  5970  0    
2019/06/04  13:43:00  BASE  15.1645  29   18.6631  33   4.1   87    2.1   1     0     987.9    NA       0.0000   9999     4100  5970  0    
2019/06/04  13:44:01  BASE  14.7588  28   18.6631  33   4.1   87    2.0   1     0     987.9    NA       0.0000   9999     4100  5970  0    
2019/06/04  13:45:00  BASE  14.7118  29   18.6631  33   4.0   87    2.0   1     0     987.9    NA       0.0000   9999     4070  6040  0    
2019/06/04  13:46:01  BASE  14.4824  26   18.6631  33   4.0   87    2.0   1     0     988.0    NA       0.0000   9999     5940  0     0    
2019/06/04  13:47:00  BASE  14.3002  25   18.6631  33   4.0   87    2.1   1     0     988.0    NA       0.0000   9999     5940  0     0    
2019/06/04  13:48:01  BASE  15.1351  26   18.6631  33   4.0   87    2.1   1     0     987.9    NA       0.0000   9999     5910  0     0    
2019/06/04  13:49:00  BASE  15.876   22   18.6631  33   4.0   88    2.1   1     0     988.0    NA       0.0000   9999     5840  0     0    
2019/06/04  13:50:01  BASE  16.5228  21   18.6631  33   4.0   88    2.2   1     0     987.9    NA       0.0000   9999     5810  0     0    
2019/06/04  13:51:00  BASE  17.0814  20   17.9987  20   3.9   89    2.2   1     0     987.9    NA       0.0000   9999     5740  0     0    
2019/06/04  13:52:01  BASE  17.2049  19   18.3926  20   3.9   89    2.3   1     0     988.0    NA       0.0000   9999     5710  0     0    
2019/06/04  13:53:00  BASE  18.0163  20   19.7215  16   3.8   90    2.3   1     0     987.8    NA       0.0000   9999     5770  0     0    
2019/06/04  13:54:01  BASE  17.9575  21   19.7215  16   3.7   90    2.3   1     0     988.0    NA       0.0000   9999     5810  0     0    
2019/06/04  13:55:00  BASE  17.64    21   20.1155  21   3.7   91    2.3   1     0     987.9    NA       0.0000   9999     5840  0     0    
2019/06/04  13:56:01  BASE  18.4044  21   20.1155  21   3.6   92    2.4   1     0     987.8    NA       0.0000   9999     5870  0     0    
2019/06/04  13:57:00  BASE  18.1457  21   20.1155  21   3.6   92    2.4   1     0     987.9    NA       0.0000   9999     5840  0     0    
2019/06/04  13:58:00  BASE  17.6341  22   20.1155  21   3.5   93    2.4   1     0     987.9    NA       0.0000   9999     5740  0     0    
2019/06/04  13:59:00  BASE  17.446   24   20.1155  21   3.5   93    2.5   1     0     988.0    NA       0.0000   9999     5710  0     0    
2019/06/04  14:00:00  BASE  16.4228  24   20.1155  21   3.4   93    2.5   1     0     988.0    NA       0.0000   9999     5680  0     0    
2019/06/04  14:01:00  BASE  15.9524  25   20.1155  21   3.4   94    2.5   1     0     988.1    NA       0.0000   9999     5380  0     0    
2019/06/04  14:02:00  BASE  15.8231  25   20.1155  21   3.4   94    2.5   2     0     988.1    NA       0.0000   9999     5810  0     0    
2019/06/04  14:03:00  BASE  15.2174  24   20.1155  21   3.3   94    2.5   2     0     988.1    NA       0.0000   9999     5640  0     0    
2019/06/04  14:04:01  BASE  15.5173  24   20.1155  21   3.3   95    2.5   2     0     988.1    NA       0.0000   9999     4920  0     0    
2019/06/04  14:05:00  BASE  15.4409  24   19.451   18   3.3   95    2.6   2     0     988.2    NA       0.0000   9999     4630  0     0    
2019/06/04  14:06:00  BASE  14.8764  24   19.3922  24   3.3   95    2.6   3     0     988.2    NA       0.0000   9999     4200  0     0    
2019/06/04  14:07:00  BASE  14.3884  25   19.3922  24   3.3   96    2.6   3     0     988.2    NA       0.0000   9999     4100  0     0    
2019/06/04  14:08:00  BASE  14.7353  27   19.3922  24   3.3   96    2.7   3     0     988.1    NA       0.0000   9999     4170  0     0    
2019/06/04  14:09:00  BASE  14.8588  28   18.4808  23   3.3   96    2.7   3     0     988.1    NA       0.0000   9999     4490  0     0    
2019/06/04  14:10:01  BASE  14.9764  27   18.4808  23   3.2   96    2.7   4     0     988.1    NA       0.0000   9999     4720  0     0    
2019/06/04  14:11:01  BASE  15.2233  27   17.6341  20   3.2   96    2.7   4     0     988.1    NA       0.0000   9999     4630  0     0    
2019/06/04  14:12:01  BASE  15.3174  27   18.1222  31   3.2   97    2.8   4     0     988.1    NA       0.0000   9999     4720  0     0    
2019/06/04  14:13:00  BASE  15.9407  29   18.7866  24   3.3   97    2.8   4     0     988.0    NA       0.0000   9999     5250  0     0    
2019/06/04  14:14:01  BASE  16.0877  28   18.7866  24   3.3   97    2.9   4     0     988.0    NA       0.0000   9999     5740  0     0    
2019/06/04  14:15:00  BASE  15.5996  27   18.7866  24   3.3   97    2.9   4     0     988.0    NA       0.0000   9999     6000  0     0    
2019/06/04  14:16:00  BASE  15.4644  29   18.7866  24   3.4   97    2.9   5     0     988.0    NA       0.0000   9999     6070  0     0    
2019/06/04  14:17:00  BASE  16.0171  29   18.7866  24   3.4   97    2.9   5     0     988.0    NA       0.0000   9999     6270  0     0    
2019/06/04  14:18:00  BASE  15.9818  27   18.7866  24   3.4   97    2.9   4     0     988.0    NA       0.0000   9999     5970  0     0    
2019/06/04  14:19:00  BASE  15.6996  30   18.7866  24   3.4   96    2.9   4     0     988.0    NA       0.0000   9999     6270  0     0    
2019/06/04  14:20:01  BASE  15.2939  31   18.7866  24   3.5   96    2.9   4     0     988.0    NA       0.0000   9999     6100  0     0    
2019/06/04  14:21:00  BASE  15.6467  31   18.7866  24   3.5   96    2.9   4     0     987.9    NA       0.0000   9999     5970  0     0    
2019/06/04  14:22:00  BASE  15.5761  31   18.7866  24   3.5   96    2.9   4     0     988.0    NA       0.0000   9999     6140  0     0    
2019/06/04  14:23:00  BASE  15.0528  32   18.3338  28   3.5   95    2.9   4     0     988.0    NA       0.0000   9999     6170  0     0    
2019/06/04  14:24:00  BASE  15.7819  34   18.3338  28   3.6   95    2.8   4     0     987.9    NA       0.0000   9999     6170  0     0    
2019/06/04  14:25:00  BASE  15.1469  36   18.3338  28   3.6   95    2.8   4     0     988.0    NA       0.0000   9999     6170  0     0    
2019/06/04  14:26:00  BASE  14.1884  34   18.3338  28   3.6   94    2.8   5     0     987.9    NA       0.0000   9999     6170  0     0    
2019/06/04  14:27:00  BASE  14.2649  33   18.3338  28   3.6   94    2.8   5     0     987.9    NA       0.0000   9999     6200  0     0    
2019/06/04  14:28:00  BASE  14.8764  36   18.1516  27   3.7   94    2.7   5     0     987.8    NA       0.0000   9999     6270  0     0    
2019/06/04  14:29:00  BASE  15.629   38   18.1516  27   3.7   93    2.7   5     0     987.8    NA       0.0000   9999     6230  0     0    
2019/06/04  14:30:00  BASE  16.17    38   18.3926  33   3.7   93    2.7   5     0     987.7    NA       0.0000   9999     6400  0     0    
2019/06/04  14:31:00  BASE  15.2586  37   18.3926  33   3.7   93    2.7   5     0     987.8    NA       0.0000   9999     6430  0     0    
2019/06/04  14:32:00  BASE  13.8592  37   18.3926  33   3.8   93    2.7   5     0     987.9    NA       0.0000   9999     6460  0     0    
2019/06/04  14:33:00  BASE  14.3354  36   18.3926  33   3.8   92    2.7   5     0     987.8    NA       0.0000   9999     5940  0     0    
2019/06/04  14:34:00  BASE  14.4648  34   18.3926  33   3.8   92    2.6   5     0     987.8    NA       0.0000   9999     5680  0     0    
2019/06/04  14:35:00  BASE  14.4883  34   18.3926  33   3.8   92    2.6   6     0     987.8    NA       0.0000   9999     6330  0     0    
2019/06/04  14:36:00  BASE  15.5879  35   18.3926  33   3.9   91    2.6   6     0     987.7    NA       0.0000   9999     6330  0     0    
2019/06/04  14:37:00  BASE  16.3052  36   18.3926  33   3.9   91    2.6   6     0     987.7    NA       0.0000   9999     6300  0     0    
2019/06/04  14:38:00  BASE  15.9583  35   18.3926  33   4.0   91    2.6   6     0     987.7    NA       0.0000   9999     6300  0     0    
2019/06/04  14:39:00  BASE  15.5644  34   18.3926  33   4.0   91    2.6   6     0     987.8    NA       0.0000   9999     6100  0     0    
2019/06/04  14:40:00  BASE  15.241   34   17.8458  36   4.1   90    2.6   6     0     987.8    NA       0.0000   9999     6070  0     0    
2019/06/04  14:41:00  BASE  15.4409  35   17.8458  36   4.1   90    2.6   6     0     987.8    NA       0.0000   9999     6000  0     0    
2019/06/04  14:42:00  BASE  16.0112  34   17.8458  36   4.1   90    2.5   6     0     987.8    NA       0.0000   9999     6000  0     0    
2019/06/04  14:43:00  BASE  16.217   33   17.8752  32   4.1   89    2.5   6     0     987.7    NA       0.0000   9999     6000  0     0    
2019/06/04  14:44:00  BASE  16.0171  31   17.8752  32   4.1   89    2.4   7     0     987.8    NA       0.0000   9999     5970  0     0    
2019/06/04  14:45:00  BASE  15.9407  32   17.8752  32   4.1   89    2.4   7     0     987.8    NA       0.0000   9999     5970  0     0    
2019/06/04  14:46:00  BASE  15.2116  35   17.8752  32   4.1   88    2.4   7     0     987.9    NA       0.0000   9999     5970  0     0    
2019/06/04  14:47:00  BASE  14.6294  36   17.8752  32   4.2   88    2.4   8     0     987.9    NA       0.0000   9999     5970  0     0    
2019/06/04  14:48:00  BASE  14.3237  37   17.8752  32   4.2   88    2.4   8     0     987.9    NA       0.0000   9999     5940  0     0    
2019/06/04  14:49:00  BASE  13.9474  38   17.8752  32   4.2   88    2.4   8     0     987.9    NA       0.0000   9999     6000  0     0    
2019/06/04  14:50:00  BASE  14.0826  36   17.8752  32   4.2   88    2.3   8     0     987.9    NA       0.0000   9999     6040  0     0    
2019/06/04  14:51:00  BASE  14.1767  35   17.8752  32   4.2   87    2.3   9     0     988.0    NA       0.0000   9999     5810  0     0    
2019/06/04  14:52:00  BASE  14.4648  33   17.8752  32   4.3   87    2.3   9     0     988.0    NA       0.0000   9999     5810  0     0    
2019/06/04  14:53:00  BASE  14.0297  32   17.6635  26   4.3   87    2.3   9     0     988.1    NA       0.0000   9999     5770  0     0    
2019/06/04  14:54:00  BASE  12.9713  31   17.5459  32   4.3   87    2.4   8     0     987.9    NA       0.0000   9999     4760  5680  0    
2019/06/04  14:55:00  BASE  12.2951  33   17.5459  32   4.3   87    2.4   8     0     988.0    NA       0.0000   9999     4760  0     0    
2019/06/04  14:56:00  BASE  11.9952  33   17.5459  32   4.4   87    2.4   8     0     988.2    NA       0.0000   9999     4760  5180  0    
2019/06/04  14:57:00  BASE  12.9184  31   16.2112  40   4.4   87    2.3   8     0     988.1    NA       0.0000   9999     4760  0     0    
2019/06/04  14:58:00  BASE  13.23    31   16.2112  40   4.4   86    2.3   8     0     988.2    NA       0.0000   9999     4790  5640  0    
2019/06/04  14:59:00  BASE  12.3068  32   16.0348  39   4.4   86    2.3   9     0     988.2    NA       0.0000   9999     4460  0     0    
2019/06/04  15:00:00  BASE  12.6067  34   16.0348  39   4.4   86    2.3   9     0     988.1    NA       0.0000   9999     4460  0     0    
2019/06/04  15:01:00  BASE  12.0187  33   15.8819  32   4.4   86    2.2   9     0     988.2    NA       0.0000   9999     4360  0     0    
2019/06/04  15:02:00  BASE  10.8427  31   15.4585  32   4.4   86    2.2   9     0     988.2    NA       0.0000   9999     4360  0     0    
2019/06/04  15:03:00  BASE  11.2955  30   15.4585  32   4.4   86    2.2   9     0     988.2    NA       0.0000   9999     4330  0     0    
2019/06/04  15:04:00  BASE  11.9305  33   15.4585  32   4.4   86    2.2   9     0     988.1    NA       0.0000   9999     4330  0     0    
2019/06/04  15:05:00  BASE  11.4248  36   15.4585  32   4.4   86    2.2   9     0     988.2    NA       0.0000   9999     4300  0     0    
2019/06/04  15:06:00  BASE  10.8016  33   15.4585  32   4.4   86    2.2   9     0     988.3    NA       0.0000   9999     4300  0     0    
2019/06/04  15:07:00  BASE  11.0309  31   15.2762  27   4.4   86    2.2   9     0     988.2    NA       0.0000   9999     4300  0     0    
2019/06/04  15:08:00  BASE  11.1838  29   14.7294  39   4.4   86    2.2   8     0     988.2    NA       0.0000   9999     4300  0     0    
2019/06/04  15:09:00  BASE  11.6365  29   14.7294  39   4.4   86    2.2   8     0     988.2    NA       0.0000   9999     4230  0     0    
2019/06/04  15:10:00  BASE  11.6189  28   14.1884  35   4.4   86    2.2   8     0     988.3    NA       0.0000   9999     4270  0     0    
2019/06/04  15:11:00  BASE  11.4954  26   14.1884  35   4.4   86    2.2   7     0     988.2    NA       0.0000   9999     4200  0     0    
2019/06/04  15:12:00  BASE  12.0716  26   14.1884  35   4.4   86    2.2   7     0     988.2    NA       0.0000   9999     4100  0     0    
2019/06/04  15:13:00  BASE  12.154   25   14.1884  35   4.4   85    2.1   8     0     988.3    NA       0.0000   9999     4070  0     0    
2019/06/04  15:14:00  BASE  12.0952  23   13.8827  26   4.4   85    2.1   8     0     988.4    NA       0.0000   9999     3970  0     0    
2019/06/04  15:15:00  BASE  12.5773  23   14.1884  23   4.3   85    2.1   8     0     988.4    NA       0.0000   9999     3770  0     0    
2019/06/04  15:16:00  BASE  13.1477  23   14.306   15   4.4   86    2.2   8     0     988.4    NA       0.0000   9999     3770  0     0    
2019/06/04  15:17:00  BASE  13.1594  22   14.306   15   4.4   86    2.2   8     0     988.5    NA       0.0000   9999     3670  0     0    
2019/06/04  15:18:00  BASE  13.5887  21   15.5467  20   4.4   86    2.2   8     0     988.4    NA       0.0000   9999     3640  0     0    
2019/06/04  15:19:00  BASE  13.7239  20   15.5467  20   4.4   86    2.2   8     0     988.4    NA       0.0000   9999     3580  0     0    
2019/06/04  15:20:00  BASE  13.4828  19   15.5467  20   4.3   86    2.2   8     0     988.3    NA       0.0000   9999     3770  0     0    
2019/06/04  15:21:00  BASE  13.5593  19   15.5467  20   4.3   86    2.2   7     0     988.3    NA       0.0000   9999     3640  0     0    
2019/06/04  15:22:00  BASE  13.8768  20   15.5467  20   4.3   86    2.2   7     0     988.3    NA       0.0000   9999     3120  0     0    
2019/06/04  15:23:00  BASE  14.4942  21   15.6702  23   4.2   87    2.2   7     0     988.3    NA       0.0000   9999     3050  0     0    
2019/06/04  15:24:00  BASE  14.6706  22   15.6702  23   4.2   87    2.2   7     0     988.3    NA       0.0000   9999     3080  0     0    
2019/06/04  15:25:00  BASE  14.0944  22   15.6702  23   4.2   88    2.3   8     0     988.3    NA       0.0000   9999     3150  0     0    
2019/06/04  15:26:00  BASE  13.965   23   15.6702  23   4.2   88    2.3   9     0     988.3    NA       0.0000   9999     3380  0     0    
2019/06/04  15:27:00  BASE  13.9238  25   15.6702  23   4.1   88    2.4   9     0     988.4    NA       0.0000   9999     3250  4230  0    
2019/06/04  15:28:00  BASE  13.4828  24   15.6702  23   4.1   89    2.4   10    0     988.3    NA       0.0000   9999     4000  0     0    
2019/06/04  15:29:00  BASE  13.3182  24   15.6702  23   4.0   89    2.4   10    0     988.3    NA       0.0000   9999     4130  0     0    
2019/06/04  15:30:00  BASE  13.0242  22   15.6702  23   4.0   89    2.4   10    0     988.3    NA       0.0000   9999     3970  0     0    
2019/06/04  15:31:00  BASE  13.7298  20   15.6702  23   3.9   90    2.4   10    0     988.3    NA       0.0000   9999     4100  0     0    
2019/06/04  15:32:00  BASE  14.6824  20   16.3346  21   3.8   90    2.4   10    0     988.3    NA       0.0000   9999     3870  0     0    
2019/06/04  15:33:00  BASE  15.0293  20   16.3346  21   3.8   91    2.4   10    0     988.3    NA       0.0000   9999     3870  0     0    
2019/06/04  15:34:00  BASE  15.3821  19   16.9403  22   3.7   91    2.4   9     0     988.3    NA       0.0000   9999     3310  4230  0    
2019/06/04  15:35:00  BASE  13.8944  23   16.9403  22   3.7   92    2.4   9     0     988.6    NA       0.0000   9999     3350  4200  0    
2019/06/04  15:36:00  BASE  13.4299  21   16.9403  22   3.6   92    2.5   9     0     988.3    NA       0.0000   9999     3350  3940  0    
2019/06/04  15:37:00  BASE  15.1057  20   17.6635  26   3.6   92    2.5   9     0     988.3    NA       0.0000   9999     3510  0     0    
2019/06/04  15:38:00  BASE  14.0238  23   17.6635  26   3.6   93    2.5   8     0     988.5    NA       0.0000   9999     3740  0     0    
2019/06/04  15:39:00  BASE  13.0771  20   17.6635  26   3.5   93    2.4   8     0     988.4    NA       0.0000   9999     3770  0     0    
2019/06/04  15:40:00  BASE  15.1645  18   17.8164  25   3.4   93    2.4   8     0     988.2    NA       0.0000   9999     3740  0     0    
2019/06/04  15:41:00  BASE  16.8403  20   18.6925  21   3.4   93    2.4   8     0     988.3    NA       0.0000   9999     3610  0     0    
2019/06/04  15:42:00  BASE  15.2762  24   18.6925  21   3.3   93    2.4   8     0     988.7    NA       0.0000   9999     3840  0     0    
2019/06/04  15:43:00  BASE  14.0297  24   18.6925  21   3.3   93    2.3   8     0     988.6    NA       0.0000   9999     3840  0     0    
2019/06/04  15:44:00  BASE  16.1524  22   19.6039  22   3.2   94    2.3   8     0     988.3    NA       0.0000   9999     3940  0     0    
2019/06/04  15:45:00  BASE  17.0226  22   19.6039  22   3.1   94    2.2   9     0     988.4    NA       0.0000   9999     3810  0     0    
2019/06/04  15:46:00  BASE  15.2292  26   19.6039  22   3.1   94    2.2   10    0     988.5    NA       0.0000   9999     3770  0     0    
2019/06/04  15:47:00  BASE  15.0704  26   19.6039  22   3.0   94    2.1   11    0     988.3    NA       0.0000   9999     4100  0     0    
2019/06/04  15:48:00  BASE  17.6635  23   20.5976  24   3.0   94    2.1   12    0     987.9    NA       0.0000   9999     4400  0     0    
2019/06/04  15:49:00  BASE  18.963   23   21.2033  25   3.0   94    2.1   14    0     987.9    NA       0.0000   9999     4400  0     0    
2019/06/04  15:50:00  BASE  17.8399  25   21.2033  25   3.0   94    2.1   15    0     988.0    NA       0.0000   9999     3770  0     0    
2019/06/04  15:51:00  BASE  16.5581  26   21.2033  25   3.0   94    2.1   17    0     987.9    NA       0.0000   9999     2460  0     0    
2019/06/04  15:52:00  BASE  17.1872  26   21.2033  25   3.0   94    2.1   19    0     987.7    NA       0.0000   UP       9999  2530  3670 
2019/06/04  15:53:00  BASE  18.7631  25   21.3856  29   3.0   94    2.1   20    0     987.5    NA       0.0000   UP       9999  660   3080 
2019/06/04  15:54:00  BASE  18.4985  25   21.3856  29   3.0   94    2.2   21    0     987.5    NA       0.0000   UP       9999  690   0    
2019/06/04  15:55:00  BASE  18.716   26   21.3856  29   3.0   95    2.2   22    0     987.4    NA       0.0000   UP       9999  2400  0    
2019/06/04  15:56:00  BASE  19.0982  28   21.3856  29   3.0   95    2.3   23    0     987.4    NA       0.0000   UP       9999  3220  0    
2019/06/04  15:57:00  BASE  18.3809  30   21.3856  29   3.0   95    2.3   23    0     987.2    NA       0.0000   UP       9999  6790  0    
2019/06/04  15:58:00  BASE  18.0398  31   21.3856  29   3.1   95    2.4   23    0     987.0    NA       0.0000   UP       9999  6660  0    
2019/06/04  15:59:00  BASE  18.2986  31   21.5384  32   3.1   95    2.4   23    0     987.3    NA       0.0000   UP       9999  0     0    
2019/06/04  16:00:00  BASE  17.8634  30   21.5384  32   3.2   95    2.4   23    0     987.6    NA       0.0000   UP       9999  0     0    
2019/06/04  16:01:00  BASE  16.3229  31   21.5384  32   3.2   94    2.4   23    0     987.8    NA       0.0000   9999     980   0     0    
2019/06/04  16:02:00  BASE  16.6286  30   21.5384  32   3.2   94    2.4   23    0     987.4    NA       0.0000   9999     6040  0     0    
2019/06/04  16:03:00  BASE  17.9693  28   21.5384  32   3.2   94    2.4   23    0     987.4    NA       0.0000   9999     5610  0     0    
2019/06/04  16:04:00  BASE  18.1574  29   21.5384  32   3.3   94    2.4   22    0     987.6    NA       0.0000   9999     5540  0     0    
2019/06/04  16:05:00  BASE  17.7694  30   21.5384  32   3.3   94    2.4   22    0     987.8    NA       0.0000   9999     5810  0     0    
2019/06/04  16:06:00  BASE  17.2343  29   21.5384  32   3.3   94    2.4   21    0     987.9    NA       0.0000   9999     5810  6460  0    
2019/06/04  16:07:00  BASE  17.099   29   21.5384  32   3.4   94    2.5   21    0     987.9    NA       0.0000   9999     5770  0     0    
2019/06/04  16:08:00  BASE  17.0638  29   21.5384  32   3.4   93    2.5   21    0     988.0    NA       0.0000   9999     5910  0     0    
2019/06/04  16:09:00  BASE  16.6345  29   20.2037  33   3.4   93    2.4   21    0     988.0    NA       0.0000   9999     5940  0     0    
2019/06/04  16:10:00  BASE  16.5169  29   20.2037  33   3.5   93    2.4   22    0     988.0    NA       0.0000   9999     6330  0     0    
2019/06/04  16:11:00  BASE  16.5463  29   20.2037  33   3.5   92    2.4   22    0     987.9    NA       0.0000   9999     5050  6500  0    
2019/06/04  16:12:00  BASE  16.6992  30   20.2037  33   3.5   92    2.3   21    0     987.9    NA       0.0000   9999     5020  0     0    
2019/06/04  16:13:00  BASE  16.2053  31   19.5098  26   3.5   92    2.3   21    0     988.0    NA       0.0000   9999     4790  0     0    
2019/06/04  16:14:00  BASE  15.5938  31   19.5098  26   3.6   92    2.3   21    0     987.9    NA       0.0000   9999     4890  0     0    
2019/06/04  16:15:00  BASE  15.6232  31   19.2394  32   3.6   91    2.3   21    0     988.0    NA       0.0000   9999     4920  0     0    
2019/06/04  16:16:00  BASE  15.8407  31   18.9689  33   3.7   91    2.3   22    0     988.0    NA       0.0000   9999     4920  0     0    
2019/06/04  16:17:00  BASE  15.682   30   18.6043  32   3.7   90    2.3   22    0     988.1    NA       0.0000   9999     5020  0     0    
2019/06/04  16:18:00  BASE  15.4703  30   18.6043  32   3.8   90    2.3   24    0     988.1    NA       0.0000   9999     5020  5770  0    
2019/06/04  16:19:00  BASE  15.435   30   18.6043  32   3.9   90    2.3   26    0     988.1    NA       0.0000   9999     5320  5810  0    
2019/06/04  16:20:00  BASE  14.947   30   18.6043  32   3.9   89    2.3   27    0     988.2    NA       0.0000   9999     5910  0     0    
2019/06/04  16:21:00  BASE  14.2178  32   18.6043  32   4.0   89    2.3   29    0     988.2    NA       0.0000   9999     5710  0     0    
2019/06/04  16:22:01  BASE  13.7768  33   18.0869  25   4.0   88    2.3   29    0     988.2    NA       0.0000   9999     5870  0     0    
2019/06/04  16:23:00  BASE  13.5534  36   17.5459  36   4.1   88    2.3   28    0     988.2    NA       0.0000   9999     5840  0     0    
2019/06/04  16:24:00  BASE  13.1771  37   17.5459  36   4.1   88    2.3   26    0     988.2    NA       0.0000   9999     5940  0     0    
2019/06/04  16:25:00  BASE  12.301   39   17.5459  36   4.2   87    2.3   25    0     988.3    NA       0.0000   9999     5970  0     0    
2019/06/04  16:26:00  BASE  12.2069  39   17.5459  36   4.2   87    2.2   24    0     988.3    NA       0.0000   9999     5970  0     0    
2019/06/04  16:27:00  BASE  11.7306  38   17.5459  36   4.2   87    2.2   24    0     988.5    NA       0.0000   9999     6000  0     0    
2019/06/04  16:28:00  BASE  9.6726   40   17.2108  31   4.3   86    2.2   25    0     988.8    NA       0.0000   9999     6000  0     0    
2019/06/04  16:29:00  BASE  8.39664  48   15.9995  27   4.3   86    2.2   25    0     988.9    NA       0.0000   9999     5940  0     0    
2019/06/04  16:30:00  BASE  6.51504  75   15.9113  31   4.3   86    2.1   25    0     989.1    NA       0.0000   9999     4360  0     0    
2019/06/04  16:31:00  BASE  3.90432  110  15.9113  31   4.2   86    2.0   25    0     989.2    NA       0.0000   9999     4270  0     0    
2019/06/04  16:32:00  BASE  4.07484  106  15.9113  31   4.1   86    2.0   24    0     989.2    NA       0.0000   9999     4070  0     0    
2019/06/04  16:33:00  BASE  5.22732  109  14.3354  37   4.0   87    2.0   23    0     989.2    NA       0.0000   9999     3870  0     0    
2019/06/04  16:34:00  BASE  4.92744  123  14.0944  40   3.8   87    1.9   22    0     989.2    NA       0.0000   9999     3640  0     0    
2019/06/04  16:35:00  BASE  4.69224  132  14.0944  40   3.6   88    1.8   20    0     989.2    NA       0.0000   9999     3450  0     0    
2019/06/04  16:36:00  BASE  4.35708  137  12.4303  26   3.5   89    1.9   19    0     989.2    NA       0.0000   9999     3410  0     0    
2019/06/04  16:37:00  BASE  4.25712  144  10.4958  34   3.4   90    1.8   18    0     989.2    NA       0.0000   9999     3380  0     0    
2019/06/04  16:38:00  BASE  4.3806   162  10.3782  50   3.2   91    1.9   17    0     989.1    NA       0.0000   9999     3410  0     0    
2019/06/04  16:39:00  BASE  4.32768  169  8.13792  54   3.1   92    1.9   15    0     989.2    NA       0.0000   9999     3380  0     0    
2019/06/04  16:40:00  BASE  3.92784  161  7.07952  103  3.0   93    2.0   14    0     989.2    NA       0.0000   9999     2590  3480  0    
2019/06/04  16:41:00  BASE  3.25752  165  7.07952  103  3.0   93    2.0   13    0     989.2    NA       0.0000   9999     2620  3310  0    
2019/06/04  16:42:00  BASE  2.83416  174  6.10932  137  2.9   94    2.0   12    0     989.3    NA       0.0000   9999     2530  0     0    
2019/06/04  16:43:00  BASE  2.40492  182  5.53308  127  2.7   95    2.0   11    0     989.4    NA       0.0000   9999     2720  3480  0    
2019/06/04  16:44:00  BASE  1.80516  200  5.145    128  2.7   96    2.0   10    0     989.4    NA       0.0000   9999     2820  3310  0    
2019/06/04  16:45:00  BASE  1.04076  251  5.145    128  2.6   96    2.1   10    0     989.5    NA       0.0000   9999     2720  0     0    
2019/06/04  16:46:00  BASE  1.58172  314  5.10972  166  2.6   97    2.2   9     0     989.6    NA       0.0000   9999     2490  0     0    
2019/06/04  16:47:00  BASE  2.79888  310  5.10972  166  2.6   98    2.3   9     0     989.6    NA       0.0000   9999     2720  0     0    
2019/06/04  16:48:00  BASE  2.65776  265  5.10972  166  2.6   98    2.4   8     0     989.6    NA       0.0000   9999     2620  0     0    
2019/06/04  16:49:00  BASE  2.33436  214  4.08072  151  2.7   99    2.5   8     0     989.6    NA       0.0000   9999     3350  0     0    
2019/06/04  16:50:00  BASE  2.63424  180  3.90432  304  2.7   99    2.6   8     0     989.5    NA       0.0000   9999     3150  0     0    
2019/06/04  16:51:00  BASE  3.07524  174  3.90432  304  2.8   99    2.7   8     0     989.5    NA       0.0000   9999     3050  0     0    
2019/06/04  16:52:00  BASE  3.06936  176  3.90432  304  2.8   99    2.7   8     0     989.5    NA       0.0000   9999     2620  3120  0    
2019/06/04  16:53:00  BASE  2.1168   172  3.90432  304  2.8   99    2.6   8     0     989.6    NA       0.0000   9999     2660  0     0    
2019/06/04  16:54:00  BASE  0.69384  193  3.90432  304  2.8   98    2.5   8     0     989.7    NA       0.0000   9999     2990  0     0    
2019/06/04  16:55:00  BASE  0.3528   271  3.90432  304  2.7   98    2.4   8     0     989.7    NA       0.0000   9999     2590  0     0    
2019/06/04  16:56:00  BASE  1.04076  301  3.90432  304  2.6   98    2.3   8     0     989.7    NA       0.0000   9999     2590  0     0    
2019/06/04  16:57:00  BASE  1.42296  292  3.62796  175  2.5   99    2.3   8     0     989.7    NA       0.0000   9999     2690  0     0    
2019/06/04  16:58:00  BASE  1.45824  283  3.62796  175  2.5   99    2.3   8     0     989.6    NA       0.0000   9999     2620  0     0    
2019/06/04  16:59:00  BASE  1.4112   269  3.62796  175  2.4   99    2.3   8     0     989.6    NA       0.0000   9999     2530  0     0    
2019/06/04  17:00:00  BASE  1.42296  236  3.62796  175  2.4   99    2.3   9     0     989.6    NA       0.0000   9999     2490  0     0    
2019/06/04  17:01:00  BASE  1.323    219  3.38688  179  2.3   99    2.2   9     0     989.5    NA       0.0000   9999     2360  0     0    
2019/06/04  17:02:00  BASE  1.2054   230  2.24028  172  2.3   99    2.1   9     0     989.4    NA       0.0000   9999     2490  0     0    
2019/06/04  17:03:00  BASE  1.6464   242  2.54016  248  2.2   99    2.0   9     0     989.4    NA       0.0000   9999     2360  0     0    
2019/06/04  17:04:00  BASE  2.44608  247  3.087    247  2.0   99    1.9   8     0     988.8    NA       0.0000   9999     2400  0     0    
2019/06/04  17:05:00  BASE  2.80476  245  3.087    256  1.9   99    1.8   8     0     989.4    NA       0.0000   9999     2620  0     0    
2019/06/04  17:06:00  BASE  2.89884  242  3.35748  247  1.8   99    1.7   8     0     989.2    NA       0.0000   9999     2330  2820  0    
2019/06/04  17:07:00  BASE  2.98116  246  3.35748  247  1.7   99    1.6   8     0     989.5    NA       0.0000   9999     2260  0     0    
2019/06/04  17:08:00  BASE  2.85768  242  3.35748  247  1.6   100   1.5   8     0     989.5    NA       0.0000   9999     2430  0     0    
2019/06/04  17:09:00  BASE  2.65776  229  3.35748  247  1.5   100   1.5   8     0     989.4    NA       0.0000   9999     2330  0     0    
2019/06/04  17:10:00  BASE  2.56368  221  3.35748  247  1.5   100   1.5   8     0     988.9    NA       0.0000   9999     2400  0     0    
2019/06/04  17:11:00  BASE  2.60484  226  3.35748  247  1.6   100   1.6   8     0     989.4    NA       0.0000   9999     2230  3180  0    
2019/06/04  17:12:00  BASE  2.33436  238  3.35748  247  1.6   100   1.6   8     0     989.2    NA       0.0000   9999     2230  0     0    
2019/06/04  17:13:00  BASE  1.77576  248  3.35748  247  1.6   100   1.6   8     0     989.4    NA       0.0000   9999     2890  0     0    
2019/06/04  17:14:00  BASE  1.176    246  3.35748  247  1.6   100   1.6   8     0     988.9    NA       0.0000   9999     1940  0     0    
2019/06/04  17:15:00  BASE  0.80556  245  3.35748  247  1.6   100   1.6   8     0     989.4    NA       0.0000   9999     2170  0     0    
2019/06/04  17:16:00  BASE  0.7056   232  3.234    248  1.6   100   1.6   7     0     989.4    NA       0.0000   9999     2260  0     0    
2019/06/04  17:17:00  BASE  1.11132  206  3.1752   231  1.7   100   1.7   7     0     989.5    NA       0.0000   9999     2400  0     0    
2019/06/04  17:18:00  BASE  1.7934   198  3.1752   231  1.7   100   1.7   7     0     989.6    NA       0.0000   9999     3280  0     0    
2019/06/04  17:19:00  BASE  2.16972  206  2.93412  229  1.8   100   1.8   6     0     989.6    NA       0.0000   9999     3310  0     0    
2019/06/04  17:20:00  BASE  2.01684  214  2.81064  226  1.8   100   1.8   6     0     989.6    NA       0.0000   9999     2360  3180  0    
2019/06/04  17:21:00  BASE  1.80516  209  2.69304  204  1.9   100   1.9   6     0     989.4    NA       0.0000   9999     2400  3220  0    
2019/06/04  17:22:00  BASE  2.48724  201  3.32808  196  1.9   100   1.9   6     0     989.0    NA       0.0000   9999     2990  0     0    
2019/06/04  17:23:00  BASE  2.74008  193  3.32808  196  2.0   100   2.0   6     0     989.4    NA       0.0000   9999     3020  0     0    
2019/06/04  17:24:00  BASE  1.61112  169  3.32808  196  2.0   100   2.0   5     0     989.6    NA       0.0000   9999     2920  0     0    
2019/06/04  17:25:00  BASE  0.84672  123  3.32808  196  2.0   100   2.0   5     0     989.6    NA       0.0000   9999     3020  0     0    
2019/06/04  17:26:00  BASE  0.89964  109  3.32808  196  1.9   100   1.9   5     0     989.7    NA       0.0000   9999     2950  0     0    
2019/06/04  17:27:00  BASE  0.72324  145  3.32808  196  1.9   100   1.9   5     0     989.5    NA       0.0000   9999     2850  0     0    
2019/06/04  17:28:00  BASE  0.42336  154  3.32808  196  1.9   100   1.9   5     0     989.7    NA       0.0000   9999     2850  0     0    
2019/06/04  17:29:00  BASE  1.12308  65   3.32808  196  2.0   100   2.0   5     0     989.6    NA       0.0000   9999     2760  0     0    
2019/06/04  17:30:00  BASE  2.36964  29   4.08072  353  2.1   100   2.1   5     0     989.7    NA       0.0000   9999     2820  0     0    
2019/06/04  17:31:00  BASE  2.85768  6    4.263    336  2.2   100   2.2   5     0     989.7    NA       0.0000   9999     2660  0     0    
2019/06/04  17:32:00  BASE  3.86316  356  5.80944  12   2.3   100   2.3   5     0     989.7    NA       0.0000   9999     2660  0     0    
2019/06/04  17:33:00  BASE  4.79808  346  5.80944  12   2.3   100   2.3   5     0     989.7    NA       0.0000   9999     2620  0     0    
2019/06/04  17:34:00  BASE  4.75692  329  7.05012  328  2.4   100   2.4   5     0     989.6    NA       0.0000   9999     2590  0     0    
2019/06/04  17:35:00  BASE  4.60404  333  7.05012  328  2.4   100   2.4   5     0     989.7    NA       0.0000   9999     2530  0     0    
2019/06/04  17:36:00  BASE  3.9984   341  7.05012  328  2.4   100   2.4   5     0     989.7    NA       0.0000   9999     2430  0     0    
2019/06/04  17:37:00  BASE  3.675    327  7.05012  328  2.4   100   2.4   5     0     989.7    NA       0.0000   9999     2530  0     0    
2019/06/04  17:38:00  BASE  2.793    293  7.05012  328  2.5   100   2.5   5     0     989.8    NA       0.0000   9999     2560  0     0    
2019/06/04  17:39:00  BASE  1.76988  296  7.05012  328  2.4   100   2.4   5     0     989.9    NA       0.0000   9999     2620  0     0    
2019/06/04  17:40:00  BASE  4.19244  348  9.04344  24   2.4   100   2.4   5     0     989.8    NA       0.0000   9999     2920  0     0    
2019/06/04  17:41:00  BASE  8.12616  20   11.613   30   2.5   100   2.5   5     0     989.7    NA       0.0000   SQ       9999  3250  0    
2019/06/04  17:42:00  BASE  10.484   26   12.5832  24   2.7   100   2.7   5     0     989.5    NA       0.0000   SQ       9999  2620  3380 
2019/06/04  17:43:00  BASE  11.4072  26   12.7655  24   3.0   100   3.0   5     0     989.3    NA       0.0000   SQ       9999  2460  3480 
2019/06/04  17:44:00  BASE  12.0481  24   13.13    20   3.3   100   3.3   5     0     989.3    NA       0.0000   9999     3580  0     0    
2019/06/04  17:45:00  BASE  12.3362  22   13.13    25   3.6   100   3.5   5     0     989.3    NA       0.0000   9999     2490  3710  0    
2019/06/04  17:46:00  BASE  12.054   22   13.13    25   3.7   99    3.6   5     0     989.2    NA       0.0000   9999     2460  3870  0    
2019/06/04  17:47:00  BASE  12.3186  23   13.7004  25   3.8   99    3.6   5     0     989.2    NA       0.0000   9999     4130  0     0    
2019/06/04  17:48:00  BASE  12.836   22   13.7945  18   3.8   98    3.6   5     0     989.1    NA       0.0000   9999     4200  0     0    
2019/06/04  17:49:00  BASE  13.3888  22   14.6118  21   3.8   97    3.5   5     0     989.1    NA       0.0000   9999     4200  0     0    
2019/06/04  17:50:00  BASE  13.818   21   14.6118  21   3.9   97    3.4   4     0     989.0    NA       0.0000   9999     4170  0     0    
2019/06/04  17:51:00  BASE  13.9591  20   14.7     20   4.0   96    3.4   4     0     989.1    NA       0.0000   9999     4400  4860  0    
2019/06/04  17:52:00  BASE  14.0885  19   14.7     20   4.0   96    3.4   4     0     989.1    NA       0.0000   9999     4990  0     0    
2019/06/04  17:53:00  BASE  13.7004  19   14.7     20   4.0   96    3.4   4     0     989.2    NA       0.0000   9999     4860  0     0    
2019/06/04  17:54:00  BASE  13.3123  18   14.7     20   4.0   95    3.3   4     0     989.2    NA       0.0000   9999     4890  0     0    
2019/06/04  17:55:00  BASE  13.3123  17   14.7     20   4.0   95    3.2   4     0     989.2    NA       0.0000   9999     4950  0     0    
2019/06/04  17:56:00  BASE  13.9297  17   15.5467  18   3.9   95    3.1   3     0     989.2    NA       0.0000   9999     4920  0     0    
2019/06/04  17:57:00  BASE  14.5236  17   15.5467  18   3.9   95    3.1   3     0     989.2    NA       0.0000   9999     4950  0     0    
2019/06/04  17:58:00  BASE  14.4766  17   15.5467  18   3.8   95    3.0   3     0     989.2    NA       0.0000   9999     3900  0     0    
2019/06/04  17:59:00  BASE  14.2355  17   15.5467  18   3.8   95    3.1   3     0     989.3    NA       0.0000   9999     3810  0     0    
2019/06/04  18:00:00  BASE  13.9532  18   15.5467  18   3.9   95    3.1   3     0     989.3    NA       0.0000   9999     2660  3670  0    
2019/06/04  18:01:00  BASE  13.9003  20   15.5467  18   3.9   95    3.1   3     0     989.2    NA       0.0000   9999     2620  0     0    
2019/06/04  18:02:00  BASE  13.4182  21   15.5467  18   3.9   95    3.2   3     0     989.3    NA       0.0000   9999     2660  0     0    
2019/06/04  18:03:00  BASE  13.4534  21   15.5467  18   3.9   95    3.2   3     0     989.3    NA       0.0000   9999     2820  3310  0    
2019/06/04  18:04:00  BASE  13.6004  22   15.5467  18   4.0   95    3.2   3     0     989.3    NA       0.0000   9999     2720  0     0    
2019/06/04  18:05:00  BASE  13.4299  22   15.5467  18   4.0   95    3.3   3     0     989.3    NA       0.0000   9999     2950  3580  0    
2019/06/04  18:06:00  BASE  13.624   22   15.4291  20   4.0   95    3.3   3     0     989.3    NA       0.0000   9999     2850  5020  0    
2019/06/04  18:07:00  BASE  13.4299  22   15.0646  20   4.0   95    3.3   3     0     989.4    NA       0.0000   9999     2850  3810  0    
2019/06/04  18:08:00  BASE  13.1888  22   14.6706  20   4.0   95    3.2   3     0     989.4    NA       0.0000   9999     3310  0     0    
2019/06/04  18:09:00  BASE  13.1771  21   14.6706  20   3.9   95    3.2   3     0     989.4    NA       0.0000   9999     3050  0     0    
2019/06/04  18:10:00  BASE  12.8713  21   14.6412  23   3.9   95    3.2   3     0     989.4    NA       0.0000   9999     3510  5220  0    
2019/06/04  18:11:00  BASE  12.101   22   14.6412  23   3.9   95    3.2   3     0     989.4    NA       0.0000   9999     3940  0     0    
2019/06/04  18:12:00  BASE  11.6071  21   14.6412  23   3.9   95    3.2   3     0     989.4    NA       0.0000   9999     3310  5120  0    
2019/06/04  18:13:00  BASE  11.7659  22   14.6118  22   3.9   95    3.2   3     0     989.1    NA       0.0000   9999     3450  5050  0    
2019/06/04  18:14:00  BASE  11.8717  23   14.6118  22   3.8   96    3.2   3     0     989.3    NA       0.0000   9999     4990  0     0    
2019/06/04  18:15:00  BASE  12.0187  25   14.6118  22   3.8   96    3.2   3     0     989.3    NA       0.0000   9999     0     0     0    
2019/06/04  18:16:00  BASE  12.2422  25   14.6118  22   3.8   96    3.3   3     0     989.3    NA       0.0000   9999     0     0     0    
2019/06/04  18:17:00  BASE  11.7835  23   13.8239  21   3.8   96    3.3   3     0     989.4    NA       0.0000   9999     16960 0     0    
2019/06/04  18:18:00  BASE  11.419   25   13.5828  19   3.8   96    3.3   2     0     989.3    NA       0.0000   9999     16800 0     0    
2019/06/04  18:19:00  BASE  11.4131  26   13.4299  19   3.8   96    3.3   2     0     989.3    NA       0.0000   9999     16800 0     0    
2019/06/04  18:20:00  BASE  11.3837  25   13.4299  19   3.9   96    3.3   2     0     989.3    NA       0.0000   9999     16700 0     0    
2019/06/04  18:21:00  BASE  11.4366  25   13.4299  19   3.9   96    3.3   2     0     989.2    NA       0.0000   9999     16600 0     0    
2019/06/04  18:22:00  BASE  11.2484  26   13.4299  19   3.9   96    3.3   2     0     988.9    NA       0.0000   9999     0     0     0    
2019/06/04  18:23:00  BASE  11.1367  25   13.4299  19   3.9   96    3.3   2     0     989.2    NA       0.0000   9999     16210 0     0    
2019/06/04  18:24:00  BASE  11.125   27   13.4299  19   4.0   95    3.3   2     0     989.2    NA       0.0000   9999     0     0     0    
2019/06/04  18:25:00  BASE  10.7898  27   13.4299  19   4.0   95    3.3   2     0     989.1    NA       0.0000   9999     0     0     0    
2019/06/04  18:26:00  BASE  10.4488  27   13.1594  27   4.0   95    3.2   2     0     989.2    NA       0.0000   9999     0     0     0    
2019/06/04  18:27:00  BASE  10.1606  29   13.1594  27   4.0   95    3.2   2     0     989.2    NA       0.0000   9999     0     0     0    
2019/06/04  18:28:00  BASE  9.92544  29   12.8537  31   4.0   95    3.3   2     0     989.1    NA       0.0000   9999     0     0     0    
2019/06/04  18:29:00  BASE  9.84312  28   12.8537  31   4.1   95    3.3   2     0     989.1    NA       0.0000   9999     0     0     0    
2019/06/04  18:30:00  BASE  9.57852  30   12.8537  31   4.1   95    3.4   2     0     989.2    NA       0.0000   9999     16830 0     0    
2019/06/04  18:31:00  BASE  9.09048  33   12.8537  31   4.2   95    3.4   2     0     989.2    NA       0.0000   9999     16960 0     0    
2019/06/04  18:32:01  BASE  8.526    34   12.8537  31   4.2   95    3.4   2     0     989.2    NA       0.0000   9999     0     0     0    
2019/06/04  18:33:00  BASE  8.09088  37   12.8537  31   4.3   94    3.4   2     0     989.2    NA       0.0000   9999     0     0     0    
2019/06/04  18:34:00  BASE  7.74396  42   11.7071  31   4.3   94    3.4   1     0     989.2    NA       0.0000   9999     0     0     0    
2019/06/04  18:35:00  BASE  6.62676  46   11.4366  26   4.3   94    3.3   1     0     989.3    NA       0.0000   9999     0     0     0    
2019/06/04  18:36:00  BASE  5.77416  50   11.4366  26   4.2   94    3.3   1     0     989.3    NA       0.0000   9999     0     0     0    
2019/06/04  18:37:00  BASE  5.65656  52   11.4366  26   4.2   94    3.3   1     0     989.4    NA       0.0000   9999     0     0     0    
2019/06/04  18:38:00  BASE  5.28612  57   11.0426  29   4.2   94    3.3   1     0     989.4    NA       0.0000   9999     0     0     0    
2019/06/04  18:39:00  BASE  4.85688  75   11.0426  29   4.3   93    3.3   1     0     989.2    NA       0.0000   9999     0     0     0    
2019/06/04  18:40:00  BASE  4.998    99   10.7663  31   4.2   93    3.3   1     0     989.2    NA       0.0000   9999     0     0     0    
2019/06/04  18:41:00  BASE  5.58012  118  10.1665  39   4.1   93    3.1   1     0     989.5    NA       0.0000   9999     4720  0     0    
2019/06/04  18:42:00  BASE  5.5566   136  8.98464  44   4.0   93    2.9   1     0     989.2    NA       0.0000   9999     3450  0     0    
2019/06/04  18:43:00  BASE  4.66872  154  8.379    40   3.7   93    2.7   1     0     989.6    NA       0.0000   9999     3350  0     0    
2019/06/04  18:44:00  BASE  3.83964  162  7.10892  40   3.5   93    2.5   1     0     989.6    NA       0.0000   9999     3150  0     0    
2019/06/04  18:45:00  BASE  3.28104  167  6.98544  78   3.3   93    2.4   1     0     989.7    NA       0.0000   9999     3120  0     0    
2019/06/04  18:46:00  BASE  2.52252  175  6.98544  78   3.2   94    2.3   1     0     989.7    NA       0.0000   9999     3540  0     0    
2019/06/04  18:47:00  BASE  2.09916  176  6.98544  78   3.1   94    2.3   1     0     989.8    NA       0.0000   9999     2990  0     0    
2019/06/04  18:48:00  BASE  1.74048  163  6.98544  78   3.1   95    2.4   1     0     989.8    NA       0.0000   9999     2990  0     0    
2019/06/04  18:49:00  BASE  1.6464   155  6.2622   140  3.1   95    2.4   1     0     988.9    NA       0.0000   9999     2590  3510  0    
2019/06/04  18:50:00  BASE  1.59348  159  6.2622   140  3.1   96    2.5   1     0     989.8    NA       0.0000   9999     2690  3740  0    
2019/06/04  18:51:00  BASE  1.31124  170  6.2622   140  3.1   96    2.5   0     0     989.8    NA       0.0000   9999     3740  0     0    
2019/06/04  18:52:00  BASE  1.1172   184  4.83924  164  3.2   96    2.6   0     0     989.8    NA       0.0000   9999     2530  3670  0    
2019/06/04  18:53:00  BASE  0.59388  187  4.32768  152  3.3   96    2.7   0     0     989.8    NA       0.0000   9999     2760  3580  0    
2019/06/04  18:54:00  BASE  0.14112  188  3.38688  179  3.3   96    2.7   0     0     989.8    NA       0.0000   9999     3020  0     0    
2019/06/04  18:55:00  BASE  0.05292  194  2.90472  173  3.3   96    2.7   0     0     989.9    NA       0.0000   9999     2990  0     0    
2019/06/04  18:56:00  BASE  0.07644  217  2.48136  201  3.3   96    2.7   0     0     990.1    NA       0.0000   9999     2720  0     0    
2019/06/04  18:57:00  BASE  0.51156  310  2.21088  167  3.3   95    2.6   0     0     990.2    NA       0.0000   9999     2690  0     0    
2019/06/04  18:58:00  BASE  1.5582   43   3.53976  74   3.2   95    2.5   0     0     990.3    NA       0.0000   9999     2590  3050  0    
2019/06/04  18:59:00  BASE  3.01644  81   5.41548  100  3.1   95    2.5   0     0     990.3    NA       0.0000   9999     2720  0     0    
2019/06/04  19:00:00  BASE  4.36884  104  5.41548  100  3.1   96    2.4   0     0     990.3    NA       0.0000   9999     2590  0     0    
2019/06/04  19:01:00  BASE  4.86276  127  5.53308  149  3.0   96    2.4   0     0     990.2    NA       0.0000   9999     2360  0     0    
2019/06/04  19:02:00  BASE  4.7922   146  5.53308  149  3.0   96    2.3   0     0     990.2    NA       0.0000   9999     2230  0     0    
2019/06/04  19:03:00  BASE  4.42764  157  5.53308  149  3.0   96    2.3   0     0     990.3    NA       0.0000   9999     2360  0     0    
2019/06/04  19:04:00  BASE  3.8514   161  5.53308  149  2.9   96    2.3   0     0     990.3    NA       0.0000   9999     2230  0     0    
2019/06/04  19:05:00  BASE  3.48096  167  5.53308  149  2.9   96    2.3   0     0     990.3    NA       0.0000   9999     2260  0     0    
2019/06/04  19:06:00  BASE  2.99292  174  5.53308  149  2.9   96    2.2   0     0     990.2    NA       0.0000   9999     2230  0     0    
2019/06/04  19:07:00  BASE  2.6754   177  5.53308  149  2.8   96    2.2   0     0     990.2    NA       0.0000   9999     2230  0     0    
2019/06/04  19:08:00  BASE  2.98116  191  5.53308  149  2.8   96    2.2   0     0     990.2    NA       0.0000   9999     2430  0     0    
2019/06/04  19:09:00  BASE  3.12816  203  5.53308  149  2.8   96    2.2   0     0     990.2    NA       0.0000   9999     2330  0     0    
2019/06/04  19:10:00  BASE  2.68128  206  5.53308  149  2.8   96    2.2   0     0     990.2    NA       0.0000   9999     2360  0     0    
2019/06/04  19:11:00  BASE  2.205    213  5.3214   164  2.7   96    2.1   0     0     990.2    NA       0.0000   9999     2300  0     0    
2019/06/04  19:12:00  BASE  1.89924  219  4.41588  166  2.7   96    2.1   0     0     990.2    NA       0.0000   9999     2400  0     0    
2019/06/04  19:13:00  BASE  1.6758   224  3.96312  158  2.6   96    2.0   0     0     990.2    NA       0.0000   9999     2200  0     0    
2019/06/04  19:14:00  BASE  1.39356  226  3.48096  179  2.5   96    2.0   0     0     990.2    NA       0.0000   9999     2360  0     0    
2019/06/04  19:15:00  BASE  1.21128  226  3.41628  205  2.5   96    2.0   0     0     990.3    NA       0.0000   9999     2490  0     0    
2019/06/04  19:16:00  BASE  1.2054   218  3.41628  205  2.5   97    2.0   0     0     990.3    NA       0.0000   9999     2100  0     0    
2019/06/04  19:17:00  BASE  1.2642   205  3.41628  205  2.5   97    2.0   0     0     990.3    NA       0.0000   9999     2170  0     0    
2019/06/04  19:18:00  BASE  1.33476  192  3.1458   203  2.5   97    2.0   0     0     990.3    NA       0.0000   9999     2100  0     0    
2019/06/04  19:19:00  BASE  0.87612  190  2.69304  209  2.5   97    2.0   0     0     990.3    NA       0.0000   9999     2330  0     0    
2019/06/04  19:20:00  BASE  0.55272  243  2.24028  213  2.4   97    2.0   0     0     990.4    NA       0.0000   9999     2300  0     0    
2019/06/04  19:21:00  BASE  1.55232  299  3.1458   308  2.3   97    1.9   0     0     990.4    NA       0.0000   9999     2200  0     0    
2019/06/04  19:22:00  BASE  2.56956  308  3.1458   308  2.1   97    1.7   0     0     990.4    NA       0.0000   9999     2260  0     0    
2019/06/04  19:23:00  BASE  2.66952  293  3.1458   308  1.9   97    1.5   0     0     990.3    NA       0.0000   9999     2200  0     0    
2019/06/04  19:24:00  BASE  2.45196  262  3.1458   308  1.7   98    1.4   0     0     990.3    NA       0.0000   9999     2260  0     0    
2019/06/04  19:25:00  BASE  1.88748  252  3.1458   308  1.6   98    1.3   0     0     990.3    NA       0.0000   9999     2300  0     0    
2019/06/04  19:26:00  BASE  1.323    289  3.1458   308  1.5   99    1.3   0     0     990.4    NA       0.0000   9999     2230  0     0    
2019/06/04  19:27:00  BASE  1.59936  323  3.1458   308  1.5   99    1.5   0     0     990.4    NA       0.0000   9999     2360  2890  0    
2019/06/04  19:28:00  BASE  1.58172  302  3.1458   308  1.6   100   1.6   0     0     990.4    NA       0.0000   9999     2000  0     0    
2019/06/04  19:29:00  BASE  1.39356  259  3.1458   308  1.7   100   1.7   0     0     990.2    NA       0.0000   9999     2200  0     0    
2019/06/04  19:30:00  BASE  1.86984  231  3.1458   308  1.8   100   1.8   0     0     990.2    NA       0.0000   9999     2130  0     0    
2019/06/04  19:31:00  BASE  2.2638   220  2.99292  310  1.8   100   1.8   0     0     990.2    NA       0.0000   9999     2100  0     0    
2019/06/04  19:32:00  BASE  2.2638   227  2.78124  288  1.8   100   1.8   0     0     990.2    NA       0.0000   9999     2260  2790  0    
2019/06/04  19:33:00  BASE  1.71696  248  2.56956  251  1.8   100   1.8   0     0     990.3    NA       0.0000   9999     3220  0     0    
2019/06/04  19:34:00  BASE  2.1168   282  3.41628  286  1.7   100   1.7   0     0     990.3    NA       0.0000   9999     2260  3480  0    
2019/06/04  19:35:00  BASE  2.98116  286  3.62796  281  1.6   100   1.6   0     0     990.3    NA       0.0000   9999     2130  3510  0    
2019/06/04  19:36:00  BASE  2.94588  253  3.62796  254  1.6   100   1.6   0     0     990.2    NA       0.0000   9999     2200  0     0    
2019/06/04  19:37:00  BASE  2.68128  241  3.62796  254  1.6   100   1.6   0     0     990.2    NA       0.0000   9999     2230  0     0    
2019/06/04  19:38:00  BASE  1.99332  250  3.62796  254  1.6   100   1.6   0     0     990.2    NA       0.0000   9999     3310  0     0    
2019/06/04  19:39:00  BASE  1.21716  250  3.62796  254  1.6   100   1.6   0     0     990.2    NA       0.0000   9999     3450  0     0    
2019/06/04  19:40:00  BASE  1.16424  271  3.62796  254  1.6   100   1.6   0     0     990.2    NA       0.0000   9999     2230  3450  0    
2019/06/04  19:41:00  BASE  1.2348   294  3.62796  254  1.6   100   1.6   0     0     990.2    NA       0.0000   9999     2230  3280  0    
2019/06/04  19:42:00  BASE  1.05252  303  3.62796  254  1.7   100   1.7   0     0     990.3    NA       0.0000   9999     2590  3150  0    
2019/06/04  19:43:00  BASE  0.61152  304  3.62796  254  1.7   100   1.7   0     0     990.3    NA       0.0000   9999     2300  3120  0    
2019/06/04  19:44:00  BASE  0.63504  349  3.62796  254  1.8   100   1.8   0     0     990.3    NA       0.0000   9999     2260  3250  0    
2019/06/04  19:45:00  BASE  1.19364  32   3.62796  254  2.1   100   2.1   0     0     990.3    NA       0.0000   9999     3050  0     0    
2019/06/04  19:46:00  BASE  2.25204  57   5.65656  18   2.2   100   2.2   0     0     990.2    NA       0.0000   9999     3080  0     0    
2019/06/04  19:47:00  BASE  3.7926   59   5.65656  18   2.4   100   2.4   0     0     990.2    NA       0.0000   9999     3150  0     0    
2019/06/04  19:48:00  BASE  4.33356  49   5.65656  18   2.8   100   2.8   0     0     990.3    NA       0.0000   9999     3080  0     0    
2019/06/04  19:49:00  BASE  3.48684  59   5.65656  18   3.0   100   3.0   0     0     990.3    NA       0.0000   9999     3120  0     0    
2019/06/04  19:50:00  BASE  3.4398   72   6.68556  48   3.1   100   3.1   0     0     990.3    NA       0.0000   9999     2100  3120  0    
2019/06/04  19:51:00  BASE  3.84552  68   6.68556  48   3.3   100   3.3   0     0     990.2    NA       0.0000   9999     2990  0     0    
2019/06/04  19:52:00  BASE  2.793    79   6.68556  48   3.3   100   3.3   0     0     990.3    NA       0.0000   9999     2890  0     0    
2019/06/04  19:53:00  BASE  2.058    87   6.68556  48   3.1   100   3.1   0     0     990.3    NA       0.0000   9999     2890  0     0    
2019/06/04  19:54:00  BASE  1.63464  53   6.68556  48   3.1   100   3.1   0     0     990.3    NA       0.0000   9999     2920  0     0    
2019/06/04  19:55:00  BASE  1.18776  24   6.68556  48   3.2   100   3.2   0     0     990.3    NA       0.0000   9999     2820  0     0    
2019/06/04  19:56:00  BASE  0.59388  40   6.68556  48   3.2   100   3.2   0     0     990.2    NA       0.0000   9999     2720  0     0    
2019/06/04  19:57:00  BASE  0.22932  112  6.68556  48   3.3   99    3.2   0     0     990.2    NA       0.0000   9999     2760  0     0    
2019/06/04  19:58:00  BASE  0.39396  160  6.68556  48   3.5   99    3.3   0     0     990.2    NA       0.0000   9999     2790  0     0    
2019/06/04  19:59:00  BASE  0.38808  171  6.68556  48   3.5   98    3.3   0     0     990.2    NA       0.0000   9999     2890  0     0    
2019/06/04  20:00:00  BASE  1.06428  11   5.2332   41   3.6   98    3.4   0     0     990.2    NA       0.0000   9999     2850  0     0    
2019/06/04  20:01:00  BASE  1.04076  3    2.75184  70   3.8   98    3.4   0     0     990.2    NA       0.0000   9999     2890  0     0    
2019/06/04  20:02:00  BASE  0.4116   176  2.48136  84   4.0   97    3.5   0     0     990.3    NA       0.0000   9999     2850  0     0    
2019/06/04  20:03:00  BASE  0.24108  139  2.24028  5    4.0   97    3.5   0     0     990.3    NA       0.0000   9999     2850  0     0    
2019/06/04  20:04:00  BASE  0.2058   53   2.24028  5    4.1   96    3.6   0     0     990.3    NA       0.0000   9999     2850  0     0    
2019/06/04  20:05:00  BASE  0.38808  12   2.21088  28   4.1   95    3.4   0     0     990.3    NA       0.0000   9999     2850  0     0    
2019/06/04  20:06:00  BASE  0.2646   327  2.21088  28   3.9   95    3.2   0     0     990.3    NA       0.0000   9999     2850  0     0    
2019/06/04  20:07:00  BASE  0.65856  265  2.21088  28   3.7   95    3.0   0     0     990.2    NA       0.0000   9999     2850  0     0    
2019/06/04  20:08:00  BASE  1.18188  258  2.21088  28   3.6   95    2.8   0     0     990.3    NA       0.0000   9999     2890  0     0    
2019/06/04  20:09:00  BASE  1.01136  260  2.21088  28   3.4   95    2.7   0     0     990.3    NA       0.0000   9999     2920  0     0    
2019/06/04  20:10:00  BASE  1.27008  248  1.93452  247  3.3   95    2.6   0     0     990.3    NA       0.0000   9999     2920  0     0    
2019/06/04  20:11:00  BASE  1.65228  250  1.93452  247  3.1   96    2.5   0     0     990.4    NA       0.0000   9999     2920  0     0    
2019/06/04  20:12:00  BASE  1.87572  255  2.42256  259  3.0   96    2.5   0     0     990.4    NA       0.0000   9999     2950  0     0    
2019/06/04  20:13:00  BASE  2.07564  260  2.42256  259  3.0   97    2.5   0     0     990.4    NA       0.0000   9999     2950  0     0    
2019/06/04  20:14:00  BASE  1.92864  265  2.42256  259  3.0   97    2.5   0     0     990.4    NA       0.0000   9999     2990  0     0    
2019/06/04  20:15:00  BASE  1.66404  265  2.42256  259  3.0   98    2.7   0     0     990.4    NA       0.0000   9999     2950  0     0    
2019/06/04  20:16:00  BASE  1.74636  259  2.42256  259  3.0   98    2.7   0     0     990.4    NA       0.0000   9999     2850  0     0    
2019/06/04  20:17:00  BASE  1.8228   257  2.42256  259  3.1   98    2.8   0     0     990.4    NA       0.0000   9999     2850  0     0    
2019/06/04  20:18:00  BASE  1.69344  261  2.42256  259  3.1   98    2.9   0     0     990.4    NA       0.0000   9999     2850  0     0    
2019/06/04  20:19:00  BASE  1.5876   259  2.42256  259  3.2   99    3.0   0     0     990.5    NA       0.0000   9999     2820  0     0    
2019/06/04  20:20:00  BASE  1.1172   254  2.42256  259  3.1   99    3.0   0     0     990.5    NA       0.0000   9999     2820  0     0    
2019/06/04  20:21:00  BASE  0.63504  265  2.42256  259  3.1   99    3.0   0     0     990.5    NA       0.0000   9999     2760  0     0    
2019/06/04  20:22:00  BASE  0.24696  258  2.29908  273  3.1   99    3.0   0     0     990.6    NA       0.0000   9999     2850  0     0    
2019/06/04  20:23:00  BASE  0        287  2.26968  270  3.1   99    3.0   0     0     990.7    NA       0.0000   9999     2720  0     0    
2019/06/04  20:24:00  BASE  0        27   2.21088  255  3.2   99    3.1   0     0     990.8    NA       0.0000   9999     2690  0     0    
2019/06/04  20:25:00  BASE  0.24696  26   2.21088  255  3.3   100   3.2   0     0     990.8    NA       0.0000   9999     2660  0     0    
2019/06/04  20:26:00  BASE  0.6468   42   2.0286   264  3.5   100   3.4   0     0     990.9    NA       0.0000   9999     2590  0     0    
2019/06/04  20:27:00  BASE  1.2642   55   3.1164   36   3.6   99    3.5   0     0     990.9    NA       0.0000   9999     2720  0     0    
2019/06/04  20:28:00  BASE  1.74048  81   3.1164   36   3.6   99    3.5   0     0     990.9    NA       0.0000   9999     2690  0     0    
2019/06/04  20:29:00  BASE  2.0286   80   3.51036  48   3.7   99    3.5   0     0     990.9    NA       0.0000   9999     2990  0     0    
2019/06/04  20:30:00  BASE  2.88708  50   5.83884  23   3.7   98    3.4   0     0     991.0    NA       0.0000   9999     3120  0     0    
2019/06/04  20:31:00  BASE  4.66872  33   7.77336  23   3.7   98    3.4   0     0     990.9    NA       0.0000   9999     3120  0     0    
2019/06/04  20:32:00  BASE  7.78512  30   11.4954  19   3.7   98    3.4   0     0     990.8    NA       0.0000   SQ       9999  2890  0    
2019/06/04  20:33:00  BASE  10.0313  29   11.5248  33   3.7   98    3.5   0     0     990.6    NA       0.0000   SQ       9999  2850  0    
2019/06/04  20:34:00  BASE  10.8486  28   13.2182  33   3.8   98    3.5   0     0     990.5    NA       0.0000   SQ       9999  2890  0    
2019/06/04  20:35:00  BASE  11.4013  28   13.3711  19   3.9   98    3.6   0     0     990.4    NA       0.0000   9999     2850  0     0    
2019/06/04  20:36:00  BASE  11.7894  30   13.9768  32   3.9   98    3.6   0     0     990.4    NA       0.0000   9999     2920  0     0    
2019/06/04  20:37:00  BASE  12.4656  30   14.7588  25   3.9   98    3.6   0     0     990.4    NA       0.0000   9999     3120  0     0    
2019/06/04  20:38:00  BASE  12.4715  30   14.7588  25   3.9   98    3.6   0     0     990.3    NA       0.0000   9999     3180  4860  0    
2019/06/04  20:39:00  BASE  11.7659  31   14.7588  25   3.9   98    3.6   0     0     990.3    NA       0.0000   9999     4950  0     0    
2019/06/04  20:40:00  BASE  11.4425  31   14.7588  25   3.9   98    3.6   0     0     990.3    NA       0.0000   9999     5090  5970  0    
2019/06/04  20:41:00  BASE  11.9599  32   14.7588  25   3.9   98    3.6   0     0     990.3    NA       0.0000   9999     3220  5380  0    
2019/06/04  20:42:00  BASE  12.4303  31   14.7588  25   3.9   98    3.6   0     0     990.3    NA       0.0000   9999     3080  0     0    
2019/06/04  20:43:00  BASE  12.0893  30   14.7588  25   3.9   98    3.6   0     0     990.4    NA       0.0000   9999     3120  0     0    
2019/06/04  20:44:00  BASE  11.4542  28   14.7588  25   3.9   98    3.6   0     0     990.3    NA       0.0000   9999     3810  4890  0    
2019/06/04  20:45:00  BASE  10.878   29   14.7588  25   3.8   98    3.6   0     0     990.4    NA       0.0000   9999     5410  0     0    
2019/06/04  20:46:00  BASE  11.2073  31   14.7588  25   3.8   98    3.5   0     0     990.3    NA       0.0000   9999     10170 0     0    
2019/06/04  20:47:00  BASE  11.9246  33   13.9768  25   3.8   98    3.5   0     0     990.3    NA       0.0000   9999     5350  10170 0    
2019/06/04  20:48:00  BASE  11.7659  36   13.9768  25   3.8   98    3.5   0     0     990.3    NA       0.0000   9999     4820  0     0    
2019/06/04  20:49:00  BASE  11.3308  35   13.9768  25   3.8   98    3.5   0     0     990.3    NA       0.0000   9999     5680  0     0    
2019/06/04  20:50:00  BASE  11.2896  33   13.9768  25   3.8   98    3.5   0     0     990.3    NA       0.0000   9999     6200  0     0    
2019/06/04  20:51:00  BASE  11.1838  32   13.9768  25   3.8   98    3.5   0     0     990.3    NA       0.0000   9999     5770  0     0    
2019/06/04  20:52:00  BASE  11.0838  32   13.6122  28   3.7   98    3.4   0     0     990.3    NA       0.0000   9999     5180  6100  0    
2019/06/04  20:53:00  BASE  11.466   31   13.6122  28   3.7   98    3.5   0     0     990.2    NA       0.0000   9999     4460  5510  0    
2019/06/04  20:54:00  BASE  11.6365  29   13.6122  28   3.7   98    3.4   0     0     990.2    NA       0.0000   9999     4630  0     0    
2019/06/04  20:55:00  BASE  10.8662  29   13.6122  28   3.7   98    3.4   0     0     990.2    NA       0.0000   9999     4820  5870  0    
2019/06/04  20:56:00  BASE  11.2249  32   13.6122  28   3.7   98    3.4   0     0     990.2    NA       0.0000   9999     5770  6170  0    
2019/06/04  20:57:00  BASE  12.2363  34   13.4299  17   3.7   98    3.4   0     0     990.1    NA       0.0000   9999     5540  0     0    
2019/06/04  20:58:00  BASE  11.907   32   13.4299  17   3.7   98    3.4   0     0     990.1    NA       0.0000   9999     4630  5280  0    
2019/06/04  20:59:00  BASE  11.4954  31   13.4299  17   3.7   98    3.4   0     0     990.1    NA       0.0000   9999     4860  5480  0    
2019/06/04  21:00:00  BASE  11.3131  32   13.4299  17   3.7   98    3.3   0     0     990.1    NA       0.0000   9999     6170  0     0    
2019/06/04  21:01:00  BASE  11.6659  31   13.4299  17   3.7   97    3.3   0     0     990.1    NA       0.0000   9999     5180  0     0    
2019/06/04  21:02:00  BASE  12.348   32   14.2472  36   3.7   97    3.3   0     0     990.1    NA       0.0000   9999     5150  5840  0    
2019/06/04  21:03:00  BASE  12.8654  32   14.2472  36   3.7   97    3.3   0     0     990.0    NA       0.0000   9999     4920  6040  0    
2019/06/04  21:04:00  BASE  12.7067  31   14.2472  36   3.8   97    3.3   0     0     990.1    NA       0.0000   9999     4790  0     0    
2019/06/04  21:05:00  BASE  11.9717  31   14.2472  36   3.8   97    3.3   0     0     990.1    NA       0.0000   9999     4890  0     0    
2019/06/04  21:06:00  BASE  12.4656  29   14.8823  30   3.8   96    3.3   0     0     990.1    NA       0.0000   9999     5120  0     0    
2019/06/04  21:07:00  BASE  12.7478  29   14.8823  30   3.8   96    3.3   0     0     990.1    NA       0.0000   9999     4860  0     0    
2019/06/04  21:08:00  BASE  12.6126  31   14.8823  30   3.9   96    3.2   0     0     990.1    NA       0.0000   9999     4990  0     0    
2019/06/04  21:09:00  BASE  12.9301  31   14.8823  30   3.9   96    3.2   0     0     990.1    NA       0.0000   9999     5050  0     0    
2019/06/04  21:10:00  BASE  12.5303  30   14.8823  30   3.9   95    3.3   0     0     990.2    NA       0.0000   9999     4950  0     0    
2019/06/04  21:11:00  BASE  11.6365  30   14.8823  30   4.0   95    3.3   0     0     990.3    NA       0.0000   9999     4990  0     0    
2019/06/04  21:12:00  BASE  10.6487  30   14.8823  30   4.0   95    3.2   0     0     990.4    NA       0.0000   9999     4950  0     0    
2019/06/04  21:13:00  BASE  10.1195  32   14.8823  30   4.0   95    3.3   0     0     990.4    NA       0.0000   9999     4950  0     0    
2019/06/04  21:14:00  BASE  10.2547  32   14.8823  30   4.0   95    3.3   0     0     990.4    NA       0.0000   9999     3970  4990  0    
2019/06/04  21:15:00  BASE  10.5722  29   14.8823  30   4.0   95    3.3   0     0     990.4    NA       0.0000   9999     3840  4990  0    
2019/06/04  21:16:00  BASE  10.684   27   14.5177  35   4.1   95    3.3   0     0     990.4    NA       0.0000   9999     3900  4990  0    
2019/06/04  21:17:00  BASE  10.3606  28   14.5177  35   4.1   95    3.3   0     0     990.5    NA       0.0000   9999     3840  4990  0    
2019/06/04  21:18:00  BASE  9.27864  28   14.5177  35   4.2   95    3.4   0     0     990.6    NA       0.0000   9999     4950  0     0    
2019/06/04  21:19:00  BASE  7.90272  35   13.2476  33   4.2   94    3.4   0     0     990.6    NA       0.0000   9999     4920  0     0    
2019/06/04  21:20:00  BASE  7.20888  44   13.2476  33   4.2   94    3.3   0     0     990.6    NA       0.0000   9999     3970  5020  0    
2019/06/04  21:21:00  BASE  6.95604  50   13.0066  28   4.2   94    3.3   0     0     990.6    NA       0.0000   9999     5050  0     0    
2019/06/04  21:22:00  BASE  5.4978   55   13.0066  28   4.2   94    3.3   0     0     990.7    NA       0.0000   9999     4990  0     0    
2019/06/04  21:23:00  BASE  4.06896  48   13.0066  28   4.2   94    3.3   0     0     990.7    NA       0.0000   9999     4990  0     0    
2019/06/04  21:24:00  BASE  3.25164  14   12.2833  31   4.2   93    3.2   0     0     990.8    NA       0.0000   9999     5020  0     0    
2019/06/04  21:25:00  BASE  3.91608  26   12.007   28   4.2   94    3.2   0     0     990.7    NA       0.0000   9999     5020  0     0    
2019/06/04  21:26:00  BASE  4.95096  61   11.86    32   4.2   94    3.2   0     0     990.7    NA       0.0000   9999     5050  0     0    
2019/06/04  21:27:00  BASE  4.66872  64   10.5252  40   4.1   94    3.2   0     0     990.7    NA       0.0000   9999     5120  0     0    
2019/06/04  21:28:00  BASE  5.12148  59   9.31392  44   4.1   94    3.2   0     0     990.6    NA       0.0000   9999     5150  0     0    
2019/06/04  21:29:00  BASE  6.15048  58   9.31392  44   4.1   94    3.3   0     0     990.6    NA       0.0000   9999     5090  0     0    
2019/06/04  21:30:00  BASE  6.65616  59   9.31392  62   4.2   94    3.3   0     0     990.5    NA       0.0000   9999     5090  0     0    
2019/06/04  21:31:00  BASE  6.60324  55   9.31392  62   4.2   94    3.3   0     0     990.5    NA       0.0000   9999     5150  0     0    
2019/06/04  21:32:00  BASE  5.60364  63   9.31392  62   4.2   94    3.3   0     0     990.6    NA       0.0000   9999     5350  0     0    
2019/06/04  21:33:00  BASE  4.07484  80   9.31392  62   4.2   94    3.3   0     0     990.5    NA       0.0000   9999     5150  0     0    
2019/06/04  21:34:00  BASE  3.528    117  9.31392  62   4.2   94    3.3   0     0     990.5    NA       0.0000   9999     5150  0     0    
2019/06/04  21:35:01  BASE  2.69892  144  9.31392  62   4.1   94    3.2   0     0     990.5    NA       0.0000   9999     5090  0     0    
2019/06/04  21:36:01  BASE  2.59896  144  9.31392  62   4.0   93    3.0   0     0     990.6    NA       0.0000   9999     5050  0     0    
2019/06/04  21:37:01  BASE  2.16384  159  9.31392  62   3.9   93    2.9   0     0     990.7    NA       0.0000   9999     5120  0     0    
2019/06/04  21:38:01  BASE  1.01724  205  9.31392  62   3.7   93    2.7   0     0     990.6    NA       0.0000   9999     5090  0     0    
2019/06/04  21:39:01  BASE  1.58172  229  9.31392  62   3.7   93    2.7   0     0     990.5    NA       0.0000   9999     5120  0     0    
2019/06/04  21:40:01  BASE  2.12268  224  8.3202   73   3.6   94    2.7   0     0     990.6    NA       0.0000   9999     5050  0     0    
2019/06/04  21:41:01  BASE  2.0874   333  7.47348  47   3.7   94    2.9   0     0     990.5    NA       0.0000   9999     5090  0     0    
2019/06/04  21:42:01  BASE  1.80516  360  5.44488  113  3.9   94    3.0   0     0     990.5    NA       0.0000   9999     5120  0     0    
2019/06/04  21:43:01  BASE  0.89376  342  5.08032  147  4.0   94    3.1   0     0     990.6    NA       0.0000   9999     5150  0     0    
2019/06/04  21:44:01  BASE  1.37004  1    4.78044  33   4.1   94    3.2   0     0     990.5    NA       0.0000   9999     5150  0     0    
2019/06/04  21:45:01  BASE  2.7048   31   4.78044  33   4.2   94    3.3   0     0     990.5    NA       0.0000   9999     5180  0     0    
2019/06/04  21:46:01  BASE  3.71028  54   5.56836  23   4.2   93    3.2   0     0     990.5    NA       0.0000   9999     4890  5410  0    
2019/06/04  21:47:01  BASE  3.71028  72   6.16812  82   4.3   93    3.2   0     0     990.4    NA       0.0000   9999     5050  0     0    
2019/06/04  21:48:01  BASE  3.25164  85   6.16812  82   4.3   93    3.2   0     0     990.4    NA       0.0000   9999     5150  0     0    
2019/06/04  21:49:01  BASE  3.19284  90   6.16812  82   4.3   93    3.3   0     0     990.4    NA       0.0000   9999     5380  0     0    
2019/06/04  21:50:01  BASE  2.69304  78   6.16812  82   4.3   93    3.3   0     0     990.4    NA       0.0000   9999     5450  0     0    
2019/06/04  21:51:01  BASE  3.33396  44   6.2916   60   4.3   93    3.3   0     0     990.4    NA       0.0000   9999     5510  0     0    
2019/06/04  21:52:01  BASE  4.79808  41   7.19712  35   4.3   93    3.3   0     0     990.4    NA       0.0000   9999     5680  14010 0    
2019/06/04  21:53:01  BASE  6.39156  46   8.98464  42   4.3   93    3.3   0     0     990.4    NA       0.0000   9999     5770  0     0    
2019/06/04  21:54:01  BASE  7.497    46   9.04344  38   4.3   93    3.3   0     0     990.3    NA       0.0000   9999     0     0     0    
2019/06/04  21:55:01  BASE  7.84392  44   9.4374   43   4.3   93    3.3   0     0     990.3    NA       0.0000   9999     5480  0     0    
2019/06/04  21:56:01  BASE  8.44368  45   9.59028  47   4.4   93    3.3   0     0     990.2    NA       0.0000   9999     5840  0     0    
2019/06/04  21:57:01  BASE  9.4962   47   11.1896  44   4.4   93    3.4   0     0     990.1    NA       0.0000   9999     0     0     0    
2019/06/04  21:58:01  BASE  9.99012  46   11.1896  44   4.4   93    3.4   0     0     990.0    NA       0.0000   9999     0     0     0    
2019/06/04  21:59:01  BASE  10.2488  45   12.101   47   4.5   93    3.4   0     0     990.0    NA       0.0000   9999     0     0     0    
2019/06/04  22:00:01  BASE  10.6075  45   12.5538  49   4.5   92    3.4   0     0     989.9    NA       0.0000   9999     4790  5410  0    
2019/06/04  22:01:01  BASE  10.3547  45   12.5538  49   4.5   92    3.3   0     0     989.9    NA       0.0000   9999     4790  0     0    
2019/06/04  22:02:01  BASE  10.1783  47   12.5538  49   4.5   92    3.3   0     0     989.9    NA       0.0000   9999     4890  5580  0    
2019/06/04  22:03:01  BASE  10.5076  47   12.5538  49   4.5   91    3.2   0     0     989.9    NA       0.0000   9999     5810  0     0    
2019/06/04  22:04:01  BASE  11.0426  46   12.5538  49   4.5   91    3.2   0     0     989.8    NA       0.0000   9999     5480  0     0    
2019/06/04  22:05:01  BASE  10.9662  47   12.5538  49   4.5   91    3.2   0     0     989.9    NA       0.0000   9999     5480  0     0    
2019/06/04  22:06:01  BASE  10.4899  44   12.5538  49   4.5   91    3.2   0     0     989.9    NA       0.0000   9999     5220  0     0    
2019/06/04  22:07:01  BASE  10.39    43   12.5538  49   4.6   91    3.2   0     0     989.9    NA       0.0000   9999     4070  5150  0    
2019/06/04  22:08:01  BASE  10.4311  45   12.5538  49   4.6   90    3.1   0     0     990.0    NA       0.0000   9999     4070  5120  0    
2019/06/04  22:09:01  BASE  9.996    47   12.5538  49   4.6   90    3.1   0     0     990.0    NA       0.0000   9999     4100  0     0    
2019/06/04  22:10:01  BASE  9.68436  48   12.2186  42   4.6   90    3.1   0     0     990.1    NA       0.0000   9999     4230  0     0    
2019/06/04  22:11:01  BASE  8.75532  49   12.2186  42   4.6   90    3.1   0     0     990.1    NA       0.0000   9999     4360  5410  0    
2019/06/04  22:12:01  BASE  8.71416  47   12.1892  47   4.6   90    3.1   0     0     990.1    NA       0.0000   9999     5320  0     0    
2019/06/04  22:13:01  BASE  9.57264  49   12.1892  47   4.6   90    3.1   0     0     990.0    NA       0.0000   9999     4890  5480  0    
2019/06/04  22:14:01  BASE  8.83764  51   12.0364  43   4.5   90    3.0   0     0     990.1    NA       0.0000   9999     4330  4820  0    
2019/06/04  22:15:01  BASE  7.71456  55   11.8894  42   4.5   90    3.0   0     0     990.2    NA       0.0000   9999     4360  5090  0    
2019/06/04  22:16:01  BASE  7.10892  58   11.8894  42   4.5   90    3.0   0     0     990.3    NA       0.0000   9999     4400  0     0    
2019/06/04  22:17:01  BASE  5.69772  69   11.7365  45   4.5   90    3.0   0     0     990.3    NA       0.0000   9999     4430  0     0    
2019/06/04  22:18:01  BASE  3.6456   87   10.8898  49   4.5   90    3.0   0     0     990.4    NA       0.0000   9999     4530  0     0    
2019/06/04  22:19:01  BASE  3.6162   104  10.8898  49   4.5   90    2.9   0     0     990.4    NA       0.0000   9999     4270  0     0    
2019/06/04  22:20:01  BASE  3.06936  118  10.7663  50   4.3   89    2.7   0     0     990.4    NA       0.0000   9999     4360  0     0    
2019/06/04  22:21:01  BASE  2.75772  135  10.7663  50   4.0   89    2.4   0     0     990.3    NA       0.0000   9999     4360  0     0    
2019/06/04  22:22:01  BASE  2.76948  162  10.7663  50   3.6   89    2.0   0     0     990.3    NA       0.0000   9999     4400  0     0    
2019/06/04  22:23:01  BASE  1.57584  173  10.7075  45   3.2   89    1.6   0     0     990.3    NA       0.0000   9999     4270  0     0    
2019/06/04  22:24:01  BASE  2.35788  152  10.7075  45   2.8   90    1.4   0     0     990.3    NA       0.0000   9999     4430  0     0    
2019/06/04  22:25:01  BASE  4.09836  147  8.80236  63   2.6   91    1.3   0     0     990.3    NA       0.0000   9999     4460  0     0    
2019/06/04  22:26:01  BASE  5.06268  156  8.16732  55   2.4   93    1.3   0     0     990.3    NA       0.0000   9999     4490  0     0    
2019/06/04  22:27:01  BASE  5.38608  155  5.95644  166  2.3   94    1.4   0     0     990.3    NA       0.0000   9999     4530  0     0    
2019/06/04  22:28:01  BASE  5.16852  156  5.95644  166  2.2   95    1.5   0     0     990.3    NA       0.0000   9999     4660  0     0    
2019/06/04  22:29:01  BASE  4.94508  157  5.95644  166  2.2   96    1.5   0     0     990.3    NA       0.0000   9999     4590  0     0    
2019/06/04  22:30:01  BASE  4.4982   157  5.95644  166  2.1   96    1.6   0     0     990.4    NA       0.0000   9999     4630  0     0    
2019/06/04  22:31:01  BASE  3.63384  159  5.95644  166  2.1   97    1.6   0     0     990.3    NA       0.0000   9999     4490  0     0    
2019/06/04  22:32:01  BASE  3.53388  169  5.95644  166  2.0   97    1.7   0     0     990.3    NA       0.0000   9999     4430  0     0    
2019/06/04  22:33:01  BASE  4.704    170  6.95604  155  2.0   98    1.7   0     0     990.2    NA       0.0000   9999     4460  0     0    
2019/06/04  22:34:01  BASE  5.92116  162  7.05012  144  2.1   99    1.9   0     0     990.3    NA       0.0000   9999     4460  0     0    
2019/06/04  22:35:00  BASE  6.09168  157  7.05012  144  2.1   99    1.9   0     0     990.3    NA       0.0000   9999     4460  0     0    
2019/06/04  22:36:01  BASE  5.49192  152  7.05012  144  2.1   99    2.0   0     0     990.4    NA       0.0000   9999     4460  0     0    
2019/06/04  22:37:00  BASE  4.56288  152  7.05012  144  2.2   99    2.1   0     0     990.4    NA       0.0000   9999     4460  0     0    
2019/06/04  22:38:00  BASE  3.83376  157  7.05012  144  2.3   99    2.1   0     0     990.4    NA       0.0000   9999     3770  4530  0    
2019/06/04  22:39:00  BASE  3.85728  155  7.05012  144  2.2   99    2.1   0     0     990.4    NA       0.0000   9999     4330  0     0    
2019/06/04  22:40:00  BASE  4.21596  154  7.05012  144  2.2   99    2.1   0     0     990.4    NA       0.0000   9999     3740  4360  0    
2019/06/04  22:41:00  BASE  4.3512   157  7.05012  144  2.2   99    2.1   0     0     990.5    NA       0.0000   9999     3710  0     0    
2019/06/04  22:42:00  BASE  4.42176  158  7.05012  144  2.2   99    2.0   0     0     990.5    NA       0.0000   9999     3670  0     0    
2019/06/04  22:43:00  BASE  4.46292  164  7.05012  144  2.2   99    2.0   0     0     990.4    NA       0.0000   9999     3180  0     0    
2019/06/04  22:44:00  BASE  4.42764  171  6.41508  162  2.2   99    2.0   0     0     990.5    NA       0.0000   9999     3410  0     0    
2019/06/04  22:45:00  BASE  4.3218   172  5.3214   142  2.2   99    2.0   0     0     990.5    NA       0.0000   9999     3020  0     0    
2019/06/04  22:46:00  BASE  4.28652  170  4.89804  152  2.1   99    2.0   0     0     990.4    NA       0.0000   9999     3050  0     0    
2019/06/04  22:47:00  BASE  4.45116  172  4.86864  172  2.0   99    1.8   0     0     990.4    NA       0.0000   9999     3080  0     0    
2019/06/04  22:48:00  BASE  4.76868  174  5.1744   170  1.8   99    1.7   0     0     990.5    NA       0.0000   9999     2990  0     0    
2019/06/04  22:49:00  BASE  4.92744  173  5.1744   169  1.7   99    1.5   0     0     990.4    NA       0.0000   9999     2950  0     0    
2019/06/04  22:50:00  BASE  4.82748  172  5.1744   169  1.5   99    1.4   0     0     990.5    NA       0.0000   9999     2890  0     0    
2019/06/04  22:51:00  BASE  4.73928  171  5.1744   169  1.4   100   1.3   0     0     990.5    NA       0.0000   9999     2920  0     0    
2019/06/04  22:52:00  BASE  4.68048  164  5.1744   169  1.3   100   1.2   0     0     990.5    NA       0.0000   9999     2950  0     0    
2019/06/04  22:53:00  BASE  4.03368  154  5.1744   169  1.2   100   1.2   0     0     990.6    NA       0.0000   9999     2990  0     0    
2019/06/04  22:54:00  BASE  3.2634   144  5.1744   169  1.2   100   1.2   0     0     990.7    NA       0.0000   9999     2790  0     0    
2019/06/04  22:55:00  BASE  2.93412  136  5.1744   169  1.2   100   1.2   0     0     990.7    NA       0.0000   9999     4590  0     0    
2019/06/04  22:56:00  BASE  2.59308  131  5.1744   169  1.2   100   1.2   0     0     990.7    NA       0.0000   9999     4590  0     0    
2019/06/04  22:57:00  BASE  2.2344   139  5.1744   169  1.3   100   1.3   0     0     990.6    NA       0.0000   9999     4630  0     0    
2019/06/04  22:58:00  BASE  2.62836  150  5.1744   169  1.4   100   1.4   0     0     990.5    NA       0.0000   9999     4690  0     0    
2019/06/04  22:59:00  BASE  2.60484  155  5.10972  163  1.5   100   1.5   0     0     990.6    NA       0.0000   9999     5120  0     0    
2019/06/04  23:00:00  BASE  1.15836  177  5.10972  163  1.7   100   1.7   0     0     990.7    NA       0.0000   9999     4990  0     0    
2019/06/04  23:01:00  BASE  0.7056   281  5.10972  163  2.0   100   2.0   0     0     990.6    NA       0.0000   9999     4530  5250  0    
2019/06/04  23:02:00  BASE  2.9694   330  6.89724  336  2.5   100   2.5   0     0     990.5    NA       0.0000   9999     4560  0     0    
2019/06/04  23:03:00  BASE  5.21556  359  7.07952  4    3.1   100   3.1   0     0     990.6    NA       0.0000   9999     4530  0     0    
2019/06/04  23:04:00  BASE  4.50996  353  7.07952  4    3.8   100   3.8   0     0     990.6    NA       0.0000   9999     4590  0     0    
2019/06/04  23:05:00  BASE  2.53428  6    7.07952  4    4.5   99    4.4   0     0     990.5    NA       0.0000   9999     4660  0     0    
2019/06/04  23:06:00  BASE  1.764    46   7.07952  4    5.0   98    4.6   0     0     990.5    NA       0.0000   9999     6070  0     0    
2019/06/04  23:07:00  BASE  1.87572  32   7.07952  4    5.3   95    4.7   0     0     990.5    NA       0.0000   9999     4660  0     0    
2019/06/04  23:08:00  BASE  3.01644  7    7.07952  4    5.4   92    4.3   0     0     990.5    NA       0.0000   9999     4560  0     0    
2019/06/04  23:09:00  BASE  3.21636  340  7.07952  4    5.2   89    3.5   0     0     990.6    NA       0.0000   9999     4590  0     0    
2019/06/04  23:10:00  BASE  2.06388  317  7.07952  4    4.8   87    2.8   0     0     990.6    NA       0.0000   9999     4660  6230  0    
2019/06/04  23:11:00  BASE  1.96392  308  7.07952  4    4.3   86    2.2   0     0     990.7    NA       0.0000   9999     4990  5910  0    
2019/06/04  23:12:00  BASE  1.63464  276  7.07952  4    3.8   87    1.8   0     0     990.7    NA       0.0000   9999     4920  0     0    
2019/06/04  23:13:00  BASE  1.85808  246  6.92664  50   3.3   88    1.5   0     0     990.7    NA       0.0000   9999     4890  0     0    
2019/06/04  23:14:00  BASE  2.47548  232  5.3214   5    3.1   89    1.5   0     0     990.7    NA       0.0000   9999     0     0     0    
2019/06/04  23:15:00  BASE  2.80476  223  5.3214   5    2.8   91    1.5   0     0     990.7    NA       0.0000   9999     5050  0     0    
2019/06/04  23:16:00  BASE  3.24576  211  5.3214   5    2.6   92    1.5   0     0     990.7    NA       0.0000   9999     5150  0     0    
2019/06/04  23:17:00  BASE  2.99292  195  5.3214   5    2.5   93    1.5   0     0     990.7    NA       0.0000   9999     5380  0     0    
2019/06/04  23:18:00  BASE  2.56956  174  3.96312  214  2.4   94    1.5   0     0     990.8    NA       0.0000   9999     5120  0     0    
2019/06/04  23:19:00  BASE  2.13444  163  3.96312  214  2.3   95    1.6   0     0     990.8    NA       0.0000   9999     5090  0     0    
2019/06/04  23:20:00  BASE  2.04624  165  3.96312  214  2.3   96    1.7   0     0     990.8    NA       0.0000   9999     5090  0     0    
2019/06/04  23:21:00  BASE  2.54016  162  3.96312  214  2.2   96    1.7   0     0     990.7    NA       0.0000   9999     5150  0     0    
2019/06/04  23:22:00  BASE  2.7636   155  3.96312  214  2.1   97    1.7   0     0     990.8    NA       0.0000   9999     5150  0     0    
2019/06/04  23:23:00  BASE  2.77536  157  3.96312  214  2.1   98    1.8   0     0     990.7    NA       0.0000   9999     5220  0     0    
2019/06/04  23:24:00  BASE  2.51664  161  3.96312  214  2.1   98    1.8   0     0     990.7    NA       0.0000   9999     5250  0     0    
2019/06/04  23:25:00  BASE  2.1462   159  3.96312  214  2.1   98    1.9   0     0     990.7    NA       0.0000   9999     5350  0     0    
2019/06/04  23:26:00  BASE  2.15208  155  3.59856  189  2.2   99    2.0   0     0     990.7    NA       0.0000   9999     5410  0     0    
2019/06/04  23:27:00  BASE  2.21676  155  3.35748  162  2.3   99    2.2   0     0     990.7    NA       0.0000   9999     5680  0     0    
2019/06/04  23:28:00  BASE  2.0874   162  3.35748  162  2.4   99    2.3   0     0     990.7    NA       0.0000   9999     5870  0     0    
2019/06/04  23:29:00  BASE  1.93452  163  3.35748  162  2.5   99    2.3   0     0     990.7    NA       0.0000   9999     5810  0     0    
2019/06/04  23:30:00  BASE  2.35788  164  3.35748  162  2.5   99    2.4   0     0     990.7    NA       0.0000   9999     0     0     0    
2019/06/04  23:31:00  BASE  2.9106   167  3.26928  161  2.6   99    2.4   0     0     990.6    NA       0.0000   9999     0     0     0    
2019/06/04  23:32:00  BASE  2.85768  164  3.32808  162  2.7   98    2.5   0     0     990.7    NA       0.0000   9999     0     0     0    
2019/06/04  23:33:00  BASE  3.0576   161  4.29828  158  2.7   98    2.5   0     0     990.7    NA       0.0000   9999     0     0     0    
2019/06/04  23:34:00  BASE  3.97488  162  4.83924  165  2.7   98    2.4   0     0     990.6    NA       0.0000   9999     0     0     0    
2019/06/04  23:35:00  BASE  4.41     165  4.83924  165  2.7   98    2.3   0     0     990.6    NA       0.0000   9999     0     0     0    
2019/06/04  23:36:00  BASE  4.39824  165  4.83924  165  2.6   98    2.2   0     0     990.5    NA       0.0000   9999     6500  0     0    
2019/06/04  23:37:00  BASE  4.36884  165  4.83924  165  2.5   98    2.1   0     0     990.5    NA       0.0000   9999     6070  0     0    
2019/06/04  23:38:00  BASE  3.84552  159  4.83924  165  2.4   98    2.0   0     0     990.5    NA       0.0000   9999     6040  0     0    
2019/06/04  23:39:00  BASE  3.71616  154  4.83924  165  2.3   98    2.0   0     0     990.5    NA       0.0000   9999     0     0     0    
2019/06/04  23:40:00  BASE  3.86904  158  4.83924  165  2.2   98    2.0   0     0     990.5    NA       0.0000   9999     0     0     0    
2019/06/04  23:41:00  BASE  3.84552  153  4.83924  165  2.1   98    1.9   0     0     990.5    NA       0.0000   9999     7050  0     0    
2019/06/04  23:42:00  BASE  3.51624  137  4.83924  165  2.1   99    1.9   0     0     990.6    NA       0.0000   9999     6630  0     0    
2019/06/04  23:43:00  BASE  2.76948  114  4.83924  165  2.2   99    2.0   0     0     990.6    NA       0.0000   9999     6790  0     0    
2019/06/04  23:44:00  BASE  2.32848  102  4.80984  141  2.3   99    2.3   0     0     990.5    NA       0.0000   9999     6860  0     0    
2019/06/04  23:45:00  BASE  2.63424  118  4.80984  141  2.6   100   2.5   0     0     990.5    NA       0.0000   9999     6860  0     0    
2019/06/04  23:46:00  BASE  3.10464  139  4.80984  141  2.7   99    2.7   0     0     990.5    NA       0.0000   9999     6890  0     0    
2019/06/04  23:47:00  BASE  3.28104  141  4.80984  141  2.8   99    2.7   0     0     990.5    NA       0.0000   9999     6790  0     0    
2019/06/04  23:48:00  BASE  3.26928  134  4.80984  141  2.9   98    2.7   0     0     990.5    NA       0.0000   9999     4860  0     0    
2019/06/04  23:49:00  BASE  2.98116  130  4.80984  141  2.9   98    2.6   0     0     990.5    NA       0.0000   9999     4820  0     0    
2019/06/04  23:50:00  BASE  2.7342   142  4.80984  141  2.9   97    2.5   0     0     990.5    NA       0.0000   9999     4820  0     0    
2019/06/04  23:51:00  BASE  3.29868  158  4.08072  154  2.9   97    2.4   0     0     990.4    NA       0.0000   9999     4790  0     0    
2019/06/04  23:52:00  BASE  3.91608  152  4.1454   147  2.9   96    2.3   0     0     990.4    NA       0.0000   9999     4790  0     0    
2019/06/04  23:53:00  BASE  3.73968  149  4.1454   147  2.8   96    2.2   0     0     990.4    NA       0.0000   9999     4890  0     0    
2019/06/04  23:54:00  BASE  3.56328  155  4.1454   147  2.7   96    2.1   0     0     990.4    NA       0.0000   9999     0     0     0    
2019/06/04  23:55:00  BASE  3.54564  158  4.1454   147  2.6   96    2.0   0     0     990.4    NA       0.0000   9999     4890  0     0    
2019/06/04  23:56:00  BASE  3.56328  161  4.1454   147  2.6   96    2.0   0     0     990.4    NA       0.0000   9999     0     0     0    
2019/06/04  23:57:00  BASE  3.28104  161  4.1454   147  2.6   97    2.1   0     0     990.3    NA       0.0000   9999     0     0     0    
2019/06/04  23:58:00  BASE  3.11052  156  4.1454   147  2.6   97    2.1   0     0     990.3    NA       0.0000   9999     0     0     0    
2019/06/04  23:59:00  BASE  3.21636  153  4.1454   147  2.6   97    2.1   0     0     990.3    NA       0.0000   9999     0     0     0